[[{"header":{"parameterUnit":"m.s-1","parameterCategory":1,"la1":30.6,"la2":28.766,"lo1":-90.7593,"lo2":-88.6598,"dy":0.0162,"dx":0.0183,"nx":116,"ny":114,"refTime":"2024-07-05T00:00:00:Z","depth":0,"parameterNumber":2,"parameterNumberName":"U-component_of_WINDS"},"data":[0.0,0.0,0.0,0.0,0.0,0.0,0.0,0.0,0.0,0.0,0.0,0.0,0.0,0.0,0.0,0.0,0.0,0.0,0.0,0.0,0.0,0.0,0.0,0.0,0.0,0.0,0.0,0.0,0.0,0.0,0.0,0.0,0.0,0.0,0.0,0.0,0.0,0.0,0.0,0.0,0.0,0.0,0.0,0.0,0.0,0.0,0.0,0.0,0.0,0.0,0.0,0.0,0.0,0.0,0.0,0.0,0.0,0.0,0.0,0.0,0.0,0.0,0.0,0.0,0.0,0.0,0.0,0.0,0.0,0.0,0.0,0.0,0.0,0.0,0.0,0.0,0.0,0.0,0.0,0.0,0.0,0.0,0.0,0.0,0.0,0.0,0.0,0.0,0.0,0.0,0.0,0.0,0.0,0.0,0.0,0.0,0.0,0.0,0.0,0.0,0.0,0.0,0.0,0.0,0.0,0.0,0.0,0.0,0.0,0.0,0.0,0.0,0.0,0.0,0.0,0.0,0.0,0.0,0.0,0.0,0.0,0.0,0.0,0.0,0.0,0.0,0.0,0.0,0.0,0.0,0.0,0.0,0.0,0.0,0.0,0.0,0.0,0.0,0.0,0.0,0.0,0.0,0.0,0.0,0.0,0.0,0.0,0.0,0.0,0.0,0.0,0.0,0.0,0.0,0.0,0.0,0.0,0.0,0.0,0.0,0.0,0.0,0.0,0.0,0.0,0.0,0.0,0.0,0.0,0.0,0.0,0.0,0.0,0.0,0.0,0.0,0.0,0.0,0.0,0.0,0.0,0.0,0.0,0.0,0.0,0.0,0.0,0.0,0.0,0.0,0.0,0.0,0.0,0.0,0.0,0.0,0.0,0.0,0.0,0.0,0.0,0.0,0.0,0.0,0.0,0.0,0.0,0.0,0.0,0.0,0.0,0.0,0.0,0.0,0.0,0.0,0.0,0.0,0.0,0.0,0.0,0.0,0.0,0.0,0.0,0.0,0.0,0.0,0.0,0.0,0.0,0.0,0.0,0.0,0.0,0.0,0.0,0.0,0.0,0.0,0.0,0.0,0.0,0.0,0.0,0.0,0.0,0.0,0.0,0.0,0.0,0.0,0.0,0.0,0.0,0.0,0.0,0.0,0.0,0.0,0.0,0.0,0.0,0.0,0.0,0.0,0.0,0.0,0.0,0.0,0.0,0.0,0.0,0.0,0.0,0.0,0.0,0.0,0.0,0.0,0.0,0.0,0.0,0.0,0.0,0.0,0.0,0.0,0.0,0.0,0.0,0.0,0.0,0.0,0.0,0.0,0.0,0.0,0.0,0.0,0.0,0.0,0.0,0.0,0.0,0.0,0.0,0.0,0.0,0.0,0.0,0.0,0.0,0.0,0.0,0.0,0.0,0.0,0.0,0.0,0.0,0.0,0.0,0.0,0.0,0.0,0.0,0.0,0.0,0.0,0.0,0.0,0.0,0.0,0.0,0.0,0.0,0.0,0.0,0.0,0.0,0.0,0.0,0.0,0.0,0.0,0.0,0.0,0.0,0.0,0.0,0.0,0.0,0.0,0.0,0.0,0.0,0.0,0.0,0.0,0.0,0.0,0.0,0.0,0.0,0.0,0.0,0.0,0.0,0.0,0.0,0.0,0.0,0.0,0.0,0.0,0.0,0.0,0.0,0.0,0.0,0.0,0.0,0.0,0.0,0.0,0.0,0.0,0.0,0.0,0.0,0.0,0.0,0.0,0.0,0.0,0.0,0.0,0.0,0.0,0.0,0.0,0.0,0.0,0.0,0.0,0.0,0.0,0.0,0.0,0.0,0.0,0.0,0.0,0.0,0.0,0.0,0.0,0.0,0.0,0.0,0.0,0.0,0.0,0.0,0.0,0.0,0.0,0.0,0.0,0.0,0.0,0.0,0.0,0.0,0.0,0.0,0.0,0.0,0.0,0.0,0.0,0.0,0.0,0.0,0.0,0.0,0.0,0.0,0.0,0.0,0.0,0.0,0.0,0.0,0.0,0.0,0.0,0.0,0.0,0.0,0.0,0.0,0.0,0.0,0.0,0.0,0.0,0.0,0.0,0.0,0.0,0.0,0.0,0.0,0.0,0.0,0.0,0.0,0.0,0.0,0.0,0.0,0.0,0.0,0.0,0.0,0.0,0.0,0.0,0.0,0.0,0.0,0.0,0.0,0.0,0.0,0.0,0.0,0.0,0.0,0.0,0.0,0.0,0.0,0.0,0.0,0.0,0.0,0.0,0.0,0.0,0.0,0.0,0.0,0.0,0.0,0.0,0.0,0.0,0.0,0.0,0.0,0.0,0.0,0.0,0.0,0.0,0.0,0.0,0.0,0.0,0.0,0.0,0.0,0.0,0.0,0.0,0.0,0.0,0.0,0.0,0.0,0.0,0.0,0.0,0.0,0.0,0.0,0.0,0.0,0.0,0.0,0.0,0.0,0.0,0.0,0.0,0.0,0.0,0.0,0.0,0.0,0.0,0.0,0.0,0.0,0.0,0.0,0.0,0.0,0.0,0.0,0.0,0.0,0.0,0.0,0.0,0.0,0.0,0.0,0.0,0.0,0.0,0.0,0.0,0.0,0.0,0.0,0.0,0.0,0.0,0.0,0.0,0.0,0.0,0.0,0.0,0.0,0.0,0.0,0.0,0.0,0.0,0.0,0.0,0.0,0.0,0.0,0.0,0.0,0.0,0.0,0.0,0.0,0.0,0.0,0.0,0.0,0.0,0.0,0.0,0.0,0.0,0.0,0.0,0.0,0.0,0.0,0.0,0.0,0.0,0.0,0.0,0.0,0.0,0.0,0.0,0.0,0.0,0.0,0.0,0.0,0.0,0.0,0.0,0.0,0.0,0.0,0.0,0.0,0.0,0.0,0.0,0.0,0.0,0.0,0.0,0.0,0.0,0.0,0.0,0.0,0.0,0.0,0.0,0.0,0.0,0.0,0.0,0.0,0.0,0.0,0.0,0.0,0.0,0.0,0.0,0.0,0.0,0.0,0.0,0.0,0.0,0.0,0.0,0.0,0.0,0.0,0.0,0.0,0.0,0.0,0.0,0.0,0.0,0.0,0.0,0.0,0.0,0.0,0.0,0.0,0.0,0.0,0.0,0.0,0.0,0.0,0.0,0.0,0.0,0.0,0.0,0.0,0.0,0.0,0.0,0.0,0.0,0.0,0.0,0.0,0.0,0.0,0.0,0.0,0.0,0.0,0.0,0.0,0.0,0.0,0.0,0.0,0.0,0.0,0.0,0.0,0.0,0.0,0.0,0.0,0.0,0.0,0.0,0.0,0.0,0.0,0.0,0.0,0.0,0.0,0.0,0.0,0.0,0.0,0.0,0.0,0.0,0.0,0.0,0.0,0.0,0.0,0.0,0.0,0.0,0.0,0.0,0.0,0.0,0.0,0.0,0.0,0.0,0.0,0.0,0.0,0.0,0.0,0.0,0.0,0.0,0.0,0.0,0.0,0.0,0.0,0.0,0.0,0.0,0.0,0.0,0.0,0.0,0.0,0.0,0.0,0.0,0.0,0.0,0.0,0.0,0.0,0.0,0.0,0.0,0.0,0.0,0.0,0.0,0.0,0.0,0.0,0.0,0.0,0.0,0.0,0.0,0.0,0.0,0.0,0.0,0.0,0.0,0.0,0.0,0.0,0.0,0.0,0.0,0.0,0.0,0.0,0.0,0.0,0.0,0.0,0.0,0.0,0.0,0.0,0.0,0.0,0.0,0.0,0.0,0.0,0.0,0.0,0.0,0.0,0.0,0.0,0.0,0.0,0.0,0.0,0.0,0.0,0.0,0.0,0.0,0.0,0.0,0.0,0.0,0.0,0.0,0.0,0.0,0.0,0.0,0.0,0.0,0.0,0.0,0.0,0.0,0.0,0.0,0.0,0.0,0.0,0.0,0.0,0.0,0.0,0.0,0.0,0.0,0.0,0.0,0.0,0.0,0.0,0.0,0.0,0.0,0.0,0.0,0.0,0.0,0.0,0.0,0.0,0.0,0.0,0.0,0.0,0.0,0.0,0.0,0.0,0.0,0.0,0.0,0.0,0.0,0.0,0.0,0.0,0.0,0.0,0.0,0.0,0.0,0.0,0.0,0.0,0.0,0.0,0.0,0.0,0.0,0.0,0.0,0.0,0.0,0.0,0.0,0.0,0.0,0.0,0.0,0.0,0.0,0.0,0.0,0.0,0.0,0.0,0.0,0.0,0.0,0.0,0.0,0.0,0.0,0.0,0.0,0.0,0.0,0.0,0.0,0.0,0.0,0.0,0.0,0.0,0.0,0.0,0.0,0.0,0.0,0.0,0.0,0.0,0.0,0.0,0.0,0.0,0.0,0.0,0.0,0.0,0.0,0.0,0.0,0.0,0.0,0.0,0.0,0.0,0.0,0.0,0.0,0.0,0.0,0.0,0.0,0.0,0.0,0.0,0.0,0.0,0.0,0.0,0.0,0.0,0.0,0.0,0.0,0.0,0.0,0.0,0.0,0.0,0.0,0.0,0.0,0.0,0.0,0.0,0.0,0.0,0.0,0.0,0.0,0.0,0.0,0.0,0.0,0.0,0.0,0.0,0.0,0.0,0.0,0.0,0.0,0.0,0.0,0.0,0.0,0.0,0.0,0.0,0.0,0.0,0.0,0.0,0.0,0.0,0.0,0.0,0.0,0.0,0.0,0.0,0.0,0.0,0.0,0.0,0.0,0.0,0.0,0.0,0.0,0.0,0.0,0.0,0.0,0.0,0.0,0.0,0.0,0.0,0.0,0.0,0.0,0.0,0.0,0.0,0.0,0.0,0.0,0.0,0.0,0.0,0.0,0.0,0.0,0.0,0.0,0.0,0.0,0.0,0.0,0.0,0.0,0.0,0.0,0.0,0.0,0.0,0.0,0.0,0.0,0.0,0.0,0.0,0.0,0.0,0.0,0.0,0.0,0.0,0.0,0.0,0.0,0.0,0.0,0.0,0.0,0.0,0.0,0.0,0.0,0.0,0.0,0.0,0.0,0.0,0.0,0.0,0.0,0.0,0.0,0.0,0.0,0.0,0.0,0.0,0.0,0.0,0.0,0.0,0.0,0.0,0.0,0.0,0.0,0.0,0.0,0.0,0.0,0.0,0.0,0.0,0.0,0.0,0.0,0.0,0.0,0.0,0.0,0.0,0.0,0.0,0.0,0.0,0.0,0.0,0.0,0.0,0.0,0.0,0.0,0.0,0.0,0.0,0.0,0.0,0.0,0.0,0.0,0.0,0.0,0.0,0.0,0.0,0.0,0.0,0.0,0.0,0.0,0.0,0.0,0.0,0.0,0.0,0.0,0.0,0.0,0.0,0.0,0.0,0.0,0.0,0.0,0.0,0.0,0.0,0.0,0.0,0.0,0.0,0.0,0.0,0.0,0.0,0.0,0.0,0.0,0.0,0.0,0.0,0.0,0.0,0.0,0.0,0.0,0.0,0.0,0.0,0.0,0.0,0.0,0.0,0.0,0.0,0.0,0.0,0.0,0.0,0.0,0.0,0.0,0.0,0.0,0.0,0.0,0.0,0.0,0.0,0.0,0.0,0.0,0.0,0.0,0.0,0.0,0.0,0.0,0.0,0.0,0.0,0.0,0.0,0.0,0.0,0.0,0.0,0.0,0.0,0.0,0.0,0.0,0.0,0.0,0.0,0.0,0.0,0.0,0.0,0.0,0.0,0.0,0.0,0.0,0.0,0.0,0.0,0.0,0.0,0.0,0.0,0.0,0.0,0.0,0.0,0.0,0.0,0.0,0.0,0.0,0.0,0.0,0.0,0.0,0.0,0.0,0.0,0.0,0.0,0.0,0.0,0.0,0.0,0.0,0.0,0.0,0.0,0.0,0.0,0.0,0.0,0.0,0.0,0.0,0.0,0.0,0.0,0.0,0.0,0.0,0.0,0.0,0.0,0.0,0.0,0.0,0.0,0.0,0.0,0.0,0.0,0.0,0.0,0.0,0.0,0.0,0.0,0.0,0.0,0.0,0.0,0.0,0.0,0.0,0.0,0.0,0.0,0.0,0.0,0.0,0.0,0.0,0.0,0.0,0.0,0.0,0.0,0.0,0.0,0.0,0.0,0.0,-4.2699,-4.2607,0.0,0.0,0.0,0.0,0.0,0.0,0.0,0.0,0.0,0.0,0.0,0.0,0.0,0.0,0.0,0.0,0.0,0.0,0.0,0.0,0.0,0.0,0.0,-2.5889,-2.6623,-2.753,-2.7585,-2.763,-2.7795,0.0,0.0,0.0,0.0,0.0,-2.4665,-2.4653,-2.4682,-2.4722,-2.475,-2.4789,-2.4815,-2.5132,-2.5014,-2.4562,0.0,0.0,0.0,0.0,0.0,0.0,0.0,0.0,0.0,0.0,0.0,0.0,0.0,0.0,0.0,0.0,0.0,0.0,0.0,0.0,0.0,0.0,0.0,0.0,0.0,0.0,0.0,0.0,0.0,0.0,0.0,0.0,0.0,0.0,0.0,0.0,0.0,0.0,0.0,0.0,0.0,0.0,0.0,0.0,0.0,0.0,0.0,0.0,0.0,0.0,0.0,0.0,0.0,0.0,0.0,0.0,0.0,0.0,0.0,0.0,0.0,0.0,0.0,0.0,0.0,0.0,0.0,0.0,0.0,0.0,-4.4063,-4.3696,0.0,0.0,0.0,0.0,0.0,0.0,0.0,0.0,0.0,0.0,0.0,0.0,0.0,0.0,0.0,0.0,0.0,0.0,0.0,0.0,0.0,-2.5017,-2.5005,-2.6239,-2.7117,-2.7214,-2.7784,-2.7902,-2.7359,-2.7258,0.0,0.0,0.0,-2.5415,-2.5459,-2.5446,-2.5442,-2.5447,-2.5447,-2.5469,-2.553,-2.574,-2.5346,-2.4494,-2.4779,0.0,0.0,0.0,0.0,0.0,0.0,0.0,0.0,0.0,0.0,0.0,0.0,0.0,0.0,0.0,0.0,0.0,0.0,0.0,0.0,0.0,0.0,0.0,0.0,0.0,0.0,0.0,0.0,0.0,0.0,0.0,0.0,0.0,0.0,0.0,0.0,0.0,0.0,0.0,0.0,0.0,0.0,0.0,0.0,0.0,0.0,0.0,0.0,0.0,0.0,0.0,0.0,0.0,0.0,0.0,0.0,0.0,0.0,0.0,0.0,0.0,0.0,0.0,-4.6282,-4.631,-4.6298,-4.63,-4.63,-4.6223,-4.4784,-4.4142,-4.4145,-4.3983,0.0,0.0,0.0,0.0,0.0,0.0,0.0,0.0,0.0,0.0,0.0,0.0,0.0,0.0,0.0,0.0,0.0,0.0,0.0,-2.4703,-2.4586,-2.5845,-2.6641,-2.6539,-2.6623,-2.6657,-2.6624,-2.6624,0.0,0.0,-2.579,-2.5474,-2.4919,-2.4844,-2.4815,-2.4829,-2.4829,-2.4812,-2.4827,-2.509,-2.5207,-2.5203,-2.5921,-2.6004,-2.5589,0.0,0.0,0.0,0.0,0.0,0.0,0.0,0.0,0.0,0.0,0.0,0.0,0.0,0.0,0.0,0.0,0.0,0.0,0.0,0.0,0.0,0.0,0.0,0.0,0.0,0.0,0.0,0.0,0.0,0.0,0.0,0.0,0.0,0.0,0.0,0.0,0.0,0.0,0.0,0.0,0.0,-3.9359,-4.0594,0.0,0.0,0.0,0.0,0.0,0.0,0.0,0.0,0.0,0.0,0.0,0.0,0.0,-4.5699,-4.5747,-4.5988,-4.6123,-4.6126,-4.6245,-4.6306,-4.6308,-4.6296,-4.63,-4.628,-4.6067,0.0,-4.5903,-4.5133,0.0,0.0,0.0,0.0,0.0,0.0,0.0,0.0,0.0,0.0,0.0,0.0,0.0,0.0,0.0,0.0,0.0,0.0,0.0,0.0,0.0,-2.4963,-2.5622,-2.598,-2.6319,-2.6352,-2.5944,-2.6396,-2.6421,-2.583,-2.5916,-2.5832,-2.5546,-2.5596,-2.5546,-2.548,-2.5447,-2.548,-2.5596,-2.5759,-2.5964,-2.6221,-2.6735,-2.6585,-2.6001,-2.616,0.0,0.0,0.0,0.0,0.0,0.0,0.0,0.0,0.0,0.0,0.0,0.0,0.0,0.0,0.0,0.0,0.0,0.0,0.0,0.0,0.0,0.0,0.0,0.0,0.0,0.0,0.0,0.0,0.0,0.0,0.0,0.0,0.0,0.0,0.0,0.0,0.0,0.0,0.0,-3.8376,-3.9862,-4.1286,-4.1938,-4.2386,0.0,0.0,0.0,0.0,0.0,0.0,0.0,0.0,0.0,-4.5128,-4.5538,-4.5778,-4.5835,-4.5947,-4.6027,-4.6091,-4.616,-4.6237,-4.6306,-4.631,-4.6296,-4.63,-4.63,-4.6303,-4.6267,-4.5887,-4.5701,-4.5643,0.0,0.0,0.0,0.0,-4.5005,-4.4976,0.0,0.0,0.0,0.0,0.0,0.0,0.0,0.0,0.0,0.0,0.0,0.0,-2.3391,-2.3876,-2.4367,-2.4862,-2.5461,-2.558,0.0,0.0,-2.5992,-2.5554,-2.5689,-2.5817,-2.5872,-2.5923,-2.5886,-2.5707,-2.5562,-2.5553,-2.5679,-2.5674,-2.5815,-2.6131,-2.661,-2.6643,-2.6369,-2.6588,-2.642,0.0,0.0,0.0,0.0,0.0,0.0,0.0,0.0,0.0,0.0,0.0,0.0,0.0,0.0,0.0,0.0,0.0,0.0,0.0,0.0,0.0,0.0,0.0,0.0,0.0,0.0,0.0,0.0,0.0,0.0,0.0,0.0,0.0,0.0,0.0,0.0,0.0,0.0,-3.9602,-4.0518,-4.1871,-4.2393,-4.2762,0.0,0.0,0.0,0.0,0.0,0.0,-4.4607,-4.524,-4.5631,-4.5665,-4.5679,-4.5708,-4.5764,-4.5815,-4.5916,-4.6061,-4.6083,-4.616,-4.6275,-4.6282,-4.629,-4.63,-4.63,-4.63,-4.6302,-4.6309,-4.63,-4.6307,-4.6249,-4.6239,-4.622,-4.6219,-4.6198,-4.62,0.0,0.0,0.0,0.0,0.0,0.0,0.0,0.0,0.0,0.0,0.0,-2.2443,-2.2212,-2.2681,-2.2914,-2.2763,-2.3307,-2.3639,0.0,0.0,-2.4625,-2.4835,-2.4918,-2.504,-2.525,-2.5059,-2.4879,-2.469,-2.4235,-2.4017,-2.402,-2.3764,-2.3749,-2.4001,-2.5029,-2.5966,-2.6788,-2.7056,-2.6883,-2.6491,0.0,0.0,0.0,0.0,0.0,0.0,0.0,0.0,0.0,0.0,0.0,0.0,0.0,0.0,0.0,0.0,0.0,0.0,0.0,0.0,0.0,0.0,0.0,0.0,0.0,0.0,0.0,0.0,0.0,0.0,0.0,0.0,0.0,0.0,0.0,0.0,0.0,0.0,0.0,-4.2631,-4.3513,0.0,0.0,0.0,0.0,-4.5264,-4.539,-4.5446,-4.5446,-4.5549,-4.5594,-4.5594,-4.5614,-4.564,-4.569,-4.5719,-4.5775,-4.5904,-4.6032,-4.6135,-4.6209,-4.6275,-4.629,-4.63,-4.63,-4.63,-4.6302,-4.6309,-4.6297,-4.6303,-4.6308,-4.6289,-4.6286,-4.6218,-4.6207,-4.6197,0.0,0.0,0.0,-2.3295,-2.2965,-2.2642,-2.234,-2.207,-2.1825,-2.157,-2.1487,-2.1534,0.0,-2.169,-2.1775,-2.1999,-2.2191,-2.2249,-2.2144,0.0,-2.334,-2.3443,-2.4061,-2.4415,-2.4497,-2.3861,-2.3564,-2.3564,-2.2943,-2.2705,-2.2879,-2.276,-2.2957,-2.3377,-2.393,-2.4762,-2.5857,-2.7016,-2.7294,-2.6981,-2.7295,-2.7276,0.0,0.0,0.0,0.0,0.0,0.0,0.0,0.0,0.0,0.0,0.0,0.0,0.0,0.0,0.0,0.0,0.0,0.0,0.0,0.0,0.0,0.0,0.0,0.0,0.0,0.0,0.0,0.0,0.0,0.0,0.0,0.0,0.0,0.0,0.0,0.0,0.0,-4.3201,-4.368,0.0,-4.4346,-4.4616,-4.487,-4.5125,-4.5288,-4.539,-4.5419,-4.6033,-4.6367,-4.6367,-4.6414,-4.646,-4.6478,-4.5968,-4.5754,-4.5848,-4.5935,-4.6037,-4.6134,-4.6206,-4.6253,-4.629,-4.6298,-4.63,-4.63,-4.6303,-4.6306,-4.6291,-4.63,-4.6305,-4.6307,-4.6269,-4.6267,-4.6261,-2.3893,-2.3718,0.0,-2.3089,-2.2777,-2.2457,-2.2099,-2.1823,-2.1555,-2.1246,-2.0893,-2.072,-2.0892,-2.0594,-2.0494,-2.0719,-2.0853,-2.0885,-2.0796,0.0,-2.233,-2.2378,-2.3257,-2.3618,-2.3329,-2.2763,-2.2393,-2.2273,-2.161,-2.1383,-2.1561,-2.1466,-2.1651,-2.2079,-2.2619,-2.3499,-2.4663,-2.6189,-2.7032,-2.7388,-2.7731,-2.772,-2.7502,0.0,0.0,0.0,0.0,0.0,0.0,0.0,0.0,0.0,0.0,0.0,0.0,0.0,0.0,0.0,0.0,0.0,0.0,0.0,0.0,0.0,0.0,0.0,0.0,0.0,0.0,0.0,0.0,0.0,0.0,0.0,0.0,0.0,0.0,-4.2525,-4.2909,-4.3493,-4.3667,-4.3832,-4.406,-4.4317,-4.4587,-4.487,-4.5091,-4.5254,-4.5348,-4.6224,-4.6733,-4.6772,-4.7088,-4.7135,-4.6866,-4.6362,-4.5984,-4.5764,-4.5822,-4.5939,-4.6072,-4.613,-4.6212,-4.6306,-4.6292,-4.6298,-4.63,-4.63,-4.63,-4.6302,-4.6306,-4.6293,-4.6296,-4.6302,-4.6306,-4.6289,-2.3601,-2.358,-2.3377,-2.2982,-2.2672,-2.236,-2.1957,-2.1616,-2.1246,-2.0844,-2.0446,-2.0052,-1.9711,-1.9387,-1.9109,-1.8898,-1.9301,-1.9543,-1.9543,-2.0734,-2.1554,-2.1765,-2.2614,-2.2643,-2.1773,-2.1744,-2.1399,-2.0732,-2.0269,-2.0035,-2.004,-1.9771,-1.9795,-2.0018,-2.1076,-2.2172,-2.3311,-2.4527,-2.6027,-2.7634,-2.802,-2.8376,-2.8609,0.0,0.0,0.0,0.0,0.0,0.0,0.0,0.0,0.0,0.0,0.0,0.0,0.0,0.0,0.0,0.0,0.0,0.0,0.0,0.0,0.0,0.0,0.0,0.0,0.0,0.0,0.0,0.0,0.0,0.0,0.0,0.0,0.0,-4.2323,-4.3002,-4.3515,-4.3515,-4.3548,-4.3666,-4.3865,-4.4079,-4.4327,-4.4653,-4.487,-4.508,-4.5314,-4.6171,-4.6682,-4.6771,-4.7597,-4.7646,-4.6858,-4.6886,-4.6495,-4.5708,-4.5764,-4.5873,-4.5998,-4.6067,-4.6167,-4.6282,-4.6303,-4.629,-4.63,-4.63,-4.63,-4.63,-4.63,-4.63,-4.6302,-4.6309,-4.6293,-4.6296,-2.359,-2.352,-2.3235,-2.2893,-2.2569,-2.2223,-2.1812,-2.1481,-2.1103,-2.0645,-2.0272,-1.9869,-1.9387,-1.9091,-1.8765,-1.8411,-1.8413,-1.841,-1.8363,-1.9556,-2.0673,-2.162,-2.1885,-2.163,-2.0786,-2.0309,-1.9765,-1.9202,-1.87,-1.8556,-1.8793,-1.8874,-1.9068,-1.9376,-2.0002,-2.0837,-2.1858,-2.3173,-2.446,-2.5731,-2.713,-2.7858,-2.8121,0.0,0.0,0.0,0.0,0.0,0.0,0.0,0.0,0.0,0.0,0.0,0.0,0.0,0.0,0.0,0.0,0.0,0.0,0.0,0.0,0.0,0.0,0.0,0.0,0.0,0.0,0.0,0.0,0.0,0.0,0.0,-4.2125,-4.2506,-4.3075,-4.3368,-4.3515,-4.3515,-4.3532,-4.3565,-4.3666,-4.3862,-4.4048,-4.4258,-4.46,-4.5086,-4.5773,-4.6858,-4.7756,-4.834,-4.8686,-4.8489,-4.7684,-4.7117,-4.6442,-4.5698,-4.5715,-4.5793,-4.5937,-4.6002,-4.6078,-4.6164,-4.6209,-4.625,-4.631,-4.631,-4.6294,-4.63,-4.63,-4.63,-4.6302,-4.6303,-4.6308,-4.6295,-2.3548,-2.3452,-2.3156,-2.2816,-2.2501,-2.2152,-2.1693,-2.1324,-2.0958,-2.0477,-2.0098,-1.9672,-1.9128,-1.8789,-1.8436,-1.8089,-1.7895,-1.7869,-1.8014,-1.9101,-2.0174,-2.1053,-2.0815,-2.033,-1.9595,-1.892,-1.8297,-1.7712,-1.7476,-1.7482,-1.7673,-1.7988,-1.8285,-1.8583,-1.9076,-1.9838,-2.0801,-2.1898,-2.3106,-2.4416,-2.5732,-2.6738,-2.7497,-2.7712,-2.7897,-2.8066,-2.8183,-2.798,-2.77,-2.8139,0.0,0.0,0.0,0.0,0.0,0.0,0.0,0.0,0.0,0.0,0.0,0.0,0.0,0.0,0.0,0.0,0.0,0.0,0.0,0.0,0.0,0.0,0.0,0.0,-4.2303,-4.2721,-4.3267,-4.3428,-4.3515,-4.3515,-4.3515,-4.3532,-4.3548,-4.3701,-4.383,-4.3986,-4.4591,-4.5242,-4.5916,-4.7321,-4.8374,-4.8976,-4.9078,-4.8762,-4.8009,-4.7204,-4.6415,-4.5657,-4.5698,-4.5739,-4.5821,-4.5905,-4.5982,-4.6063,-4.6126,-4.6203,-4.625,-4.6282,-4.6308,-4.6294,0.0,0.0,0.0,0.0,-4.6303,-4.6309,-2.3494,-2.3376,-2.3107,-2.2777,-2.2487,-2.2137,-2.1615,-2.1229,-2.0829,-2.0375,-1.9957,-1.9493,-1.8955,-1.8553,-1.8181,-1.7902,-1.7699,-1.7784,-1.8315,-1.9152,-1.9801,-2.018,-1.9593,-1.8899,-1.8127,-1.7543,-1.6928,-1.6337,-1.6539,-1.6667,-1.671,-1.7152,-1.7469,-1.7706,-1.8252,-1.8992,-1.9885,-2.0704,-2.1932,-2.3378,-2.4058,-2.5304,-2.679,-2.6934,-2.7126,-2.7317,-2.7452,-2.7639,-2.7953,-2.8744,0.0,0.0,0.0,0.0,0.0,0.0,0.0,0.0,0.0,0.0,0.0,0.0,0.0,0.0,0.0,0.0,0.0,0.0,0.0,0.0,0.0,0.0,0.0,0.0,-4.2373,-4.29,-4.303,-4.3269,-4.3427,-4.348,-4.3497,-4.3515,-4.3515,-4.3548,-4.3684,-4.3849,-4.4748,-4.5477,-4.5951,-4.7569,0.0,0.0,0.0,-4.8684,-4.7977,-4.7175,-4.6387,-4.5586,-4.5648,-4.5695,-4.5696,-4.5826,-4.5911,-4.5983,-4.605,-4.6115,-4.6177,-4.6245,-4.6299,-4.6306,-4.6296,-4.63,-4.63,-4.63,-4.63,-4.6302,-2.3603,-2.3376,-2.3119,-2.2829,-2.2515,-2.2166,-2.1812,-2.1323,-2.0845,-2.0444,-1.9977,-1.9493,-1.8955,-1.8553,-1.8141,-1.7781,-1.7948,-1.8389,0.0,0.0,-1.9058,-1.8895,-1.8646,-1.7835,-1.6397,-1.6256,-1.5904,-1.5379,-1.5512,-1.5778,-1.6163,-1.6411,-1.6697,-1.7013,-1.7497,-1.7915,-1.8319,-1.9598,-2.074,-2.1769,-2.2851,-2.4373,-2.605,-2.6333,-2.6556,-2.669,-2.6824,-2.7365,-2.8079,-2.8299,-2.8798,-2.9437,-3.0179,0.0,0.0,0.0,0.0,0.0,0.0,0.0,0.0,0.0,0.0,0.0,0.0,0.0,0.0,0.0,0.0,0.0,0.0,0.0,0.0,-4.1978,-4.2311,-4.2555,-4.275,-4.2826,-4.2995,-4.3376,-4.3463,-4.3515,-4.3515,-4.3496,-4.3548,-4.3649,-4.4589,-4.5542,-4.6414,-4.772,-4.8801,-4.9611,-4.922,-4.8632,-4.784,-4.7044,-4.6263,-4.5513,-4.5522,0.0,-4.5706,-4.5743,-4.5771,-4.5841,-4.591,-4.5982,-4.6035,-4.6115,-4.6206,-4.6306,-4.6296,-4.63,-4.63,-4.63,-4.63,-4.63,-2.3682,-2.3376,-2.3082,-2.2842,-2.2555,-2.2237,-2.1857,-2.1433,-2.0974,-2.0512,-2.0098,-1.9654,-1.9109,-1.8655,-1.826,-1.7875,-1.8221,0.0,0.0,-1.907,-1.8713,-1.8127,-1.7588,-1.6784,-1.5626,-1.5295,-1.5012,-1.4743,-1.488,-1.5085,-1.5311,-1.5557,-1.581,-1.6073,-1.6566,-1.6933,-1.7242,-1.8618,-1.9725,-2.0697,-2.1888,-2.3201,-2.4581,-2.5275,-2.5723,-2.6012,-2.648,-2.7025,-2.7623,-2.8416,-2.8958,-2.9416,-3.0215,-3.0473,-3.0647,0.0,0.0,0.0,0.0,0.0,0.0,0.0,0.0,0.0,0.0,0.0,0.0,0.0,0.0,-3.9641,-4.0523,0.0,-4.1117,-4.1617,-4.1817,-4.1945,-4.213,-4.2295,-4.2613,-4.3178,-4.3304,-4.3375,-4.3428,-4.348,-4.3496,-4.3566,-4.4809,-4.5847,-4.6417,-4.7884,-4.8822,-4.9094,-4.8477,-4.7831,-4.7158,-4.636,-4.5782,-4.5448,-4.5448,-4.5485,-4.5559,-4.5584,-4.564,-4.57,-4.5761,-4.5854,-4.5966,-4.6059,-4.6164,-4.6248,-4.6286,-4.6296,-4.63,-4.63,-4.63,-4.63,-2.3724,-2.3417,-2.3095,-2.2881,-2.2623,-2.2304,-2.1913,-2.1555,-2.1151,-2.0628,-2.0237,-1.9833,-1.9299,-1.8865,-1.8534,0.0,0.0,0.0,0.0,-1.9045,-1.8548,-1.7638,-1.6709,-1.5875,-1.5167,-1.4577,-1.428,-1.428,-1.4384,-1.4532,-1.4667,-1.4935,-1.5188,-1.543,-1.5919,-1.63,-1.6657,-1.7891,-1.8989,-2.0026,-2.1062,-2.2138,-2.3252,-2.4225,-2.4907,-2.5447,-2.6178,-2.6758,-2.7362,-2.8621,-2.9177,-2.944,-3.007,-3.0693,-3.1219,-3.1252,-3.1868,0.0,0.0,0.0,0.0,0.0,0.0,0.0,0.0,-3.8342,-3.8611,-3.944,-3.9634,-3.9901,-4.0692,-4.1004,-4.1103,-4.1088,-4.1308,-4.1497,-4.1533,-4.1744,-4.2166,-4.2785,-4.3031,-4.3196,-4.334,-4.3428,-4.348,-4.3515,-4.4962,-4.5878,-4.603,-4.7573,-4.8341,-4.8054,-4.7386,-4.6828,-4.6412,-4.5666,-4.5319,-4.5371,-4.5381,-4.54,-4.541,-4.5467,-4.5512,-4.5571,-4.5642,-4.5754,-4.588,-4.6013,-4.6107,-4.6167,-4.622,-4.626,-4.6273,-4.6298,-4.6183,-4.6046,-2.3753,-2.352,-2.3289,-2.3015,-2.2764,-2.2453,-2.211,-2.1733,-2.1308,-2.0827,-2.0375,-1.9925,-1.9515,-1.9153,-1.9112,-1.9543,0.0,0.0,-1.9877,-1.9214,-1.8363,-1.7303,-1.6402,-1.552,-1.4623,-1.41,-1.3868,-1.3868,-1.3892,-1.4212,-1.486,-1.4909,-1.5236,-1.5864,-1.6142,-1.6502,-1.6906,-1.7708,-1.8663,-1.9703,-2.0371,-2.1549,-2.3009,-2.3596,-2.4418,-2.5277,-2.5723,-2.6831,-2.8104,-2.8394,-2.894,-2.947,-2.9438,-2.9614,-2.9819,-2.9746,-3.0447,-3.1224,-3.1224,-3.279,-3.4673,-3.5685,-3.6593,-3.7498,0.0,-3.8837,-3.9122,-3.9875,-4.0144,-4.0235,-4.0345,-4.1007,-4.137,-4.0848,-4.1319,-4.1654,-4.1273,-4.1277,-4.1463,-4.198,-4.2573,-4.3013,-4.3214,-4.334,-4.3429,-4.3497,-4.4341,-4.4909,-4.5049,-4.6032,-4.6659,-4.6813,-4.6318,-4.6048,-4.6057,-4.5491,-4.5235,-4.5298,-4.5369,-4.54,-4.541,-4.541,-4.5419,-4.5438,-4.5563,-4.5692,-4.5821,-4.5886,-4.5966,-4.6022,-4.6107,-4.6164,-4.6217,-4.6271,-4.5812,-4.5148,-2.3795,-2.362,-2.343,-2.3102,-2.2842,-2.2565,-2.2257,-2.194,-2.1554,-2.1103,-2.0663,-2.0377,-2.0361,-2.0216,-2.0201,-2.0431,-2.0253,-2.0094,-2.0004,-1.9384,-1.8484,-1.725,-1.6501,-1.5756,-1.4938,-1.4648,-1.4503,-1.4503,-1.4503,-1.4673,-1.4963,-1.504,-1.5222,-1.5517,-1.5851,-1.6196,-1.6571,-1.7899,-1.8969,-1.9863,-2.0989,-2.2132,-2.3218,-2.3606,-2.451,-2.5625,-2.626,-2.7055,0.0,0.0,-2.8769,-2.9068,-2.9037,-2.9336,-2.973,-2.9776,-3.0664,-3.1756,-3.2205,-3.3471,-3.4871,-3.5773,-3.6786,-3.7822,-3.8818,-3.9174,-3.9429,-3.991,-4.0028,-4.0104,-4.0163,-4.0824,-4.1282,-4.1027,-4.1332,-4.1501,-4.1349,-4.1082,-4.1018,-4.1346,-4.1835,-4.2353,-4.2863,-4.3068,-4.3232,-4.3429,-4.4215,-4.4709,-4.478,-4.5675,-4.6033,-4.5735,-4.5694,-4.5529,-4.5242,-4.5126,-4.5136,-4.5235,-4.5307,-4.5348,-4.533,-4.533,-4.537,-4.5409,-4.554,-4.5632,-4.5692,-4.5794,-4.588,-4.5956,-4.6027,-4.578,-4.5406,-4.5492,-4.5315,-4.4924,-2.3837,-2.3685,-2.3492,-2.3168,-2.2919,-2.2655,-2.2402,-2.2161,-2.184,-2.1403,-2.1166,-2.1127,-2.132,-2.1326,-2.1283,-2.1207,-2.0969,-2.0663,-2.0295,-1.9631,-1.8768,-1.7602,-1.6846,-1.6127,-1.5531,-1.5196,-1.5065,-1.5065,-1.5023,-1.5132,-1.538,-1.5498,-1.566,-1.59,-1.6299,-1.6612,-1.6977,-1.8519,-1.9555,-2.031,-2.1604,-2.2682,-2.3578,-2.3943,-2.4864,-2.6076,-2.6637,-2.7157,0.0,0.0,-2.8493,-2.858,-2.8612,-2.8986,-2.9448,-2.9577,-3.0629,-3.194,-3.294,-3.3979,-3.4983,-3.5711,-3.6858,-3.8025,-3.8848,-3.9212,-3.9432,-3.9599,-3.9746,-3.9824,-3.991,-4.0593,-4.1152,-4.1152,-4.1425,-4.1605,-4.141,-4.1109,-4.092,-4.0965,-4.1418,-4.1926,-4.2394,-4.2731,-4.3032,-4.3323,-4.396,-4.4343,-4.4378,-4.5018,-4.516,-4.4704,-4.4944,-4.4923,-4.4573,-4.4821,-4.5003,-4.5148,-4.5224,-4.5286,-4.5307,-4.5307,-4.5338,-4.5408,-4.5505,-4.554,-4.5554,-4.5696,-4.5759,-4.5828,-4.5908,-4.5438,-4.4724,-4.4621,-4.4445,-4.4168,-2.3837,-2.3685,-2.3492,-2.3168,-2.2995,-2.2803,-2.2525,-2.2374,-2.2132,-2.1739,-2.1972,-2.2147,-2.2163,-2.2269,-2.2237,-2.1989,-2.1713,-2.1407,-2.0993,-1.9978,-1.9097,-1.8501,-1.7372,-1.6609,-1.6267,-1.5553,-1.52,-1.52,-1.5065,-1.5463,-1.6361,-1.6361,-1.6808,-1.7647,-1.7994,-1.8317,-1.869,-1.9644,-2.0411,-2.1038,-2.1856,-2.2865,-2.3959,-2.4541,-2.5477,-2.6474,-2.6425,0.0,0.0,0.0,-2.8005,-2.8044,-2.8186,-2.8339,0.0,-2.8604,-2.9688,-3.1134,-3.2522,-3.3975,-3.5159,-3.551,-3.6842,-3.8169,-3.8539,-3.8832,-3.9023,-3.9023,-3.9299,-3.9528,-3.9528,-4.0333,-4.1004,-4.1004,-4.1717,-4.2052,-4.1495,-4.1401,-4.1263,-4.0933,-4.155,-4.195,-4.1828,-4.2356,-4.2863,-4.3178,-4.3341,-4.3465,-4.3534,-4.357,-4.3604,-4.3635,-4.3915,-4.4097,-4.4206,-4.4608,-4.487,-4.5022,-4.5148,-4.5243,-4.5307,-4.5307,-4.5338,-4.5408,-4.5389,-4.54,-4.5419,-4.554,-4.561,-4.5621,-4.5752,-4.5312,-4.4521,-4.3812,-4.3059,-4.2387,-2.3774,-2.3587,-2.3383,-2.3077,-2.2914,-2.279,-2.2646,-2.2511,-2.2474,-2.261,-2.3144,0.0,0.0,0.0,0.0,0.0,-2.2647,-2.2203,-2.1565,-2.0771,-2.0029,-1.9397,-1.8701,-1.8191,-1.7913,-1.756,-1.7388,-1.7388,-1.7225,-1.7248,-1.7455,-1.7455,-1.7622,-1.7915,-1.8253,-1.8627,-1.913,-2.061,-2.1632,-2.2417,-2.3449,-2.4469,-2.5363,-2.5494,-2.606,-2.6841,0.0,0.0,0.0,-2.784,-2.793,-2.798,-2.7955,0.0,0.0,-2.896,-2.964,-3.0452,-3.191,-3.3147,-3.4097,-3.4279,-3.5597,-3.6896,-3.7096,-3.7721,-3.8315,-3.8511,-3.875,-3.8958,-3.9148,-3.9846,-4.0646,-4.1354,-4.172,-4.2064,-4.2534,-4.2172,-4.1899,-4.1955,-4.2328,-4.2679,-4.2917,-4.3001,-4.2992,-4.288,-4.3123,-4.3323,-4.3429,-4.348,-4.3515,-4.3531,-4.3751,-4.3929,-4.4064,-4.4477,-4.4719,-4.4858,-4.5103,-4.5243,-4.5307,-4.5307,-4.5317,-4.5338,-4.5388,-4.5399,-4.54,-4.5448,-4.5522,-4.5601,-4.5657,-4.5194,-4.4433,-4.3658,-4.2853,-4.2101,-2.4143,-2.3977,-2.3827,-2.3892,-2.3759,0.0,0.0,0.0,0.0,0.0,0.0,0.0,0.0,0.0,0.0,0.0,0.0,-2.2822,-2.2156,-2.1455,-2.0888,-2.0489,-1.9932,-1.9578,-1.9497,-1.9184,-1.8996,-1.8846,-1.8616,-1.847,-1.8436,-1.8436,-1.8521,-1.8722,-1.9292,-1.9827,-2.0377,-2.2091,-2.325,-2.403,-2.5001,-2.5737,-2.6308,-2.6554,-2.6794,0.0,0.0,0.0,0.0,-2.7665,-2.7665,-2.7705,-2.7615,-2.7575,-2.7778,-2.8943,-2.9426,-2.9861,-3.1336,-3.2438,-3.32,-3.3457,-3.4565,-3.5714,-3.614,-3.6796,-3.7409,-3.7822,-3.8116,-3.8359,-3.8567,-3.9082,-3.9888,-4.122,-4.1538,-4.1955,-4.2976,-4.2757,-4.25,-4.2513,-4.291,-4.322,-4.3346,-4.3518,-4.3585,-4.3452,-4.3441,-4.3542,-4.3743,-4.3575,-4.348,-4.3515,-4.3652,-4.3783,-4.3929,-4.4262,-4.4546,-4.4796,-4.5061,-4.5213,-4.5275,-4.5297,-4.5307,-4.5307,-4.5338,-4.5359,-4.5359,-4.54,-4.5458,-4.5523,-4.5547,-4.5087,-4.4322,-4.3561,-4.277,-4.1964,-2.4871,-2.4818,-2.4841,0.0,0.0,0.0,0.0,0.0,0.0,0.0,0.0,0.0,0.0,0.0,0.0,0.0,0.0,0.0,-2.2785,-2.2086,0.0,-2.1781,-2.1093,-2.0809,-2.1018,-2.0454,-1.9983,-1.967,-1.9325,-1.9207,-1.9304,-1.9304,-1.9553,-2.0042,-2.1084,-2.1802,-2.2392,-2.398,-2.5058,-2.5762,-2.6386,-2.6665,-2.6819,-2.7683,0.0,0.0,0.0,0.0,0.0,-2.7542,-2.7388,-2.7244,-2.7244,-2.7203,-2.7372,-2.8495,-2.8959,-2.9378,-3.079,-3.1781,-3.2496,-3.2979,-3.379,-3.4687,-3.5679,-3.6041,-3.6346,-3.7053,-3.7449,-3.77,-3.7828,-3.8103,-3.8873,-4.0667,-4.1198,-4.1803,-4.2869,-4.3172,-4.3097,-4.2639,-4.3297,-4.361,-4.3219,-4.3965,-4.4548,-4.4846,-4.4243,-4.4017,-4.4362,-4.3743,-4.3411,-4.3497,-4.3548,-4.3651,-4.3788,-4.4005,-4.4327,-4.4815,-4.5068,-4.5181,-4.5203,-4.5275,-4.5297,-4.5307,-4.5307,-4.5307,-4.5307,-4.5378,-4.5398,-4.5418,-4.5477,-4.5033,-4.4269,-4.3493,-4.2707,-4.1944,0.0,0.0,0.0,0.0,0.0,0.0,0.0,0.0,0.0,0.0,0.0,0.0,0.0,0.0,0.0,0.0,0.0,0.0,-2.3608,-2.3031,0.0,0.0,0.0,0.0,-2.2629,-2.2406,0.0,0.0,0.0,-2.1306,-2.0991,-2.0991,-2.106,-2.1187,-2.1714,-2.2554,-2.3616,-2.4823,-2.5989,-2.7019,0.0,-2.7696,-2.8423,0.0,0.0,0.0,0.0,0.0,0.0,-2.8869,-2.8475,-2.8062,-2.7922,-2.7726,-2.7627,-2.7925,-2.8226,-2.8655,-2.9639,-3.0366,-3.102,-3.1758,-3.2739,-3.373,-3.4493,-3.527,-3.6007,-3.6691,-3.7014,-3.7225,-3.7358,-3.7949,-3.884,-4.0065,-4.1084,-4.2104,-4.3302,-4.3681,-4.3917,-4.4056,-4.433,-4.4528,-4.4512,-4.4914,-4.5268,-4.5534,-4.4276,-4.3678,-4.4017,-4.3523,-4.3286,-4.3411,-4.3497,-4.3566,-4.3651,-4.3955,-4.4317,-4.4738,-4.4852,-4.5022,-4.5192,-4.5213,-4.5246,-4.5307,-4.5307,-4.5307,-4.5307,-4.5317,-4.5348,-4.5408,-4.5419,-4.5304,-4.4949,-4.3562,-4.2929,-4.2549,0.0,0.0,0.0,0.0,0.0,0.0,0.0,0.0,0.0,0.0,0.0,0.0,0.0,0.0,0.0,0.0,0.0,0.0,0.0,-2.4152,0.0,0.0,0.0,-2.4184,-2.4353,-2.4026,0.0,0.0,0.0,0.0,0.0,-2.2347,-2.2396,-2.2445,-2.3015,-2.3852,-2.4866,0.0,0.0,0.0,0.0,0.0,0.0,0.0,0.0,0.0,0.0,0.0,0.0,-2.9826,-2.904,-2.8254,-2.7938,-2.7777,-2.7747,-2.7646,-2.7792,-2.8138,-2.864,-2.9334,-3.0043,-3.0714,-3.1727,-3.2828,-3.395,-3.4707,-3.5456,-3.6399,-3.6708,-3.6831,-3.6952,-3.7683,-3.8651,-3.9733,-4.0988,-4.2217,-4.342,-4.3948,-4.4298,-4.457,-4.4654,-4.4748,-4.4913,-4.5059,-4.5119,-4.5053,-4.4214,-4.3857,-4.4196,-4.3478,-4.3142,-4.3305,-4.3428,-4.3531,-4.3599,-4.386,-4.4155,-4.443,-4.4653,-4.4846,-4.5033,-4.5114,-4.5181,-4.5203,-4.5203,-4.5224,-4.5265,-4.5265,-4.5297,-4.5348,-4.5398,-4.5399,-4.5247,-4.3981,-4.3297,-4.281,0.0,0.0,0.0,0.0,0.0,0.0,0.0,0.0,0.0,-2.6102,-2.6747,-2.7095,-2.6894,-2.6808,0.0,0.0,0.0,0.0,0.0,0.0,0.0,0.0,0.0,-2.601,-2.6037,-2.5508,-2.4981,0.0,0.0,0.0,0.0,0.0,0.0,0.0,0.0,0.0,0.0,0.0,0.0,0.0,0.0,0.0,0.0,0.0,0.0,0.0,0.0,0.0,0.0,0.0,-2.9435,-2.8411,-2.7973,-2.7928,-2.8001,-2.7727,-2.7745,-2.7878,-2.8095,-2.8712,-2.9494,-3.0102,-3.1005,-3.2172,-3.3829,-3.4372,-3.489,-3.6215,-3.6492,-3.6554,-3.6662,-3.7406,-3.8388,-3.9548,-4.0881,-4.2201,-4.3373,-4.3977,-4.4338,-4.457,-4.4615,-4.4654,-4.4748,-4.4691,-4.4504,-4.4077,-4.3896,-4.3971,-4.4316,-4.3402,-4.2939,-4.3214,-4.3393,-4.3532,-4.3582,-4.3767,-4.3926,-4.4079,-4.4444,-4.4667,-4.477,-4.4955,-4.5068,-4.5061,-4.5091,-4.5125,-4.517,-4.5192,-4.5224,-4.5297,-4.5348,-4.5398,-4.5283,-4.449,-4.3741,-4.3038,0.0,0.0,0.0,0.0,0.0,0.0,0.0,0.0,0.0,0.0,0.0,0.0,0.0,0.0,0.0,0.0,0.0,0.0,0.0,0.0,0.0,0.0,0.0,-2.7152,-2.7379,-2.7063,-2.6675,-2.6267,0.0,0.0,0.0,0.0,0.0,0.0,0.0,0.0,0.0,0.0,0.0,0.0,0.0,0.0,0.0,0.0,0.0,0.0,0.0,0.0,0.0,0.0,-3.044,-2.9891,-2.9709,-2.948,-2.9181,-2.8647,-2.8244,-2.8122,-2.881,-2.8987,-2.9328,-3.0746,-3.1521,-3.233,-3.3873,-3.4372,-3.489,-3.6215,-3.6492,-3.6523,-3.6523,-3.7344,-3.8294,-3.9251,-4.0651,-4.2053,-4.3177,-4.3802,-4.4241,-4.4542,-4.4615,-4.4598,-4.4626,-4.4177,-4.3851,-4.3768,-4.2791,-4.243,-4.3017,-4.2674,-4.2768,-4.334,-4.3394,-4.3446,-4.3532,-4.3599,-4.3749,-4.3945,-4.4109,-4.436,-4.4632,-4.4738,-4.4821,-4.4931,-4.4979,-4.5014,-4.5038,-4.5159,-4.5203,-4.5213,-4.5297,-4.5317,-4.5232,-4.4412,-4.403,-4.381,0.0,0.0,0.0,0.0,0.0,0.0,0.0,0.0,0.0,0.0,0.0,0.0,0.0,0.0,0.0,0.0,0.0,0.0,0.0,0.0,0.0,0.0,0.0,-2.8435,-2.8336,-2.8055,-2.776,-2.7434,0.0,-2.7206,-2.6986,-2.6986,-2.7038,-2.71,0.0,0.0,0.0,0.0,0.0,0.0,0.0,0.0,0.0,0.0,0.0,0.0,0.0,0.0,0.0,0.0,-3.1161,-3.0777,-3.0477,-3.0266,-2.9984,-2.9371,-2.8999,-2.8857,-2.8929,-2.923,-2.9718,-3.0566,-3.1398,-3.2403,-3.3858,-3.4372,-3.489,-3.6215,-3.6492,-3.6492,-3.6492,-3.7313,-3.8185,-3.8701,-4.0411,-4.1966,-4.267,-4.3581,-4.4298,-4.457,-4.4615,-4.4615,-4.4615,-4.3976,-4.3393,-4.2986,-4.2099,-4.1827,-4.2405,-4.2413,-4.2653,-4.3178,-4.3323,-4.3429,-4.3515,-4.3531,-4.3599,-4.3751,-4.391,-4.4128,-4.4331,-4.4458,-4.4568,-4.4699,-4.4738,-4.477,-4.4846,-4.4943,-4.5026,-4.5114,-4.5203,-4.5254,-4.5208,-4.4859,-4.4449,-4.4039,0.0,0.0,0.0,0.0,0.0,0.0,0.0,0.0,-2.6862,-2.7482,-2.8786,-2.94,-2.8712,-2.9403,0.0,0.0,0.0,0.0,0.0,0.0,0.0,0.0,0.0,-2.9595,-2.9212,0.0,0.0,-2.8738,-2.8812,0.0,0.0,0.0,0.0,0.0,-2.8449,-2.8575,-2.8795,0.0,0.0,0.0,0.0,-3.1292,0.0,0.0,0.0,0.0,0.0,0.0,0.0,0.0,-3.1726,-3.1423,-3.0984,-3.0791,-3.06,-3.0061,-2.9813,-2.9652,-2.9358,-2.9747,-3.0299,-3.0615,-3.1375,-3.2416,-3.3932,-3.4401,-3.489,-3.6215,-3.6492,-3.6492,-3.6492,-3.7157,-3.7841,-3.8245,-3.99,-4.1417,-4.2131,-4.3231,-4.4068,-4.4497,-4.457,-4.4615,-4.4615,-4.3724,-4.2929,-4.2337,-4.1587,-4.1406,-4.196,-4.2149,-4.2436,-4.2901,-4.3123,-4.3322,-4.348,-4.348,-4.3515,-4.3582,-4.3749,-4.3913,-4.4033,-4.4166,-4.4288,-4.4397,-4.4411,-4.4477,-4.4613,-4.4706,-4.4852,-4.4967,-4.5095,-4.517,-4.5203,-4.5265,-4.4897,-4.4364,0.0,0.0,0.0,0.0,0.0,0.0,0.0,0.0,-2.7017,-2.7701,-2.8991,-2.9839,-2.9753,-3.0855,0.0,0.0,0.0,0.0,0.0,0.0,0.0,0.0,0.0,0.0,0.0,0.0,0.0,-3.081,-3.1489,0.0,0.0,0.0,0.0,0.0,0.0,-2.9661,-2.9683,-2.9815,0.0,0.0,0.0,0.0,0.0,0.0,0.0,0.0,0.0,-3.3208,-3.2868,-3.2465,-3.2231,-3.2051,-3.1769,-3.1409,-3.1043,-3.097,-3.0528,-3.0231,-3.1022,-3.0913,-3.0771,-3.1779,-3.2089,-3.2586,-3.4123,-3.4505,-3.489,-3.6215,-3.6492,-3.6492,-3.6492,-3.6693,-3.7141,-3.8136,-3.8739,-3.9792,-4.1822,-4.2418,-4.3094,-4.4197,-4.4468,-4.4615,-4.4615,-4.3278,-4.2371,-4.2303,-4.1112,-4.0644,-4.1267,-4.1533,-4.1977,-4.2629,-4.2729,-4.2976,-4.3394,-4.3412,-4.3446,-4.3515,-4.3582,-4.3701,-4.3837,-4.3897,-4.3992,-4.4051,-4.4109,-4.4181,-4.4269,-4.4519,-4.4699,-4.4821,-4.4974,-4.5103,-4.5192,-4.5203,-4.5208,-4.5203,0.0,0.0,0.0,0.0,0.0,0.0,0.0,0.0,-2.7888,-2.8083,-2.9355,-3.0254,-3.0209,-3.1438,0.0,0.0,0.0,0.0,0.0,0.0,0.0,0.0,0.0,0.0,0.0,0.0,-3.1753,-3.2072,-3.2352,0.0,0.0,0.0,0.0,0.0,0.0,-3.0652,-3.022,-3.0279,0.0,0.0,0.0,0.0,0.0,0.0,0.0,0.0,0.0,0.0,-3.3481,-3.3018,-3.2738,-3.252,-3.2247,-3.1981,-3.1697,-3.1409,-3.123,-3.1195,-3.158,-3.1615,-3.1766,-3.2606,-3.2872,-3.3326,-3.4768,-3.5106,-3.5383,-3.6307,-3.6492,-3.6492,-3.6492,-3.66,-3.6832,-3.7265,-3.8493,-3.9743,-4.0714,-4.2114,-4.3264,-4.3914,-4.4253,-4.4468,-4.4587,-4.3227,-4.1914,-4.1044,-4.0485,-4.0337,-4.0638,-4.1094,-4.1613,-4.2151,-4.2474,-4.2843,-4.3287,-4.3358,-4.3429,-4.3515,-4.3532,-4.36,-4.3667,-4.3718,-4.3783,-4.3883,-4.3897,-4.3961,-4.4036,-4.4188,-4.4317,-4.4453,-4.468,-4.4833,-4.4967,-4.5057,-4.5148,-4.5235,0.0,0.0,0.0,0.0,0.0,0.0,-2.7374,-2.79,-2.8337,-2.8715,-2.9847,-3.0692,-3.088,-3.2001,-3.2744,-3.2755,0.0,0.0,0.0,0.0,0.0,0.0,0.0,0.0,0.0,0.0,-3.2689,-3.3344,-3.3583,-3.3545,0.0,0.0,-3.2877,-3.2117,0.0,0.0,0.0,0.0,0.0,0.0,0.0,0.0,0.0,0.0,0.0,0.0,0.0,0.0,0.0,0.0,0.0,-3.3124,-3.2711,-3.252,0.0,-3.1811,-3.1741,-3.187,-3.1927,-3.2053,-3.2372,-3.3073,-3.3328,-3.3767,-3.5168,-3.5506,-3.5706,-3.6353,-3.6492,-3.6492,-3.6492,-3.6569,-3.6724,-3.6956,-3.8216,-3.9422,-4.0129,-4.1707,-4.3018,-4.368,-4.4035,-4.4355,-4.457,-4.3227,-4.1677,-4.0214,-4.0096,-4.0138,-4.0255,-4.0686,-4.1169,-4.1683,-4.2086,-4.2532,-4.3013,-4.3178,-4.334,-4.3463,-4.3497,-4.3513,-4.3565,-4.3565,-4.3617,-4.3703,-4.3703,-4.3753,-4.3816,-4.3913,-4.4036,-4.4166,-4.4388,-4.4587,-4.4764,-4.4883,-4.5033,-4.5148,0.0,0.0,0.0,0.0,0.0,0.0,0.0,0.0,-2.8088,-2.9682,-3.0464,-3.1199,-3.2004,-3.2694,-3.3407,-3.4211,0.0,0.0,0.0,0.0,0.0,0.0,0.0,0.0,0.0,0.0,-3.4059,-3.4865,-3.5621,-3.5522,-3.4678,-3.4678,-3.4207,-3.3368,0.0,0.0,0.0,0.0,0.0,0.0,0.0,0.0,0.0,0.0,0.0,0.0,0.0,0.0,0.0,0.0,0.0,0.0,0.0,-3.2986,-3.2868,0.0,-3.1996,-3.2025,-3.2163,-3.2191,-3.2372,-3.3216,-3.3398,-3.3767,-3.5168,-3.5506,-3.5706,-3.6353,-3.6492,-3.6492,-3.6492,-3.6492,-3.677,-3.7559,-3.7699,-3.8434,-4.0499,-4.11,-4.1898,-4.342,-4.3906,-4.4212,-4.457,-4.3227,-4.1677,-4.0214,-4.0096,-4.0096,-4.0096,-4.0238,-4.059,-4.1186,-4.1475,-4.1934,-4.2609,-4.2805,-4.3068,-4.3412,-4.3463,-4.3515,-4.3515,-4.3515,-4.3515,-4.3496,-4.3496,-4.3531,-4.3599,-4.3736,-4.3883,-4.402,-4.4151,-4.4374,-4.4619,-4.4745,-4.4883,-4.5014,0.0,0.0,0.0,0.0,0.0,0.0,0.0,0.0,-2.9509,-2.9984,0.0,0.0,0.0,0.0,0.0,0.0,0.0,0.0,0.0,0.0,0.0,0.0,0.0,0.0,0.0,0.0,0.0,-3.5851,-3.6092,-3.6049,-3.5737,-3.5737,-3.5262,-3.444,-3.444,-3.4146,0.0,0.0,0.0,0.0,0.0,0.0,-3.5503,0.0,0.0,0.0,0.0,0.0,0.0,0.0,0.0,0.0,0.0,0.0,0.0,-3.3587,-3.2962,-3.2366,-3.2785,-3.2964,-3.331,-3.4537,-3.4829,-3.506,-3.5968,-3.6168,-3.623,-3.6445,-3.6492,-3.6492,-3.6492,-3.6492,-3.6738,-3.7448,-3.807,-3.8883,-4.0143,-4.1182,-4.2171,-4.3005,-4.3772,-4.3906,-4.3115,-4.2574,-4.1677,-4.0214,-4.0096,-4.0096,-4.0096,-4.0138,-4.037,-4.0772,-4.114,-4.1596,-4.2195,-4.2534,-4.2881,-4.3269,-4.3376,-4.3464,-4.3515,-4.3515,-4.3515,-4.3515,-4.3515,-4.3496,-4.3531,-4.3583,-4.3651,-4.3732,-4.3862,-4.402,-4.4218,-4.4341,-4.4541,-4.4751,0.0,0.0,0.0,0.0,0.0,0.0,0.0,0.0,-3.0289,-3.0558,0.0,0.0,0.0,0.0,0.0,0.0,0.0,0.0,0.0,0.0,0.0,0.0,0.0,0.0,0.0,0.0,-3.5985,-3.6594,-3.6594,-3.6509,-3.6339,-3.6339,-3.6014,-3.5394,-3.5394,-3.5116,0.0,0.0,0.0,0.0,0.0,0.0,-3.5684,0.0,0.0,0.0,0.0,0.0,0.0,0.0,0.0,0.0,0.0,0.0,0.0,0.0,-3.4108,-3.3637,-3.3748,-3.3827,-3.4162,-3.5229,-3.5506,-3.5691,-3.6338,-3.6492,-3.6492,-3.6492,-3.6492,-3.6492,-3.6492,-3.6492,-3.6799,-3.7738,-3.8328,-3.911,-4.0304,-4.1237,-4.2109,-4.2883,-4.3713,-4.3693,-4.2358,-4.226,-4.1677,-4.0214,-4.0096,-4.0096,-4.0096,-4.0096,-4.0196,-4.0385,-4.0765,-4.1192,-4.1692,-4.213,-4.2554,-4.2975,-4.3214,-4.3376,-4.3463,-4.3497,-4.3515,-4.3515,-4.3515,-4.3515,0.0,-4.3515,-4.3513,-4.3565,-4.3667,-4.3818,-4.3945,-4.4079,-4.4254,-4.4477,0.0,0.0,0.0,0.0,0.0,0.0,0.0,0.0,0.0,0.0,0.0,0.0,0.0,0.0,0.0,0.0,0.0,0.0,0.0,0.0,0.0,0.0,0.0,0.0,0.0,-3.631,-3.6554,-3.7166,-3.7147,-3.6974,-3.6635,-3.6635,-3.6489,-3.6225,-3.6225,-3.6144,0.0,0.0,0.0,0.0,-3.5861,-3.5817,0.0,0.0,0.0,0.0,0.0,0.0,0.0,0.0,0.0,0.0,0.0,0.0,0.0,0.0,0.0,0.0,0.0,-3.486,-3.4897,-3.5444,-3.5583,-3.5722,-3.6353,-3.6492,0.0,-3.6492,-3.6492,-3.6492,-3.6492,-3.6492,-3.6938,-3.8292,-3.8508,-3.9084,-4.0847,-4.1239,-4.1769,-4.2959,-4.3671,-4.354,-4.2213,-4.2196,-4.1677,-4.0214,-4.0096,-4.0096,-4.0096,-4.0096,-4.0096,-4.0096,-4.032,-4.0686,-4.1146,-4.1622,-4.2089,-4.2552,-4.2957,-4.3233,-4.3394,-4.3463,-4.3497,-4.3515,-4.3515,-4.3515,-4.3515,-4.3515,-4.3515,-4.3515,-4.3565,-4.3667,-4.3786,-4.391,-4.4064,-4.421,0.0,0.0,0.0,0.0,0.0,0.0,0.0,0.0,0.0,0.0,0.0,0.0,0.0,0.0,0.0,0.0,0.0,0.0,0.0,0.0,0.0,0.0,0.0,0.0,0.0,-3.7303,-3.7577,-3.765,-3.7577,-3.7394,-3.7054,-3.7013,-3.6774,-3.644,-3.644,0.0,0.0,0.0,0.0,0.0,-3.5954,-3.5954,0.0,0.0,0.0,0.0,-3.5751,-3.5706,0.0,0.0,0.0,0.0,0.0,0.0,0.0,0.0,-3.6688,-3.7035,-3.702,0.0,-3.5623,-3.626,-3.6338,-3.6307,0.0,-3.6492,-3.6492,-3.6492,-3.6492,-3.6492,-3.6492,-3.6492,-3.6938,-3.8292,-3.8508,-3.9051,-4.0647,-4.1388,-4.2045,-4.2852,-4.3312,-4.3119,-4.1988,-4.2034,-4.1589,-4.0214,-4.0096,-4.0096,-4.0096,-4.0096,-4.0096,-4.0096,-4.0146,-4.0353,-4.0748,-4.1169,-4.1622,-4.2154,-4.2554,-4.2919,-4.3251,-4.3376,-4.3464,-4.3515,-4.3515,-4.3515,-4.3515,-4.3515,-4.3515,-4.3515,-4.3532,-4.3549,-4.3583,-4.3666,-4.3783,-4.3913,0.0,0.0,0.0,0.0,0.0,0.0,0.0,0.0,0.0,0.0,0.0,0.0,0.0,0.0,0.0,0.0,0.0,0.0,0.0,0.0,0.0,0.0,0.0,0.0,0.0,-3.8002,-3.8136,-3.8018,-3.7932,-3.7703,-3.7375,-3.728,-3.7009,-3.6602,-3.6444,0.0,0.0,0.0,0.0,0.0,-3.6084,0.0,0.0,0.0,0.0,0.0,-3.5839,-3.5751,0.0,-3.5622,-3.56,-3.56,0.0,0.0,0.0,0.0,-3.7317,-3.7644,-3.791,-3.7207,-3.644,-3.6661,-3.66,-3.6492,-3.6492,-3.6492,-3.6492,-3.6492,-3.6492,-3.6584,-3.6892,-3.6953,-3.74,-3.8754,-3.897,-3.9406,-4.061,-4.1272,-4.185,-4.2366,-4.2436,-4.2163,-4.1463,-4.1316,-4.0883,-3.9977,-3.9961,-4.0037,-4.0113,-4.0096,-4.0096,-4.0096,-4.0096,-4.0221,-4.0468,-4.0772,-4.1151,-4.1626,-4.2092,-4.2534,-4.2919,-4.3196,-4.3358,-4.3464,-4.3497,-4.3515,-4.3515,-4.3515,-4.3515,-4.3515,-4.3515,-4.3515,-4.3496,-4.3531,-4.3617,-4.3736,0.0,0.0,0.0,0.0,0.0,0.0,0.0,0.0,0.0,0.0,0.0,0.0,0.0,0.0,0.0,0.0,0.0,0.0,0.0,0.0,0.0,0.0,0.0,0.0,-3.8525,-3.8462,-3.8435,-3.8356,-3.8221,-3.7966,-3.7631,-3.7466,-3.7126,-3.6643,-3.6423,0.0,0.0,0.0,0.0,-3.6301,-3.6251,0.0,0.0,0.0,0.0,0.0,0.0,0.0,0.0,-3.5667,-3.5622,-3.56,-3.56,0.0,0.0,0.0,0.0,0.0,-3.8075,-3.7719,-3.7164,-3.6816,-3.6616,-3.6492,-3.6492,0.0,-3.6492,-3.6492,-3.6492,-3.6692,-3.7384,-3.7507,-3.7938,-3.9259,-3.9582,-3.9912,-4.0672,-4.0977,-4.1248,-4.1642,-4.1325,-4.0972,-4.072,-4.0384,-4.0044,-3.9633,-3.9755,-3.9884,-4.0062,-4.007,-4.0096,-4.0096,-4.0096,-4.0163,-4.028,-4.0451,-4.0748,-4.11,-4.1626,-4.2092,-4.2532,-4.2919,-4.3196,-4.3358,-4.3445,-4.3497,-4.3515,-4.3515,-4.3515,-4.3515,-4.3515,-4.3515,-4.3515,-4.3515,-4.3549,-4.3599,0.0,0.0,0.0,0.0,0.0,0.0,0.0,0.0,0.0,0.0,0.0,0.0,0.0,0.0,0.0,0.0,0.0,0.0,0.0,0.0,0.0,0.0,0.0,0.0,-3.8658,-3.8658,-3.8643,-3.8645,-3.8387,-3.8104,-3.7756,-3.7466,-3.7029,-3.6523,-3.6381,-3.6301,0.0,0.0,-3.6301,-3.6301,-3.628,0.0,0.0,0.0,0.0,0.0,0.0,0.0,0.0,-3.5817,-3.5689,-3.56,-3.56,0.0,0.0,0.0,0.0,0.0,-3.7546,-3.7409,-3.7298,-3.7014,-3.6724,-3.6492,-3.6492,-3.6492,-3.6492,-3.6492,-3.6492,-3.6692,-3.7384,-3.7507,-3.7938,-3.9259,-3.9967,-4.0435,-4.0749,-4.037,-4.0212,-4.0734,-4.0324,-3.993,-3.9667,-3.9736,-3.9659,-3.9299,-3.9408,-3.9609,-3.991,-4.0037,-4.0096,-4.0096,-4.0096,-4.0113,-4.0121,-4.0288,-4.0468,-4.07,-4.1123,-4.16,-4.2095,-4.2514,-4.2881,-4.3233,-4.3358,-4.3446,-4.3515,-4.3515,-4.3515,-4.3515,-4.3515,-4.3515,-4.3515,-4.3515,-4.3515,-4.3532,0.0,0.0,0.0,0.0,0.0,0.0,0.0,0.0,0.0,0.0,0.0,0.0,0.0,0.0,0.0,0.0,0.0,0.0,0.0,0.0,0.0,0.0,0.0,0.0,-3.8707,-3.8707,-3.8707,-3.8707,-3.8467,-3.8153,-3.7792,-3.7241,-3.6846,-3.6602,-3.6402,-3.6301,-3.6301,0.0,-3.6542,-3.696,0.0,0.0,0.0,0.0,0.0,0.0,0.0,0.0,0.0,0.0,-3.5711,-3.56,-3.56,0.0,0.0,0.0,0.0,0.0,-3.7438,-3.7399,-3.7344,-3.706,-3.6754,-3.6492,-3.6492,-3.6492,-3.6492,-3.6492,-3.6492,-3.6815,-3.7861,-3.8046,-3.8492,-3.9813,-3.9982,-3.9985,-4.0072,-3.9534,-3.9234,-3.9608,-3.9078,-3.8684,-3.8764,-3.8665,-3.863,-3.8595,-3.8898,-3.9195,-3.9504,-3.9677,-3.9833,-3.9986,-3.9986,-4.0037,-4.0096,-4.0163,-4.0271,-4.0444,-4.0741,-4.1105,-4.1561,-4.2026,-4.2416,-4.2769,-4.3031,-4.3214,-4.3339,-4.3429,-4.3463,-4.3515,-4.3515,-4.3515,-4.3515,-4.3515,-4.3515,-4.3496,0.0,0.0,0.0,0.0,0.0,0.0,0.0,0.0,0.0,0.0,0.0,0.0,0.0,0.0,0.0,0.0,0.0,0.0,0.0,0.0,0.0,0.0,0.0,0.0,-3.8707,-3.8524,-3.8414,-3.8414,-3.8191,-3.7937,-3.7667,-3.7183,-3.6855,-3.6661,-3.6592,-3.6473,-3.6318,-3.649,-3.6939,-3.753,0.0,0.0,0.0,0.0,0.0,0.0,0.0,0.0,0.0,0.0,0.0,0.0,0.0,0.0,0.0,-3.6171,-3.6602,-3.699,-3.7085,-3.7242,-3.7284,-3.6984,-3.6708,-3.6492,-3.6492,-3.6492,-3.6492,-3.6445,-3.646,-3.6907,-3.8196,-3.8736,-3.9228,-4.0105,-3.9828,-3.9428,-3.9308,-3.8708,-3.8327,-3.8521,-3.7917,-3.7592,-3.7903,-3.769,-3.7671,-3.7972,-3.8371,-3.8733,-3.9044,-3.9282,-3.9484,-3.9729,-3.9807,-3.991,-4.0062,-4.007,-4.0163,-4.0255,-4.0427,-4.0717,-4.1076,-4.1534,-4.1945,-4.2297,-4.2634,-4.2901,-4.3142,-4.3305,-4.3411,-4.348,-4.3479,-4.3515,-4.3515,-4.3515,-4.3515,-4.3515,0.0,0.0,0.0,0.0,0.0,0.0,0.0,0.0,0.0,0.0,0.0,0.0,0.0,0.0,0.0,0.0,0.0,0.0,0.0,0.0,0.0,0.0,0.0,0.0,0.0,-3.7955,-3.7584,-3.7584,-3.7322,-3.7246,-3.7333,-3.7603,-3.7301,-3.6537,-3.7141,-3.6991,-3.6353,-3.7116,-3.7461,-3.7564,-3.8382,0.0,0.0,0.0,0.0,0.0,0.0,0.0,0.0,0.0,0.0,0.0,0.0,0.0,-3.5571,-3.5434,-3.6073,-3.6685,-3.6174,-3.6603,-3.7134,-3.68,-3.66,-3.6492,-3.6492,-3.6492,-3.646,-3.6274,-3.6383,-3.6876,-3.808,-3.9438,-4.0166,-3.9644,-3.9521,-3.9259,-3.8677,-3.8,-3.7633,-3.7776,-3.7173,-3.6862,-3.7077,-3.7061,-3.7241,-3.77,-3.7873,-3.8173,-3.8623,-3.8887,-3.9088,-3.9232,-3.9556,-3.9781,-3.9926,-4.0037,-4.0096,-4.0113,-4.0263,-4.0444,-4.0652,-4.1053,-4.1507,-4.1945,-4.2277,-4.2614,-4.2957,-4.3123,-4.3286,-4.3394,-4.348,-4.3515,-4.3515,-4.3515,-4.3515,-4.3515,0.0,0.0,0.0,0.0,0.0,0.0,0.0,0.0,0.0,0.0,0.0,0.0,0.0,0.0,0.0,0.0,0.0,0.0,0.0,0.0,0.0,0.0,0.0,-3.8707,-3.8707,-3.8395,-3.8248,-3.8248,-3.7849,-3.7609,-3.754,-3.7797,-3.7697,-3.7314,-3.7439,-3.734,-3.7081,-3.7374,-3.7771,-3.8254,-3.9143,-3.9633,0.0,0.0,0.0,0.0,0.0,0.0,0.0,0.0,-3.6187,-3.5888,0.0,-3.5667,-3.5554,-3.536,-3.6072,-3.6798,-3.6232,-3.6685,-3.7254,-3.6953,-3.66,-3.6305,-3.6305,-3.6305,-3.6274,-3.61,-3.6179,-3.6628,-3.7626,-3.858,-3.9152,-3.8939,-3.8539,-3.8169,-3.7923,-3.7292,-3.6908,-3.6955,-3.6739,-3.6616,-3.6677,-3.677,-3.6892,-3.7059,-3.7314,-3.7594,-3.7857,-3.8144,-3.8483,-3.8816,-3.9104,-3.9441,-3.9781,-3.991,-4.0011,-4.0096,-4.0163,-4.0263,-4.0419,-4.0662,-4.0977,-4.1373,-4.1744,-4.211,-4.2478,-4.2769,-4.3032,-4.3286,-4.3445,-4.3515,-4.3515,-4.3515,-4.3515,-4.3515,0.0,0.0,0.0,0.0,0.0,0.0,0.0,0.0,0.0,0.0,0.0,0.0,0.0,0.0,0.0,0.0,0.0,0.0,0.0,0.0,0.0,0.0,0.0,-3.8707,-3.8707,-3.8707,-3.8579,-3.8322,-3.784,-3.7646,-3.7667,-3.7895,-3.7795,-3.7447,-3.7478,-3.7374,-3.7146,-3.765,-3.8173,-3.8748,-3.9863,-4.051,0.0,0.0,0.0,0.0,0.0,0.0,0.0,0.0,-3.6364,-3.6062,0.0,0.0,-3.5977,-3.5765,-3.647,-3.7178,-3.6669,-3.6917,-3.7254,-3.6923,-3.6507,-3.6164,-3.607,-3.6085,-3.6085,-3.5926,-3.6157,-3.6558,-3.7272,-3.7981,-3.8381,-3.8198,-3.78,-3.743,-3.7215,-3.6784,-3.6492,-3.6492,-3.6492,-3.6492,-3.6492,-3.6569,-3.6662,-3.6693,-3.6922,-3.7104,-3.7254,-3.7535,-3.7857,-3.8303,-3.8667,-3.9104,-3.953,-3.9781,-3.9977,-4.0096,-4.0096,-4.0163,-4.0238,-4.0387,-4.059,-4.086,-4.1249,-4.1596,-4.1987,-4.2338,-4.2749,-4.3123,-4.3322,-4.3428,-4.3463,-4.3497,-4.3515,-4.3515,0.0,0.0,0.0,0.0,0.0,0.0,0.0,0.0,0.0,0.0,0.0,0.0,0.0,0.0,0.0,0.0,0.0,0.0,0.0,0.0,0.0,0.0,0.0,-3.8707,-3.8707,-3.8707,-3.8303,-3.7511,-3.7041,-3.7073,-3.7612,-3.7875,-3.7554,-3.6737,-3.7253,-3.7042,-3.6404,-3.7939,-3.8661,-3.8928,-4.0537,-4.1463,-4.174,0.0,0.0,0.0,0.0,0.0,0.0,0.0,-3.6591,-3.6255,0.0,0.0,0.0,-3.6679,-3.7228,-3.7814,-3.734,-3.7211,-3.7104,-3.6631,-3.6352,-3.6101,-3.5784,-3.5863,-3.5941,-3.5752,-3.6232,-3.6799,-3.7124,-3.777,-3.8096,-3.7568,-3.7492,-3.7261,-3.6584,-3.6492,-3.6492,-3.6492,-3.6492,-3.6492,-3.6492,-3.6492,-3.6554,-3.6693,-3.6693,-3.68,-3.6969,-3.7119,-3.7344,-3.7671,-3.8274,-3.8788,-3.9206,-3.9661,-3.9961,-4.0096,-4.0096,-4.0096,-4.0096,-4.0238,-4.0362,-4.0534,-4.0836,-4.114,-4.1436,-4.1895,-4.2414,-4.2919,-4.3123,-4.3269,-4.3412,-4.348,-4.3515,-4.3515,0.0,0.0,0.0,0.0,0.0,0.0,0.0,0.0,0.0,0.0,0.0,0.0,0.0,0.0,0.0,0.0,0.0,0.0,0.0,0.0,0.0,0.0,0.0,0.0,0.0,0.0,-3.8548,-3.8208,-3.7873,-3.7698,-3.7667,-3.7958,-3.786,-3.7464,-3.7495,-3.7374,-3.7163,-3.7633,-3.7867,-3.8096,-3.9755,-4.0381,-4.0273,0.0,0.0,0.0,0.0,0.0,0.0,0.0,0.0,0.0,-3.6972,0.0,0.0,-3.7455,-3.7769,-3.8086,-3.7681,-3.7556,-3.7449,-3.7089,-3.6523,-3.6022,-3.5926,-3.5863,-3.5752,-3.572,-3.5838,-3.6086,-3.6326,-3.6525,-3.6633,-3.6467,-3.6517,-3.6503,-3.6304,-3.6414,-3.6492,-3.6492,-3.6492,-3.6492,-3.6492,-3.6492,-3.6523,-3.6554,-3.6554,-3.6585,-3.6662,-3.6785,-3.6983,-3.7344,-3.7828,-3.8427,-3.9034,-3.9415,-3.9798,-4.0096,-4.0096,-4.0096,-4.0096,-4.0138,-4.0238,-4.0362,-4.0566,-4.0765,-4.1036,-4.1687,-4.2192,-4.2575,-4.2863,-4.3105,-4.3269,-4.3394,-4.3445,-4.3515,0.0,0.0,0.0,0.0,0.0,0.0,0.0,0.0,0.0,0.0,0.0,-3.6611,0.0,0.0,0.0,0.0,0.0,0.0,0.0,0.0,0.0,0.0,0.0,0.0,0.0,-3.8707,-3.8624,0.0,0.0,-3.7948,-3.7649,-3.7662,-3.7551,-3.7342,-3.7115,-3.7008,-3.7025,-3.7374,-3.7564,-3.7801,-3.916,-3.9733,-3.9799,0.0,0.0,0.0,0.0,0.0,0.0,0.0,0.0,0.0,-3.8009,0.0,-3.8621,-3.8376,-3.8547,-3.8768,-3.8321,-3.8047,-3.7727,-3.7134,-3.6554,-3.6037,-3.5829,-3.5701,-3.5621,-3.5621,-3.5621,-3.5686,-3.5831,-3.5863,-3.5894,-3.6005,-3.6068,-3.6116,-3.6116,-3.6226,-3.6304,-3.6304,-3.6352,-3.6383,-3.6383,-3.646,-3.6492,-3.6492,-3.6492,-3.6492,-3.6492,-3.6585,-3.6754,-3.7119,-3.7492,-3.8087,-3.8832,-3.9185,-3.9599,-4.0011,-4.007,-4.0096,-4.0096,-4.0096,-4.0121,-4.0213,-4.0362,-4.0541,-4.0789,-4.1328,-4.177,-4.211,-4.2454,-4.2749,-4.3013,-4.3178,-4.334,-4.3463,0.0,0.0,-3.5133,-3.5133,0.0,0.0,0.0,0.0,0.0,-3.7382,-3.6725,-3.6486,0.0,0.0,0.0,-3.8524,0.0,0.0,0.0,0.0,0.0,0.0,0.0,0.0,0.0,0.0,0.0,0.0,0.0,-3.7932,-3.7595,-3.7184,-3.6888,-3.6681,-3.6423,-3.6301,-3.6353,-3.7077,-3.7503,-3.7788,-3.8639,-3.9338,-3.9818,-3.9301,0.0,0.0,0.0,0.0,0.0,0.0,0.0,0.0,-3.9077,-3.9266,-3.9585,-3.9399,-3.9505,-3.9625,-3.9158,-3.8595,-3.7943,-3.7013,-3.6492,-3.6053,-3.5587,-3.5504,-3.5504,-3.5504,-3.5504,-3.5522,-3.5671,-3.5688,-3.5735,-3.591,-3.5973,-3.5973,-3.5973,-3.6005,-3.6005,-3.6005,-3.6116,-3.6179,-3.6179,-3.6352,-3.646,-3.646,-3.6492,-3.6492,-3.6492,-3.6492,-3.6647,-3.6969,-3.7224,-3.777,-3.8539,-3.8963,-3.9408,-3.9901,-4.0011,-4.007,-4.0096,-4.0096,-4.0096,-4.0113,-4.0213,-4.0429,-4.0673,-4.0877,-4.1203,-4.1582,-4.1913,-4.2292,-4.2673,-4.2864,-4.3123,-4.3358,0.0,0.0,-3.6028,-3.6028,0.0,0.0,0.0,0.0,-3.6578,-3.7382,-3.6193,-3.561,-3.645,-3.656,0.0,-3.7694,-3.6853,0.0,0.0,0.0,0.0,0.0,0.0,0.0,0.0,0.0,0.0,0.0,0.0,-3.7966,-3.7667,-3.7222,-3.6888,-3.6681,-3.6423,-3.6301,-3.6318,-3.6473,-3.6686,-3.7018,-3.7888,-3.8225,-3.8277,-3.887,-3.8966,0.0,0.0,0.0,0.0,0.0,0.0,0.0,-4.019,-4.0277,-4.0483,-4.0278,-4.0044,-3.9798,-3.9484,-3.8942,-3.8331,-3.7655,-3.6754,-3.5941,-3.5587,-3.5504,-3.5504,-3.5504,-3.5504,-3.5504,-3.5554,-3.5554,-3.5554,-3.5587,-3.5686,-3.5752,-3.5752,-3.5894,-3.6005,-3.6005,-3.6037,-3.6037,-3.6037,-3.6179,-3.6274,-3.6274,-3.6414,-3.6492,-3.6492,-3.6492,-3.6585,-3.6754,-3.7074,-3.7565,-3.8201,-3.865,-3.9169,-3.9755,-3.9901,-3.9986,-4.0096,-4.0096,-4.0096,-4.0096,-4.0121,-4.0238,-4.0404,-4.0655,-4.0918,-4.1163,-4.1565,-4.1913,-4.2251,-4.2456,-4.2731,-4.3031,0.0,0.0,0.0,0.0,0.0,0.0,0.0,0.0,-3.6578,-3.7382,-3.6046,-3.5334,-3.6193,-3.5936,0.0,0.0,-3.6156,-3.6028,0.0,0.0,0.0,0.0,0.0,0.0,0.0,0.0,0.0,0.0,-3.8234,-3.7966,-3.7685,-3.7222,-3.6888,-3.6681,-3.6423,-3.6301,-3.6301,-3.6301,-3.6444,-3.6757,-3.7286,-3.7614,-3.781,-3.8399,-3.8616,-3.8719,-3.9562,0.0,0.0,0.0,0.0,0.0,0.0,0.0,-4.103,-4.0724,-4.037,-4.0028,-3.9694,-3.9239,-3.8678,-3.7698,-3.6708,-3.5941,-3.5668,-3.5554,-3.5504,-3.5504,-3.5504,-3.5504,-3.5504,-3.5504,-3.5504,-3.5504,-3.5554,-3.5589,-3.5589,-3.5701,-3.578,-3.578,-3.5814,-3.5863,-3.5863,-3.6022,-3.6116,-3.6116,-3.6258,-3.6352,-3.6352,-3.646,-3.6554,-3.6693,-3.6861,-3.7284,-3.7902,-3.8343,-3.8854,-3.9461,-3.9755,-3.9961,-4.0096,-4.0096,-4.0096,-4.0096,-4.0096,-4.0138,-4.0213,-4.0429,-4.0631,-4.0877,-4.1175,-4.1498,-4.1892,-4.2089,-4.2358,-4.2692,0.0,0.0,0.0,0.0,0.0,0.0,0.0,0.0,0.0,-3.7621,-3.6376,-3.5646,-3.6229,-3.5661,-3.5445,0.0,0.0,0.0,-3.6229,0.0,0.0,0.0,0.0,0.0,0.0,0.0,0.0,0.0,-3.8347,-3.8148,-3.7864,-3.7397,-3.7169,-3.7085,-3.6682,-3.6508,-3.649,-3.6353,-3.6444,-3.6722,-3.6888,-3.7299,-3.7809,-3.8,-3.8336,-3.8784,-3.9606,-4.0347,-4.1052,-4.179,0.0,0.0,0.0,0.0,-4.1418,-4.1013,-4.0621,-4.0238,-3.9884,-3.9435,-3.881,-3.7608,-3.6708,-3.6037,-3.5784,-3.5636,-3.5504,-3.5504,-3.5504,-3.5504,-3.5504,-3.5504,-3.5504,-3.5504,-3.5504,-3.5504,-3.5504,-3.5504,-3.5504,-3.5504,-3.5589,-3.5671,-3.5671,-3.5846,-3.5941,-3.5941,-3.6085,-3.6179,-3.6196,-3.6352,-3.6507,-3.6662,-3.6693,-3.6983,-3.7612,-3.803,-3.8551,-3.9179,-3.9687,-3.9986,-4.0096,-4.0096,-4.0096,-4.0096,-4.0096,-4.0096,-4.0096,-4.0238,-4.0429,-4.0648,-4.0793,-4.1105,-4.1498,-4.1683,-4.1966,-4.2335,0.0,0.0,0.0,0.0,0.0,0.0,0.0,0.0,0.0,0.0,-3.7734,-3.696,-3.6358,-3.6193,-3.5881,-3.5224,-3.5078,-3.5371,0.0,0.0,0.0,0.0,0.0,0.0,0.0,0.0,0.0,-3.851,-3.8824,-3.8834,-3.8557,-3.8153,-3.8216,-3.8655,-3.7741,-3.734,-3.7305,-3.6594,-3.6444,-3.6702,-3.6788,-3.7185,-3.7739,-3.7932,-3.8236,-3.8651,-3.9572,-4.0414,-4.1191,-4.1912,-4.2594,0.0,0.0,0.0,-4.177,-4.1418,-4.0907,-4.0412,-4.0121,-3.9382,-3.8539,-3.7943,-3.7118,-3.6367,-3.6037,-3.5701,-3.5504,-3.5504,-3.5504,-3.5504,-3.5504,-3.5504,-3.5504,-3.5504,-3.5504,-3.5504,-3.5504,-3.5504,-3.5504,-3.5504,-3.5537,-3.5537,-3.5537,-3.5653,-3.5752,-3.5752,-3.5926,-3.6085,-3.6196,-3.6242,-3.6352,-3.6523,-3.6631,-3.6861,-3.7254,-3.774,-3.8298,-3.905,-3.9738,-4.007,-4.0096,-4.0096,-4.0096,-4.0096,-4.0096,-4.0096,-4.0096,-4.0238,-4.033,-4.0379,-4.051,-4.0728,-4.1012,-4.1094,-4.1436,-4.1909,0.0,0.0,0.0,0.0,0.0,0.0,0.0,0.0,0.0,0.0,0.0,-3.7364,-3.7015,-3.6138,-3.5426,-3.5041,-3.4582,0.0,0.0,0.0,0.0,0.0,0.0,0.0,0.0,0.0,0.0,-3.8446,-3.888,-3.9156,-3.9261,-3.9265,-3.9124,-3.8877,-3.8355,-3.8134,-3.8082,-3.7284,-3.7063,-3.7228,-3.7414,-3.7721,-3.818,-3.8941,-3.9407,-3.9806,-4.0815,-4.1154,-4.1224,-4.1997,-4.2112,-4.1955,-4.2214,0.0,0.0,0.0,-4.1305,-4.0765,-4.0246,-3.954,-3.8827,-3.8399,-3.7653,-3.6892,-3.6507,-3.6068,-3.5733,-3.5621,-3.5554,-3.5504,-3.5504,-3.5504,-3.5504,-3.5504,-3.5504,-3.5504,-3.5504,-3.5504,-3.5504,-3.5504,-3.5504,-3.5504,-3.5504,-3.5539,-3.5604,-3.5604,-3.5735,-3.5863,-3.5911,-3.6101,-3.6242,-3.6352,-3.6507,-3.6754,-3.7075,-3.7567,-3.8274,-3.9299,-3.9858,-4.0096,-4.0096,-4.0096,-4.0096,-4.0096,-4.0096,-4.0096,-4.0096,-4.0163,-4.0238,-4.0305,-4.0362,-4.051,-4.0704,-4.0894,-4.1111,-4.1386,0.0,0.0,0.0,0.0,0.0,0.0,0.0,0.0,0.0,0.0,0.0,-3.7731,-3.7529,0.0,0.0,0.0,-3.4454,0.0,0.0,0.0,0.0,0.0,0.0,0.0,0.0,0.0,-3.8611,-3.8399,-3.8881,-3.9299,-3.9658,-4.0042,-3.9891,-3.9316,-3.9019,-3.887,-3.8819,-3.8099,-3.7815,-3.7906,-3.8115,-3.8368,-3.8746,-3.9683,-4.0237,-4.0636,-4.1483,-4.1621,-4.1482,-4.2086,-4.1961,-4.1618,-4.1953,-4.1796,0.0,0.0,0.0,-4.0782,-4.0319,-3.9799,-3.9276,-3.8871,-3.8157,-3.7431,-3.6967,-3.6461,-3.599,-3.5816,-3.5636,-3.5504,-3.5504,-3.5504,-3.5504,-3.5504,-3.5504,-3.5504,-3.5504,-3.5504,-3.5504,-3.5504,-3.5439,-3.5439,-3.5439,-3.5359,-3.5359,-3.5439,-3.5524,-3.5606,-3.5688,-3.599,-3.6164,-3.6196,-3.6383,-3.6662,-3.7015,-3.7612,-3.8415,-3.9432,-3.9858,-4.0062,-4.0096,-4.0096,-4.0096,-4.0096,-4.0096,-4.0096,-4.0096,-4.0096,-4.0163,-4.0238,-4.0238,-4.0337,-4.0485,-4.0704,-4.0853,-4.1018,0.0,0.0,0.0,0.0,0.0,0.0,0.0,0.0,0.0,0.0,0.0,-3.834,-3.7584,-3.7419,-3.6725,-3.5151,-3.4968,0.0,0.0,0.0,0.0,0.0,0.0,0.0,0.0,-3.8707,-3.8611,-3.8399,-3.8881,-3.9244,-3.9519,-3.9982,-4.0403,-4.0756,-3.9997,-3.9629,-3.9577,-3.8853,-3.861,-3.8737,-3.8759,-3.9002,-3.9362,-3.9487,-3.986,-4.0347,-4.0599,-4.1302,-4.2167,-4.2252,-4.2763,-4.3223,-4.2442,-4.1993,-4.156,0.0,0.0,0.0,-4.0377,-4.0188,-3.9755,-3.9286,-3.8606,-3.7927,-3.7476,-3.6738,-3.6148,-3.6005,-3.5748,-3.5504,-3.5504,-3.5504,-3.5504,-3.5504,-3.5504,-3.5504,-3.5504,-3.5504,-3.5504,-3.5504,-3.5326,-3.5213,-3.5213,-3.5034,-3.5001,-3.518,-3.5213,-3.5362,-3.5688,-3.5894,-3.6068,-3.6211,-3.6383,-3.6662,-3.7015,-3.8046,-3.8788,-3.9206,-3.9687,-3.9977,-4.0096,-4.0096,-4.0096,-4.0096,-4.0096,-4.0096,-4.0096,-4.0096,-4.0096,-4.0096,-4.0096,-4.0188,-4.033,-4.0461,-4.068,-4.0935,0.0,0.0,0.0,0.0,0.0,0.0,0.0,0.0,0.0,0.0,0.0,0.0,0.0,-3.7823,-3.7254,-3.6652,-3.6138,0.0,0.0,0.0,0.0,0.0,0.0,0.0,0.0,-3.8707,-3.8611,-3.8399,-3.8881,-3.9281,-3.9638,-4.0003,-4.0501,-4.1006,-4.0642,-4.0457,-4.0429,-3.9629,-3.9324,-3.9387,-3.9455,-3.9589,-3.9818,-4.0676,-4.1109,-4.1377,-4.1806,-4.196,-4.1958,-4.2168,-4.2107,-4.1902,-4.1594,-4.1382,-4.1067,-4.0253,-4.0047,-4.008,-4.0014,-4.0012,-3.9961,-3.9609,-3.9088,-3.8567,-3.8071,-3.746,-3.6876,-3.6523,-3.61,-3.5797,-3.5653,-3.5554,-3.5504,-3.5504,-3.5504,-3.5504,-3.5504,-3.5392,-3.5326,-3.5326,-3.5049,-3.4865,-3.4865,-3.4683,-3.465,-3.4865,-3.4949,-3.5133,-3.5362,-3.5782,-3.6037,-3.6053,-3.6352,-3.6693,-3.7119,-3.8116,-3.8761,-3.9061,-3.9635,-3.9961,-4.0096,-4.0096,-4.0096,-4.0096,-4.0096,-4.0096,-4.0096,-4.0096,-4.0096,-4.0096,-4.0096,-4.0138,-4.0188,-4.0313,-4.0485,-4.0655,0.0,0.0,0.0,-4.303,0.0,-4.0979,-4.0793,-3.9677,-3.885,-3.8933,0.0,0.0,0.0,0.0,-3.7786,-3.7529,-3.6758,-3.6303,-3.6303,0.0,0.0,0.0,0.0,0.0,0.0,-3.8707,-3.8611,-3.8399,-3.8644,-3.8959,-3.929,-3.9417,-3.9778,-4.0349,-4.0411,-4.0582,-4.0806,-4.0249,-4.0025,-4.0048,-4.0135,-4.0205,-4.0389,-4.1233,-4.1697,-4.1917,-4.2297,-4.2293,-4.2141,-4.2377,-4.2206,-4.1832,-4.159,-4.1212,-4.0826,-4.0635,-4.0311,-4.0013,-3.9901,-3.989,-3.9823,-3.9522,-3.9347,-3.9104,-3.865,-3.8071,-3.7506,-3.7088,-3.6585,-3.6195,-3.599,-3.5846,-3.5683,-3.5537,-3.5504,-3.5504,-3.5504,-3.5326,-3.518,-3.518,-3.485,-3.4597,-3.4597,-3.4395,-3.4312,-3.4597,-3.475,-3.4949,-3.518,-3.5718,-3.6037,-3.6163,-3.6414,-3.6785,-3.7194,-3.7915,-3.8528,-3.8942,-3.9425,-3.979,-4.0037,-4.0087,-4.0096,-4.0096,-4.0096,-4.0096,-4.0096,-4.0096,-4.0096,-4.0096,-4.0096,-4.0096,-4.0113,-4.0238,-4.0387,-4.0534,-4.2901,-4.2901,-4.2901,-4.2901,-4.223,-4.147,-4.0833,-4.0051,-3.9612,-3.9794,0.0,0.0,0.0,0.0,0.0,-3.7639,-3.6868,-3.6395,-3.6376,-3.7107,0.0,0.0,0.0,0.0,0.0,-3.8707,-3.8611,-3.8399,-3.8203,-3.824,-3.8509,-3.8214,-3.8346,-3.8819,-3.9261,-3.9883,-4.0628,-4.068,-4.0697,-4.0697,-4.0697,-4.0858,-4.1093,-4.1093,-4.1375,-4.178,-4.1856,-4.2236,-4.2711,-4.292,-4.316,-4.3265,-4.2527,-4.16,-4.0918,-4.1506,-4.0754,-3.982,0.0,0.0,0.0,-3.9052,-3.9312,-3.9599,-3.9131,-3.8567,-3.8042,-3.7695,-3.7148,-3.6693,-3.6554,-3.6352,-3.6068,-3.5587,-3.5504,-3.5504,-3.5504,-3.5326,-3.518,-3.518,-3.4716,-3.4414,-3.438,-3.4088,-3.402,-3.438,-3.4597,-3.4831,-3.518,-3.5701,-3.6132,-3.6492,-3.6631,-3.6861,-3.7194,-3.7537,-3.8062,-3.8761,-3.9044,-3.9435,-3.9901,-4.0037,-4.0113,-4.0096,-4.0096,-4.0096,-4.0096,-4.0096,-4.0096,-4.0096,-4.0096,-4.0096,-4.0113,-4.0238,-4.0387,-4.0534,-4.2901,-4.2901,-4.2901,-4.2901,-4.223,-4.1651,-4.1452,-4.0816,-4.0378,0.0,0.0,0.0,-4.0592,-4.0512,-4.012,-3.931,-3.9035,-3.8652,-3.8065,-3.8248,-3.8377,-3.8377,-3.8579,-3.8707,-3.8707,-3.8707,-3.8611,-3.8399,-3.8153,-3.8205,-3.8546,-3.8207,-3.8297,-3.8807,-3.8841,-3.8849,-3.8961,-4.0096,-4.0607,-4.0697,-4.0697,-4.0793,-4.0959,-4.1047,-4.1186,-4.133,-4.1714,-4.1941,-4.2195,-4.2635,-4.292,-4.3014,-4.2475,-4.1687,-4.0965,-4.1028,-4.098,-4.0887,-4.0621,0.0,0.0,0.0,0.0,0.0,-3.9582,-3.9195,-3.8799,-3.8383,-3.7899,-3.7447,-3.7074,-3.6693,-3.632,-3.6053,-3.5799,-3.5621,-3.5504,-3.5326,-3.5148,-3.5001,-3.465,-3.4346,-3.4196,-3.402,-3.3985,-3.4162,-3.4481,-3.4798,-3.4968,-3.5621,-3.6132,-3.6492,-3.6631,-3.6739,-3.6831,-3.7419,-3.7889,-3.8315,-3.8816,-3.9292,-3.9755,-3.9884,-4.0011,-4.0096,-4.0096,-4.0096,-4.0096,-4.0096,-4.0096,-4.0096,-4.0096,-4.0096,-4.0096,-4.0138,-4.0313,-4.051,-4.2901,-4.2901,-4.2901,-4.2901,-4.2502,-4.2103,-4.1741,-4.1361,-4.1125,0.0,0.0,0.0,-4.0889,-4.1009,-4.0912,-4.0451,-4.0396,-4.0065,-3.9258,-3.9203,-3.9056,-3.8707,-3.8707,-3.8707,-3.8707,-3.8707,-3.8611,-3.8399,-3.817,-3.8096,-3.8161,-3.7772,-3.7693,-3.7935,-3.8013,-3.795,-3.7832,-3.9344,-4.0041,-4.0179,-4.0487,-4.0728,-4.0912,-4.1,-4.1047,-4.114,-4.1398,-4.167,-4.1917,-4.2315,-4.2731,-4.3051,-4.286,-4.2436,-4.2018,-4.1915,-4.1741,-4.1519,-4.1098,-4.0965,-4.0857,-4.0441,0.0,0.0,-3.9935,-3.9661,-3.9382,-3.9067,-3.8667,-3.8258,-3.7857,-3.7447,-3.7043,-3.6662,-3.6368,-3.6054,-3.5621,-3.5409,-3.5261,-3.5034,-3.4716,-3.4481,-3.4346,-3.421,-3.4191,-3.4346,-3.4616,-3.4935,-3.5347,-3.5782,-3.6132,-3.6492,-3.6585,-3.6631,-3.6693,-3.7165,-3.7626,-3.803,-3.8567,-3.9104,-3.9616,-3.9824,-3.9961,-4.0096,-4.0096,-4.0096,-4.0096,-4.0096,-4.0096,-4.0096,-4.0096,-4.0096,-4.0096,-4.0096,-4.0271,-4.051,0.0,-4.2901,-4.2901,-4.2901,-4.2901,-4.2647,-4.194,-4.1831,-4.1868,0.0,-4.1396,-4.1012,-4.1164,-4.1284,-4.1334,-4.1242,-4.1224,-4.0875,-4.0084,-3.9937,-3.957,-3.8854,-3.8762,-3.8707,-3.8707,-3.8707,-3.8611,-3.8415,-3.8185,-3.7932,-3.7577,-3.7164,-3.6869,-3.6678,-3.7038,-3.7112,-3.7086,-3.8506,-3.916,-3.9347,-4.0168,-4.0655,-4.0888,-4.0894,-4.0959,-4.107,-4.1093,-4.1375,-4.178,-4.2061,-4.2631,-4.3233,-4.3427,-4.3515,-4.3497,-4.3429,-4.2776,-4.1996,-4.1665,-4.1201,-4.0747,-4.0399,-4.0539,0.0,-4.0271,-4.0087,-3.9901,-3.9616,-3.9309,-3.9023,-3.8706,-3.8399,-3.7956,-3.7417,-3.7133,-3.6692,-3.5864,-3.5653,-3.5489,-3.5261,-3.4964,-3.4765,-3.4731,-3.4549,-3.4515,-3.4698,-3.4883,-3.5264,-3.5973,-3.6005,-3.6163,-3.6492,-3.6492,-3.6554,-3.6693,-3.6908,-3.7285,-3.7857,-3.8343,-3.8887,-3.9484,-3.9772,-3.9961,-4.0096,-4.0096,-4.0096,-4.0096,-4.0096,-4.0096,-4.0096,-4.0096,-4.0096,-4.0096,-4.0096,-4.0271,-4.051,-4.2901,-4.2901,-4.2901,-4.2901,-4.2901,-4.2865,-4.2683,-4.2665,-4.2684,-4.2702,-4.2649,-4.2705,-4.2883,-4.2936,-4.2696,-4.2104,-4.2066,-4.1717,-4.0912,-4.0267,-3.9827,-3.9662,-3.9056,-3.8707,-3.8707,-3.8707,-3.8643,-3.8478,-3.8186,-3.7844,-3.7523,-3.705,-3.6728,-3.6541,-3.6515,-3.6457,-3.647,-3.7803,-3.8412,-3.8555,-3.9946,-4.0583,-4.0745,-4.0864,-4.0912,-4.0959,-4.1047,-4.1175,-4.1436,-4.2231,-4.2785,-4.316,-4.3428,-4.3515,-4.3497,-4.348,-4.33,-4.3049,-4.2759,-4.2456,-4.2101,-4.1669,-4.1402,0.0,-4.0772,-4.0614,-4.0453,-4.0062,-3.9858,-3.9582,-3.9152,-3.8745,-3.8399,-3.8128,-3.7786,-3.7194,-3.6227,-3.6085,-3.591,-3.5489,-3.5374,-3.5228,-3.4868,-3.4835,-3.4835,-3.4868,-3.5195,-3.5554,-3.5973,-3.6085,-3.6289,-3.6492,-3.6492,-3.6523,-3.6554,-3.6847,-3.7165,-3.7506,-3.8258,-3.8816,-3.9276,-3.9703,-3.9961,-4.0096,-4.0096,-4.0096,-4.0096,-4.0096,-4.0096,-4.0096,-4.0096,-4.0096,-4.0096,-4.0096,-4.0271,-4.051,-4.2901,-4.2901,-4.2901,-4.2901,-4.2901,-4.2901,-4.2901,-4.2901,-4.2901,-4.2901,-4.303,-4.3141,-4.3233,-4.3341,-4.3247,-4.2878,-4.2893,-4.2561,-4.1754,-4.1313,-4.091,-4.0524,-4.012,-3.9884,-3.9884,-3.9884,-3.9852,-3.9754,-3.9401,-3.9085,-3.8793,-3.8272,-3.7941,-3.7752,-3.7543,-3.7352,-3.7278,-3.8339,-3.8723,-3.869,-3.9902,-4.0485,-4.0607,-4.0745,-4.0793,-4.0817,-4.0959,-4.1175,-4.1525,-4.2331,-4.2785,-4.305,-4.3375,-4.3515,-4.3515,-4.3515,-4.348,-4.341,-4.3251,-4.3013,-4.2729,-4.2378,-4.205,0.0,0.0,-4.1146,-4.0948,-4.0621,-4.0468,-4.0288,-3.9927,-3.9549,-3.9189,-3.8909,-3.8567,-3.8087,-3.7356,-3.6784,-3.6305,-3.5893,-3.5797,-3.5636,-3.5347,-3.5314,-3.5249,-3.5213,-3.5442,-3.5718,-3.5973,-3.6116,-3.6274,-3.6492,-3.6492,-3.6523,-3.66,-3.6938,-3.7284,-3.7653,-3.8371,-3.8942,-3.9345,-3.9729,-3.9961,-4.0096,-4.0096,-4.0096,-4.0096,-4.0096,-4.0096,-4.0096,-4.0096,-4.0096,-4.0096,-4.0096,-4.0271,-4.051,-4.2881,-4.2881,-4.2881,-4.2843,-4.2825,-4.2825,-4.2825,-4.2862,-4.2881,-4.29,-4.2994,-4.314,-4.3322,-4.3488,-4.3651,-4.3797,-4.3869,-4.3574,-4.2784,-4.2582,-4.2142,-4.137,-4.1168,-4.1095,-4.1095,-4.1095,-4.1062,-4.0979,-4.0634,-4.0347,-4.0085,-3.9514,-3.9157,-3.8986,-3.8684,-3.8437,-3.8288,-3.9027,-3.9248,-3.9105,-3.9925,-4.0337,-4.0485,-4.0624,-4.0673,-4.0721,-4.0894,-4.1221,-4.1653,-4.2331,-4.2709,-4.2939,-4.3339,-4.3497,-4.3515,-4.3515,-4.3515,-4.3497,-4.3429,-4.3251,-4.3032,-4.2845,-4.2557,-4.2239,0.0,0.0,0.0,-4.1214,-4.1111,-4.0965,-4.0686,-4.036,-3.9995,-3.9627,-3.9345,-3.898,-3.8523,-3.7666,-3.6922,-3.6445,-3.6274,-3.607,-3.5816,-3.5752,-3.5671,-3.5587,-3.5718,-3.5831,-3.6037,-3.6179,-3.6352,-3.6492,-3.6523,-3.66,-3.6693,-3.7104,-3.7506,-3.7943,-3.8567,-3.9104,-3.9554,-3.9824,-3.9986,-4.0096,-4.0096,-4.0096,-4.0096,-4.0096,-4.0096,-4.0096,-4.0096,-4.0096,-4.0096,-4.0096,-4.0271,-4.051,-4.2822,-4.2822,-4.2783,-4.2649,-4.2631,-4.2631,-4.2631,-4.2727,-4.2823,-4.2882,-4.2901,-4.3229,-4.4068,-4.4178,-4.4507,-4.5274,-4.5366,-4.5057,-4.4382,-4.3632,-4.288,-4.2194,-4.148,-4.1095,-4.1095,-4.1095,-4.1044,-4.0906,-4.0527,-4.0238,-4.0085,-3.9435,-3.9076,-3.8986,-3.8612,-3.8414,-3.842,-3.8973,-3.9217,-3.9244,-3.9875,-4.0213,-4.0355,-4.0461,-4.06,-4.0745,-4.1065,-4.1272,-4.152,-4.2192,-4.2555,-4.2807,-4.3269,-4.3464,-4.3515,-4.3515,-4.3515,-4.3497,-4.3497,-4.341,-4.3323,-4.3178,-4.2976,-4.275,-4.246,0.0,-4.2032,-4.1839,0.0,-4.1431,-4.1163,0.0,0.0,-4.0238,-3.9884,-3.9504,-3.9152,-3.8689,-3.8042,-3.7178,-3.6921,-3.6646,-3.6196,-3.5879,-3.5767,-3.5941,-3.5973,-3.6037,-3.6179,-3.6352,-3.6492,-3.6492,-3.6616,-3.6693,-3.6693,-3.7329,-3.7801,-3.8087,-3.8827,-3.9329,-3.9677,-3.9944,-4.0087,-4.0096,-4.0096,-4.0096,-4.0096,-4.0096,-4.0096,-4.0096,-4.0096,-4.0096,-4.0096,-4.0096,-4.0271,-4.051,-4.2822,-4.2803,-4.2764,-4.2629,-4.2609,-4.2609,-4.2609,-4.2707,-4.2804,-4.29,-4.3318,-4.3734,-4.4155,-4.4608,-4.5025,-4.5391,-4.5426,-4.532,-4.509,-4.4289,-4.3762,-4.3649,-4.2861,-4.2455,-4.2488,-4.2455,-4.2334,-4.2121,-4.1794,0.0,0.0,0.0,-4.0354,-4.0191,-3.9893,-3.9688,-3.9634,-3.9783,-3.978,-3.9747,-4.0002,-4.0121,-4.0188,-4.0337,-4.0461,-4.0607,-4.0918,-4.1134,-4.1368,-4.1924,-4.2297,-4.2595,-4.2994,-4.3178,-4.3287,-4.3411,-4.3446,-4.3464,-4.3497,-4.348,-4.3445,-4.3393,-4.3286,-4.3142,-4.2957,-4.275,-4.2575,-4.2398,0.0,0.0,0.0,0.0,0.0,0.0,-4.0604,-4.0212,-3.9893,-3.9556,-3.8952,-3.7841,-3.7506,-3.7148,-3.6677,-3.6243,-3.6022,-3.6116,-3.6116,-3.6148,-3.6196,-3.6383,-3.6492,-3.6492,-3.6631,-3.68,-3.6983,-3.761,-3.8132,-3.8511,-3.9169,-3.9609,-3.9807,-4.0011,-4.0096,-4.0096,-4.0096,-4.0096,-4.0096,-4.0096,-4.0096,-4.0096,-4.0096,-4.0096,-4.0096,-4.0096,-4.0271,-4.051,-4.2725,-4.2725,-4.2706,-4.255,-4.253,-4.253,-4.2589,-4.2847,-4.3051,-4.3151,-4.3856,-4.4433,-4.465,-4.5152,-4.5565,-4.58,-4.5776,-4.5727,-4.5596,-4.5055,-4.4646,-4.4473,-4.3907,-4.3506,-4.3339,-4.3251,-4.3105,-4.2901,-4.2554,-4.2231,0.0,0.0,-4.1238,-4.1087,-4.0769,-4.0583,-4.0485,-4.0313,-4.0188,-4.0096,-4.0096,-4.0096,-4.0096,-4.0238,-4.0362,-4.0485,-4.0769,-4.0948,-4.1186,-4.1661,-4.2026,-4.2318,-4.2653,-4.2862,-4.303,-4.3215,-4.3305,-4.3358,-4.3445,-4.348,-4.3515,-4.3515,-4.3463,-4.3411,-4.3304,-4.316,-4.3013,-4.292,-4.2805,0.0,0.0,0.0,-4.1924,-4.1596,0.0,-4.089,-4.0541,-4.0246,-3.967,-3.8551,-3.8087,-3.7698,-3.7207,-3.6769,-3.6507,-3.6476,-3.6399,-3.6414,-3.643,-3.6554,-3.6631,-3.6631,-3.6816,-3.7043,-3.7344,-3.7972,-3.8511,-3.8925,-3.9478,-3.9833,-3.9961,-4.0062,-4.0096,-4.0096,-4.0096,-4.0096,-4.0096,-4.0096,-4.0096,-4.0096,-4.0096,-4.0096,-4.0096,-4.0096,-4.0271,-4.051,-4.2524,-4.2548,-4.255,-4.2348,-4.2308,-4.2389,-4.257,-4.3156,-4.366,-4.3846,-4.4525,-4.5273,-4.6064,-4.6047,-4.6287,-4.7075,-4.7017,-4.6682,-4.6133,-4.6043,-4.5464,-4.4167,-4.4076,-4.3715,-4.2938,-4.2788,-4.2691,-4.2609,-4.2151,-4.1878,0.0,0.0,0.0,-4.107,-4.068,-4.0493,-4.0468,-4.0221,-4.0096,-4.0096,-4.0096,-4.0096,-4.0096,-4.0238,-4.0288,-4.0355,-4.06,-4.0793,-4.0989,-4.1448,-4.1744,-4.1966,-4.2297,-4.2537,-4.275,-4.2882,-4.305,-4.3233,-4.3358,-4.3464,-4.3515,-4.3515,-4.3497,-4.3497,-4.3479,-4.3446,-4.3394,-4.3376,-4.3233,-4.303,-4.29,-4.2614,-4.2277,-4.1924,-4.1701,0.0,0.0,-4.0748,-4.022,-3.9269,-3.8634,-3.8157,-3.7899,-3.7549,-3.7298,-3.7194,-3.6982,-3.6906,-3.6969,-3.6969,-3.6969,-3.6969,-3.7224,-3.7492,-3.7671,-3.8415,-3.8925,-3.9206,-3.9661,-3.9961,-4.0096,-4.0096,-4.0096,-4.0096,-4.0096,-4.0096,-4.0096,-4.0096,-4.0096,-4.0096,-4.0096,-4.0096,-4.0096,-4.0096,-4.0271,-4.051,-4.2163,-4.2124,-4.2166,-4.2287,-4.2308,-4.2527,-4.3151,-4.3983,-4.4525,-4.4507,-4.5101,-4.5605,-4.5766,-4.6084,-4.6377,-4.6643,-4.6542,-4.6418,-4.6317,-4.5803,-4.5405,-4.5172,-4.4653,-4.4073,-4.3446,-4.3346,-4.2913,-4.213,-4.1938,-4.1653,0.0,0.0,0.0,0.0,-4.0607,-4.0461,-4.0362,-4.0188,-4.0096,-4.0096,-4.0096,-4.0096,-4.0096,-4.0163,-4.0163,-4.0188,-4.0379,-4.051,-4.068,-4.1012,-4.1272,-4.1485,-4.1788,-4.2002,-4.2213,-4.2496,-4.2711,-4.292,-4.3142,-4.3323,-4.3429,-4.3429,-4.3463,-4.3515,-4.3515,-4.348,-4.3481,-4.3481,-4.341,-4.334,-4.3251,-4.3068,-4.2863,-4.2595,-4.2315,-4.2005,0.0,-4.1105,-4.0531,-3.9978,-3.9249,-3.8733,-3.8623,-3.8242,-3.7985,-3.7927,-3.7695,-3.7578,-3.7581,-3.7508,-3.7464,-3.7464,-3.7639,-3.7857,-3.8087,-3.8745,-3.9222,-3.953,-3.9867,-4.0062,-4.0096,-4.0096,-4.0096,-4.0096,-4.0096,-4.0096,-4.0096,-4.0096,-4.0096,-4.0096,-4.0096,-4.0096,-4.0096,-4.0096,-4.0213,-4.0387,-4.1766,-4.189,-4.2062,-4.2115,-4.2415,-4.2923,-4.3754,-4.46,-4.5078,-4.4969,-4.5488,-4.5829,-4.5688,-4.5936,-4.6112,-4.6112,-4.5988,-4.5963,-4.6112,-4.5639,-4.5332,-4.5311,-4.4799,-4.4253,-4.3675,-4.3322,-4.2798,-4.2146,-4.1745,-4.1398,0.0,0.0,0.0,0.0,-4.051,-4.0387,-4.0288,-4.0163,-4.0096,-4.0096,-4.0096,-4.0096,-4.0096,-4.0096,-4.0096,-4.0096,-4.0188,-4.0313,-4.0461,-4.068,-4.0918,-4.1134,-4.1358,-4.1604,-4.1849,-4.2107,-4.2356,-4.2613,-4.286,-4.3031,-4.3178,-4.3269,-4.3323,-4.3358,-4.3393,-4.3392,-4.3392,-4.3392,-4.3392,-4.3393,-4.3412,-4.3305,-4.316,-4.3031,-4.2824,-4.2534,0.0,-4.1516,-4.099,-4.0662,-3.9901,-3.9345,-3.9202,-3.8914,-3.8678,-3.8567,-3.8399,-3.8286,-3.823,-3.8132,-3.8091,-3.8091,-3.8201,-3.8383,-3.8634,-3.9125,-3.9513,-3.9781,-3.9716,-3.9723,-3.9706,-3.9453,-3.9469,-3.9723,-3.9723,-3.9859,-4.0096,-4.0096,-4.0096,-4.0096,-4.0096,-4.0096,-4.0096,-4.0096,-4.0213,-4.0387,-4.1495,-4.1934,-4.2236,-4.1952,-4.2731,-4.3628,-4.4334,-4.5007,-4.5405,-4.5247,-4.5656,-4.5912,-4.5786,-4.5658,-4.5555,-4.5555,-4.545,-4.5424,-4.5555,-4.5555,-4.5277,-4.4649,-4.464,-4.4324,-4.3637,-4.281,-4.2451,-4.2544,-4.1603,-4.1105,0.0,0.0,0.0,0.0,-4.0429,-4.0305,-4.028,-4.0163,-4.0096,-4.0096,-4.0096,-4.0096,-4.0096,-4.0096,-4.0096,-4.0096,-4.0096,-4.0188,-4.0313,-4.0436,-4.0655,-4.0888,-4.1023,-4.1307,-4.1582,-4.1714,-4.1995,-4.2308,-4.251,-4.2577,-4.2676,-4.2957,-4.2995,-4.3032,-4.3105,-4.3142,-4.316,-4.316,-4.316,-4.3214,-4.334,-4.3269,-4.3214,-4.3214,-4.3142,-4.2955,-4.2496,-4.2029,-4.16,-4.1277,-4.0597,-3.9995,-3.958,-3.9528,-3.9379,-3.9077,-3.905,-3.8969,-3.886,-3.8832,-3.8832,-3.8832,-3.8942,-3.9104,-3.9232,-3.9556,-3.9781,-3.991,-3.9294,-3.8988,-3.8971,-3.8244,-3.8278,-3.8937,-3.8971,-3.9394,-4.0045,-4.0079,-4.0096,-4.0096,-4.0096,-4.0096,-4.0096,-4.0096,-4.0271,-4.0534,-4.2691,-4.2699,-4.2907,-4.3412,-4.4093,-4.4618,-4.4812,-4.5516,-4.5912,-4.569,-4.5588,-4.5503,-4.5363,-4.523,-4.515,-4.515,-4.5123,-4.5113,-4.5167,-4.515,-4.5117,-4.5043,-4.5043,-4.4734,-4.4059,-4.3827,-4.3162,-4.2009,-4.1746,-4.1278,-4.0655,0.0,0.0,0.0,-4.033,-4.0238,-4.0163,-4.0096,-4.0096,-4.0096,-4.0096,-4.0096,-4.0096,-4.0096,-4.0096,-4.0096,-4.0096,-4.0138,-4.0163,-4.0313,-4.0404,-4.0461,-4.0607,-4.0847,-4.1105,-4.118,-4.1475,-4.1805,-4.204,-4.1803,-4.1556,-4.1709,-4.1805,-4.1845,-4.1864,-4.2333,-4.2747,-4.2747,-4.2787,-4.2882,-4.3013,-4.3123,-4.3233,-4.3323,-4.3251,-4.3087,-4.2806,-4.2438,-4.2071,-4.1622,-4.1192,-4.0693,-4.0138,-3.9926,-3.9772,-3.9677,-3.9573,-3.952,-3.9451,-3.9362,-3.9325,-3.9325,-3.9352,-3.9441,-3.9582,-3.9755,-3.991,-4.0045,-3.9343,-3.8988,-3.8971,-3.8244,-3.8007,-3.821,-3.8751,-3.9106,-3.9309,-3.9876,-4.0096,-4.0096,-4.0096,-4.0096,-4.0096,-4.0096,-4.0271,-4.0493,-4.3357,-4.3765,-4.4385,-4.5217,-4.5654,-4.5728,-4.5246,-4.5558,-4.576,-4.5494,-4.5257,-4.5086,-4.4951,-4.4886,-4.4831,-4.4831,-4.4831,-4.4831,-4.4831,-4.4831,-4.4858,-4.4923,-4.4923,-4.479,-4.4479,-4.4137,-4.3357,-4.2192,-4.1867,-4.1294,-4.051,0.0,0.0,0.0,-4.0238,-4.0163,-4.0096,-4.0096,-4.0096,-4.0096,-4.0096,-4.0096,0.0,-4.0096,-4.0096,-4.0096,-4.0096,-4.0096,-4.0096,-4.0188,-4.0238,-4.0313,-4.0387,-4.0583,-4.084,-4.0942,-4.0909,-4.0919,-4.1143,-4.0715,-4.0258,-4.0455,-4.0535,-4.0576,-4.0617,-4.0957,-4.1296,-4.1296,-4.1624,-4.2011,-4.2168,-4.2628,-4.305,-4.3287,-4.3251,-4.316,-4.3012,-4.2709,-4.2353,-4.192,-4.1463,-4.1024,-4.0607,-4.028,-4.0054,-3.9986,-3.991,-3.9867,-3.9867,-3.9807,-3.9755,-3.9755,-3.9755,-3.9781,-3.9884,-3.9961,-4.0037,-4.0096,-3.9022,-3.8514,-3.8481,-3.7398,-3.7094,-3.7449,-3.8193,-3.87,-3.9056,-3.9808,-4.0096,-4.0096,-4.0096,-4.0096,-4.0096,-4.0096,-4.0271,-4.051,-4.4034,-4.501,-4.607,-4.6843,-4.6973,-4.6675,-4.5728,-4.5533,-4.535,-4.5022,-4.4858,-4.4737,-4.4598,-4.4615,-4.4615,-4.4615,-4.4615,-4.4615,-4.4615,-4.4615,-4.4615,-4.4615,-4.4615,-4.4654,-4.4776,-4.4085,-4.3391,-4.2654,-4.1997,-4.1272,-4.0461,0.0,0.0,-4.028,-4.0163,-4.0096,-4.0096,-4.0096,-4.0096,-4.0096,-4.0096,-4.0096,-4.0096,-4.0096,-4.0096,-4.0096,-4.0096,-4.0096,-4.0096,-4.0096,-4.0188,-4.0263,-4.0263,-4.0453,-4.0673,-4.0793,-4.0359,-3.9893,-4.0144,-3.9565,-3.8947,-3.9215,-3.9274,-3.9297,-3.9363,-3.9454,-3.9525,-3.9525,-4.017,-4.0826,-4.1028,-4.1872,-4.268,-4.3087,-4.316,-4.3142,-4.3049,-4.2785,-4.249,-4.2145,-4.1591,0.0,-4.0959,-4.0551,-4.0238,-4.0121,-4.0113,-4.0096,-4.0096,-4.0096,-4.0096,-4.0096,-4.0096,-4.0096,-4.0096,-4.0096,-4.0096,-4.0079,-3.8599,-3.7905,-3.7855,-3.6293,-3.5994,-3.6694,-3.7432,-3.8176,-3.8903,-3.9656,-4.0011,-4.0096,-4.0096,-4.0096,-4.0096,-4.0096,-4.0263,-4.0485,-4.6252,-4.6443,-4.668,-4.6798,-4.6844,-4.6789,-4.6576,-4.613,-4.5574,-4.4916,-4.4737,-4.4643,-4.4598,-4.4615,-4.4615,-4.4615,-4.4615,-4.4615,-4.4615,-4.4615,-4.4615,-4.4615,-4.4615,-4.4598,-4.4626,-4.449,-4.3745,-4.2366,-4.2247,-4.1485,-4.0171,-4.0163,-4.0138,-4.0121,-4.0096,-4.0096,-4.0096,-4.0096,-4.0096,-4.0096,-4.0096,-4.0096,-4.0096,-4.0096,-4.0096,-4.0096,-4.0096,-4.0096,-4.0096,-4.0096,-4.0113,-4.0138,-4.0138,-4.0238,-4.0379,-4.0404,-3.9956,-3.9523,-3.9761,-3.8809,-3.7836,-3.8035,-3.8098,-3.8098,-3.8101,-3.8625,-3.9097,-3.9097,-3.9291,-3.9525,-3.9767,-4.0812,-4.1915,-4.281,-4.2939,-4.2901,-4.2787,-4.267,-4.249,-4.2145,-4.1762,-4.1403,-4.1093,-4.06,-4.0288,-4.028,-4.0163,-4.0096,-4.0096,-4.0096,-4.0096,-4.0096,-4.0096,-4.0096,-4.0096,-4.0096,-4.0096,-4.0079,-3.8599,-3.7905,-3.7855,-3.6293,-3.5667,-3.5836,-3.6637,-3.7398,-3.8159,-3.8886,-3.9554,-4.0096,-4.0096,-4.0096,-4.0096,-4.0096,-4.0213,-4.0337,-4.7868,-4.7936,-4.7936,-4.7936,-4.7936,-4.78,-4.7428,-4.7132,-4.6535,-4.5411,-4.5219,-4.501,-4.4649,-4.4615,-4.4615,-4.4615,-4.4615,-4.4615,-4.4615,-4.4615,-4.4615,-4.4615,-4.4615,-4.4615,-4.4615,-4.4615,-4.4012,-4.2878,-4.2489,-4.1728,-4.0646,-4.0282,-4.0096,-4.0096,-4.0096,-4.0096,-4.0096,-4.0096,-4.0096,-4.0096,-4.0096,-4.0096,-4.0096,-4.0096,-4.0096,-4.0096,-4.0096,-4.0096,-4.0096,-4.0096,-4.0096,-4.0096,-4.0096,-4.0121,-4.0213,-4.028,-3.9538,-3.8713,-3.8883,-3.7847,-3.6758,-3.6831,-3.6917,-3.6976,-3.6976,-3.7313,-3.7615,-3.7615,-3.8013,-3.8604,-3.9359,-4.0415,-4.1355,-4.1889,-4.2322,-4.2571,-4.2494,-4.2333,-4.2166,-4.1973,-4.1631,-4.1312,-4.1117,-4.0745,-4.0453,-4.0305,-4.0238,-4.0163,-4.0096,-4.0096,-4.0096,-4.0096,-4.0096,-4.0096,-4.0096,-4.0096,-4.0096,-4.0079,-3.8599,-3.7905,-3.7855,-3.6293,-3.56,-3.5633,-3.6451,-3.7212,-3.799,-3.9106,-3.9791,-4.0096,-4.0096,-4.0096,-4.0096,-4.0096,-4.0188,-4.033,-4.89,-4.9001,-4.9001,-4.9001,-4.9001,-4.8798,-4.821,-4.8125,-4.7564,-4.5923,-4.5703,-4.5415,-4.4682,-4.4615,-4.4615,-4.4615,-4.4615,-4.4615,-4.4615,-4.4615,-4.4615,-4.4615,-4.4615,-4.4615,-4.4615,-4.4615,-4.4198,-4.3392,-4.2658,-4.1914,-4.1187,-4.0468,-4.0096,-4.0096,-4.0096,-4.0096,-4.0096,-4.0096,-4.0096,-4.0096,-4.0096,-4.0096,-4.0096,-4.0096,-4.0096,-4.0096,-4.0096,-4.0096,-4.0096,-4.0096,-4.0096,-4.0096,-4.0096,-4.0096,-4.0138,-4.0213,-3.9287,-3.8224,-3.8376,-3.7314,-3.6193,-3.6215,-3.6199,-3.6144,-3.6144,-3.6191,-3.6237,-3.6237,-3.6861,-3.777,-3.8918,-3.9961,-4.0712,-4.0973,-4.1668,-4.2184,-4.2163,-4.1934,-4.1762,-4.1675,-4.1363,-4.1134,-4.1093,-4.0858,-4.0624,-4.0404,-4.033,-4.0238,-4.0163,-4.0113,-4.0096,-4.0096,-4.0096,-4.0096,-4.0096,-3.9943,-3.9876,-3.9859,-3.8362,-3.7669,-3.7618,-3.6225,-3.56,-3.5633,-3.6265,-3.706,-3.8024,-3.9503,-4.0096,-4.0096,-4.0096,-4.0096,-4.0096,-4.0096,-4.0163,-4.028,-4.8984,-4.9001,-4.9001,-4.9001,-4.9001,-4.8984,-4.8917,-4.89,-4.8139,-4.5991,-4.5703,-4.5415,-4.4682,-4.4615,-4.4615,-4.4615,-4.4615,-4.4615,-4.4615,-4.4615,-4.4615,-4.4615,-4.4615,-4.4615,-4.4615,-4.4615,-4.4198,-4.3392,-4.2658,-4.1914,-4.1187,-4.0468,-4.0096,-4.0096,-4.0096,-4.0096,-4.0096,-4.0096,-4.0096,-4.0096,-4.0096,-4.0096,-4.0096,-4.0096,-4.0096,-4.0096,-4.0096,-4.0096,-4.0096,-4.0096,-4.0096,-4.0096,-4.0096,-4.0096,-4.0096,-4.0113,-3.9537,-3.8935,-3.9074,-3.7976,-3.6848,-3.6956,-3.651,-3.6019,-3.6019,-3.6019,-3.6041,-3.6041,-3.6242,-3.6751,-3.7767,-3.8765,-3.9708,-4.0538,-4.1315,-4.1801,-4.1692,-4.1538,-4.1386,-4.1277,-4.1065,-4.0982,-4.1087,-4.0858,-4.0697,-4.0673,-4.0453,-4.0288,-4.028,-4.0163,-4.0096,-4.0096,-4.0096,-4.0096,-4.0096,-3.9453,-3.9089,-3.9089,-3.7625,-3.6914,-3.688,-3.6011,-3.56,-3.56,-3.5667,-3.6529,-3.8024,-3.9503,-4.0096,-4.0096,-4.0096,-4.0096,-4.0096,-4.0096,-4.0113,-4.0138,-4.9001,-4.9001,-4.9001,-4.9001,-4.9001,-4.9001,-4.9001,-4.9001,-4.8528,-4.7179,-4.665,-4.6075,-4.5331,-4.4886,-4.4615,-4.4615,-4.4615,-4.4615,-4.4615,-4.4615,-4.4615,-4.4615,-4.4615,-4.4615,-4.4615,-4.4615,-4.4445,-4.4113,-4.3335,-4.2591,-4.183,-4.1102,-4.051,-4.013,-4.0544,-4.0493,-4.0096,-4.0096,-4.0096,-4.0096,-4.0096,-4.0096,-4.0096,-4.0096,-4.0096,-4.0096,-4.0096,-4.0096,-4.0096,-4.0096,-4.0096,-4.0096,-4.0096,-4.0096,-4.0096,-4.0096,-3.9588,-3.9012,-3.9078,-3.7977,-3.6847,-3.691,-3.64,-3.5883,-3.5883,-3.5932,-3.5997,-3.5997,-3.6127,-3.6379,-3.6824,-3.7665,-3.8579,-3.9493,-4.0285,-4.0906,-4.1316,-4.1267,-4.1192,-4.1146,-4.0935,-4.0793,-4.084,-4.0697,-4.0583,-4.0583,-4.0485,-4.0387,-4.0288,-4.0163,-4.0096,-4.0096,-4.0096,-3.9893,-3.9453,-3.914,-3.8768,-3.8328,-3.7303,-3.6795,-3.6778,-3.5977,-3.5853,-3.6332,-3.6806,-3.7584,-3.8633,-3.9673,-4.0096,-4.0096,-4.0096,-4.0096,-4.0096,-4.0096,-4.0096,-4.0113,-4.9001,-4.9001,-4.9001,-4.9001,-4.9001,-4.9001,-4.9001,-4.9001,-4.8815,-4.8308,-4.7581,-4.6769,-4.5805,-4.5026,-4.4615,-4.4615,-4.4615,-4.4615,-4.4615,-4.4615,-4.4615,-4.4615,-4.4615,-4.4615,-4.4615,-4.4615,-4.4615,-4.4615,-4.3792,-4.3149,-4.2608,-4.1863,-4.1238,-4.0773,-4.1288,-4.1102,-4.0409,-4.0409,-4.0316,-4.0096,-4.0096,-4.0096,-4.0096,-4.0096,-4.0096,-4.0096,-4.0096,-4.0096,-4.0096,-4.0096,-4.0096,-4.0096,-4.0096,-4.0096,-4.0096,-4.0096,-3.974,-3.9309,-3.9309,-3.842,-3.7405,-3.7161,-3.6604,-3.6022,-3.5801,-3.58,-3.5888,-3.5932,-3.6014,-3.6101,-3.6212,-3.6922,-3.7806,-3.8673,-3.9458,-4.0221,-4.0943,-4.0965,-4.0912,-4.0912,-4.0721,-4.06,-4.0648,-4.051,-4.0461,-4.051,-4.0461,-4.0387,-4.0305,-4.0163,-4.0096,-4.0096,-4.0096,-3.9757,-3.9005,-3.8768,-3.8311,-3.7567,-3.6806,-3.6434,-3.6417,-3.5853,-3.6045,-3.6846,-3.7584,-3.8328,-3.9056,-3.9808,-4.0096,-4.0096,-4.0096,-4.0096,-4.0096,-4.0096,-4.0096,-4.0096,-4.9001,-4.9001,-4.9001,-4.9001,-4.9001,-4.9001,-4.9001,-4.9001,-4.9001,-4.8984,-4.8359,-4.7344,-4.5872,-4.5026,-4.4615,-4.4615,-4.4615,-4.4615,-4.4615,-4.4615,-4.4615,-4.4615,-4.4615,-4.4615,-4.4615,-4.4615,-4.4615,-4.4615,-4.3792,-4.3392,-4.3358,-4.2625,-4.2269,-4.2252,-4.2269,-4.188,-4.1187,-4.1187,-4.0764,-4.0096,-4.0096,-4.0096,-4.0096,-4.0096,-4.0096,-4.0096,-4.0096,-4.0096,-4.0096,-4.0096,-4.0096,-4.0096,-4.0096,-4.0096,-4.0096,-4.0096,-4.0096,-4.0096,-4.0096,-3.9554,-3.8802,-3.8075,-3.733,-3.6592,-3.5769,-3.56,-3.5644,-3.5773,-3.5795,-3.5839,-3.5975,-3.6722,-3.7543,-3.8282,-3.9095,-3.9868,-4.0594,-4.0583,-4.051,-4.051,-4.0387,-4.0355,-4.0485,-4.0387,-4.0355,-4.0485,-4.0362,-4.0305,-4.0305,-4.0163,-4.0096,-4.0096,-4.0096,-3.9757,-3.9005,-3.8278,-3.7533,-3.6795,-3.6011,-3.5616,-3.5616,-3.56,-3.6045,-3.6846,-3.7584,-3.8328,-3.9056,-3.9808,-4.0096,-4.0096,-4.0096,-4.0096,-4.0096,-4.0096,-4.0096,-4.0096,-4.8832,-4.8863,-4.8894,-4.897,-4.9001,-4.9001,-4.9001,-4.9001,-4.9001,-4.9001,-4.8376,-4.7703,-4.7229,-4.6532,-4.6092,-4.6092,-4.6092,-4.6092,-4.6092,-4.5618,-4.5348,-4.5348,-4.4886,-4.4615,-4.4615,-4.4615,-4.4615,-4.4615,-4.4333,-4.3944,-4.3375,-4.3139,-4.2777,-4.2303,-4.2828,-4.2642,-4.1914,-4.1407,-4.1068,-4.0798,-4.0316,-4.0096,-4.0096,-4.0096,-4.0096,-4.0096,-4.0096,-4.0096,-4.0096,-4.0096,-4.0096,-4.0096,-4.0096,-4.0096,-4.0096,-4.0096,-4.0096,-4.0096,-4.0096,-3.9571,-3.8937,-3.87,-3.7726,-3.6745,-3.6468,-3.5994,-3.5622,-3.5644,-3.5667,-3.5689,-3.5839,-3.6502,-3.7297,-3.8123,-3.8933,-3.9703,-4.0456,-4.0534,-4.051,-4.051,-4.0387,-4.033,-4.0362,-4.0238,-4.0188,-4.0221,-4.0188,-4.0213,-4.0305,-4.0163,-4.0096,-4.0096,-4.0096,-3.9495,-3.8261,-3.8024,-3.7263,-3.5994,-3.5718,-3.56,-3.5616,-3.6163,-3.6823,-3.7584,-3.8328,-3.9056,-3.9774,-4.0011,-4.0096,-4.0096,-4.0096,-4.0096,-4.0096,-4.0096,-4.0096,-4.0096,-4.8658,-4.8707,-4.869,-4.8815,-4.8798,-4.8846,-4.8925,-4.8909,-4.894,-4.9001,-4.8612,-4.8294,-4.8294,-4.7902,-4.7394,-4.6836,-4.6786,-4.6786,-4.6786,-4.6363,-4.6109,-4.6109,-4.5652,-4.5309,-4.501,-4.4993,-4.4874,-4.4615,-4.4615,-4.4333,-4.3859,-4.3859,-4.3606,-4.3166,-4.3639,-4.3436,-4.2675,-4.2219,-4.1711,-4.117,-4.0696,-4.0367,-4.0096,-4.0096,-4.0096,-4.0096,-4.0096,-4.0096,-4.0096,-4.0096,-4.0096,-4.0096,-4.0096,-4.0096,-4.0096,-4.0096,-4.0096,-4.0096,-4.0096,-3.9774,-3.9368,-3.9056,-3.8319,-3.7489,-3.6931,-3.618,-3.56,-3.56,-3.56,-3.5707,-3.6101,-3.6548,-3.7216,-3.8306,-3.8925,-3.9511,-4.026,-4.0345,-4.0345,-4.0345,-4.0288,-4.0213,-4.0213,-4.0163,-4.0096,-4.0096,-4.0096,-4.0138,-4.0213,-4.0163,-4.0096,-4.0096,-4.0096,-3.9512,-3.8328,-3.8041,-3.7432,-3.6462,-3.6462,-3.6462,-3.6479,-3.6975,-3.7618,-3.8345,-3.8802,-3.9436,-4.0096,-4.0096,-4.0096,-4.0096,-4.0096,-4.0096,-4.0096,-4.0096,-4.0096,-4.0096,-4.8483,-4.8483,-4.8483,-4.8515,-4.8515,-4.8547,-4.8738,-4.8786,-4.8832,-4.897,-4.897,-4.9001,-4.9001,-4.9001,-4.8443,-4.7056,-4.6938,-4.6938,-4.6938,-4.6887,-4.687,-4.687,-4.6819,-4.6481,-4.5788,-4.5737,-4.5331,-4.4615,-4.4615,-4.4615,-4.4615,-4.4615,-4.4615,-4.4615,-4.4615,-4.4181,-4.3477,-4.3409,-4.2625,-4.1356,-4.1305,-4.0832,-4.018,-4.018,-4.0146,-4.0096,-4.0096,-4.0096,-4.0096,-4.0096,-4.0096,-4.0096,-4.0096,-4.0096,-4.0096,-4.0096,-4.0096,-4.0096,-4.0096,-4.0096,-3.9943,-3.9242,-3.9039,-3.8599,-3.7151,-3.6214,-3.5667,-3.5616,-3.5633,-3.5904,-3.666,-3.688,-3.7405,-3.8768,-3.9039,-3.9334,-4.0011,-4.0096,-4.0096,-4.0096,-4.0096,-4.0096,-4.0096,-4.0096,-4.0096,-4.0096,-4.0096,-4.0096,-4.0096,-4.0096,-4.0096,-4.0096,-4.0096,-3.9757,-3.9005,-3.8328,-3.7956,-3.7905,-3.7905,-3.7905,-3.7905,-3.7956,-3.8345,-3.8988,-3.9039,-3.9486,-4.0096,-4.0096,-4.0096,-4.0096,-4.0096,-4.0096,-4.0096,-4.0096,-4.0096,-4.0096,-4.826,-4.826,-4.8324,-4.8483,-4.8515,-4.8515,-4.8547,-4.8564,-4.8627,-4.8832,-4.8849,-4.8894,-4.9001,-4.9001,-4.8866,-4.8511,-4.8477,-4.8477,-4.8477,-4.7953,-4.7648,-4.7648,-4.7107,-4.6718,-4.6532,-4.5991,-4.5331,-4.4615,-4.4615,-4.4615,-4.4615,-4.4615,-4.4615,-4.4615,-4.4615,-4.4496,-4.4265,-4.3673,-4.3189,-4.2817,-4.2269,-4.1593,-4.0933,-4.0933,-4.0578,-4.0096,-4.0096,-4.0096,-4.0096,-4.0096,-4.0096,-4.0096,-4.0096,-4.0096,-4.0096,-4.0096,-4.0096,-4.0096,-4.0096,-4.0096,-4.0062,-3.9893,-3.9436,-3.8599,-3.7151,-3.666,-3.6332,-3.5718,-3.6096,-3.6552,-3.6761,-3.7726,-3.8582,-3.8937,-3.9462,-3.991,-4.0079,-4.0096,-4.0096,-4.0096,-4.0096,-4.0096,-4.0096,-4.0096,-4.0096,-4.0096,-4.0096,-4.0096,-4.0096,-4.0096,-4.0096,-4.0096,-4.0096,-3.9757,-3.9005,-3.8819,-3.8464,-3.7905,-3.7905,-3.7905,-3.7922,-3.8481,-3.8819,-3.9022,-3.9605,-3.9943,-4.0096,-4.0096,-4.0096,-4.0096,-4.0096,-4.0096,-4.0096,-4.0096,-4.0096,-4.0096,-4.8082,-4.8115,-4.8147,-4.8244,-4.8276,-4.8292,-4.8356,-4.8356,-4.842,-4.8627,-4.8658,-4.869,-4.8767,-4.8846,-4.8925,-4.8925,-4.897,-4.9001,-4.9001,-4.8646,-4.8409,-4.8409,-4.802,-4.7648,-4.731,-4.6583,-4.5669,-4.4615,-4.4615,-4.4615,-4.4615,-4.4615,-4.4615,-4.4615,-4.4615,-4.4615,-4.4581,-4.413,-4.3741,-4.3358,-4.2963,-4.2354,-4.1694,-4.1694,-4.1238,-4.0595,-4.0595,-4.04,-4.0096,-4.0096,-4.0096,-4.0096,-4.0096,-4.0096,-4.0096,-4.0096,-4.0096,-4.0096,-4.0096,-4.0096,-4.0096,-4.0096,-3.9554,-3.8785,-3.7997,-3.7533,-3.7178,-3.6732,-3.7009,-3.7398,-3.7743,-3.8447,-3.9106,-3.9453,-3.9842,-4.0096,-4.0096,-4.0096,-4.0096,-4.0096,-4.0096,-4.0096,-4.0096,-4.0096,-4.0096,-4.0096,-4.0096,-4.0096,-4.0096,-4.0096,-4.0096,-4.0096,-4.0096,-3.991,-3.952,-3.9503,-3.9123,-3.8413,-3.8734,-3.8903,-3.892,-3.9334,-3.9503,-3.9537,-3.9943,-4.0096,-4.0096,-4.0096,-4.0096,-4.0096,-4.0096,-4.0096,-4.0096,-4.0096,-4.0096,-4.0096,-4.8001,-4.8001,-4.8001,-4.8001,-4.8001,-4.8033,-4.8147,-4.8163,-4.8227,-4.842,-4.8452,-4.8452,-4.8483,-4.8658,-4.8738,-4.8738,-4.8846,-4.894,-4.9001,-4.9001,-4.9001,-4.9001,-4.9001,-4.8714,-4.8075,-4.7225,-4.6126,-4.4784,-4.4649,-4.4615,-4.4615,-4.4615,-4.4615,-4.4615,-4.4615,-4.4615,-4.4615,-4.4615,-4.4198,-4.3589,-4.3589,-4.3132,-4.2472,-4.2472,-4.2016,-4.1373,-4.1373,-4.0882,-4.0282,-4.0282,-4.0197,-4.0096,-4.0096,-4.0096,-4.0096,-4.0096,-4.0096,-4.0096,-4.0096,-4.0096,-4.0096,-4.0096,-3.9639,-3.9123,-3.9022,-3.8514,-3.8041,-3.7922,-3.799,-3.8261,-3.887,-3.9089,-3.9385,-3.9994,-4.0096,-4.0096,-4.0096,-4.0096,-4.0096,-4.0096,-4.0096,-4.0096,-4.0096,-4.0096,-4.0096,-4.0096,-4.0096,-4.0096,-4.0096,-4.0096,-4.0096,-4.0096,-4.0096,-4.0096,-4.0096,-4.0096,-3.9791,-3.9157,-3.9808,-4.0096,-4.0096,-4.0096,-4.0096,-4.0096,-4.0096,-4.0096,-4.0096,-4.0096,-4.0096,-4.0096,-4.0096,-4.0096,-4.0096,-4.0096,-4.0096,-4.0096,-4.8001,-4.8001,-4.8001,-4.8001,-4.8001,-4.8001,-4.8033,-4.8033,-4.8082,-4.8227,-4.826,-4.8324,-4.8483,-4.8515,-4.8564,-4.8564,-4.8578,-4.8704,-4.897,-4.9001,-4.9001,-4.9001,-4.9001,-4.8951,-4.8832,-4.7496,-4.638,-4.5534,-4.4919,-4.4615,-4.4615,-4.4615,-4.4615,-4.4615,-4.4615,-4.4615,-4.4615,-4.4615,-4.453,-4.4401,-4.4401,-4.3944,-4.325,-4.325,-4.2777,-4.2117,-4.2117,-4.166,-4.1035,-4.1035,-4.0612,-4.0096,-4.0096,-4.0096,-4.0096,-4.0096,-4.0096,-4.0096,-4.0096,-4.0096,-4.0096,-4.0096,-4.0011,-3.9774,-3.914,-3.8903,-3.865,-3.8041,-3.8396,-3.8853,-3.8971,-3.952,-3.9977,-4.0079,-4.0096,-4.0096,-4.0096,-4.0096,-4.0096,-4.0096,-4.0096,-4.0096,-4.0096,-4.0096,-4.0096,-4.0096,-4.0096,-4.0096,-4.0096,-4.0096,-4.0096,-4.0096,-4.0096,-4.0096,-4.0096,-4.0096,-4.0045,-3.9943,-4.0045,-4.0096,-4.0096,-4.0096,-4.0096,-4.0096,-4.0096,-4.0096,-4.0096,-4.0096,-4.0096,-4.0096,-4.0096,-4.0096,-4.0096,-4.0096,-4.0096,-4.0096,-4.8001,-4.8001,-4.8001,-4.8001,-4.8001,-4.8001,-4.8001,-4.8001,-4.8033,-4.8082,-4.8082,-4.8115,-4.8212,-4.8308,-4.8324,-4.8324,-4.8452,-4.8578,-4.8704,-4.8815,-4.8894,-4.8894,-4.894,-4.8815,-4.8426,-4.775,-4.6853,-4.5703,-4.5348,-4.4976,-4.4615,-4.4615,-4.4615,-4.4615,-4.4615,-4.4615,-4.4615,-4.4615,-4.4615,-4.4615,-4.4615,-4.4395,-4.4045,-4.4045,-4.3572,-4.2895,-4.2895,-4.2422,-4.1728,-4.1339,-4.0967,-4.0612,-4.0231,-4.0096,-4.0096,-4.0096,-4.0096,-4.0096,-4.0096,-4.0096,-4.0096,-4.0096,-4.0096,-4.0011,-3.9673,-3.9605,-3.9503,-3.9165,-3.9368,-3.9605,-3.9605,-3.9876,-4.0096,-4.0096,-4.0096,-4.0096,-4.0096,-4.0096,-4.0096,-4.0096,-4.0096,-4.0096,-4.0096,-4.0096,-4.0096,-4.0096,-4.0096,-4.0096,-4.0096,-4.0096,-4.0096,-4.0096,-4.0096,-4.0096,-4.0096,-4.0096,-4.0096,-4.0096,-4.0096,-4.0096,-4.0096,-4.0096,-4.0096,-4.0096,-4.0096,-4.0096,-4.0096,-4.0096,-4.0096,-4.0096,-4.0096,-4.0096,-4.0096,-4.0096,-4.0096,-4.0096,-4.8514,-4.8514,-4.8514,-4.8514,-4.8382,-4.8266,-4.8266,-4.8117,-4.8001,-4.8001,-4.8001,-4.8001,-4.8001,-4.8082,-4.813,-4.813,-4.8292,-4.8388,-4.8388,-4.8564,-4.8675,-4.8738,-4.8863,-4.8686,-4.8129,-4.7973,-4.7361,-4.621,-4.6041,-4.5585,-4.4869,-4.4869,-4.4767,-4.4615,-4.4615,-4.4615,-4.4615,-4.4615,-4.4615,-4.4615,-4.4615,-4.4615,-4.4615,-4.4615,-4.4215,-4.369,-4.369,-4.32,-4.2472,-4.1914,-4.161,-4.1322,-4.0578,-4.0367,-4.0333,-4.0146,-4.0096,-4.0096,-4.0096,-4.0096,-4.0096,-4.0096,-4.0096,-4.0096,-4.0096,-4.0096,-4.0096,-4.0096,-4.0096,-4.0096,-4.0096,-4.0096,-4.0096,-4.0096,-4.0096,-4.0096,-4.0096,-4.0096,-4.0096,-4.0096,-4.0096,-4.0096,-4.0096,-4.0096,-4.0096,-4.0096,-4.0096,-4.0096,-4.0096,-4.0096,-4.0096,-4.0096,-4.0096,-4.0096,-4.0096,-4.0096,-4.0096,-4.0096,-4.0096,-4.0096,-4.0096,-4.0096,-4.0096,-4.0096,-4.0096,-4.0096,-4.0096,-4.0096,-4.0096,-4.0096,-4.0096,-4.0096,-4.0096,-4.0096,-4.0096,-4.0096,-5.0055,-5.0055,-5.0055,-5.0055,-4.9475,-4.9028,-4.9028,-4.8448,-4.8001,-4.8001,-4.8001,-4.8001,-4.8001,-4.8001,-4.8001,-4.8001,-4.8033,-4.8033,-4.8033,-4.8179,-4.8324,-4.8515,-4.8707,-4.8784,-4.8733,-4.8183,-4.7838,-4.772,-4.7056,-4.6346,-4.5618,-4.5618,-4.5246,-4.4615,-4.4615,-4.4615,-4.4615,-4.4615,-4.4615,-4.4615,-4.4615,-4.4615,-4.4615,-4.4615,-4.4564,-4.4513,-4.4513,-4.3995,-4.3291,-4.324,-4.2794,-4.2083,-4.1356,-4.1119,-4.0984,-4.0316,-4.0096,-4.0096,-4.0096,-4.0096,-4.0096,-4.0096,-4.0096,-4.0096,-4.0096,-4.0096,-4.0096,-4.0096,-4.0096,-4.0096,-4.0096,-4.0096,-4.0096,-4.0096,-4.0096,-4.0096,-4.0096,-4.0096,-4.0096,-4.0096,-4.0096,-4.0096,-4.0096,-4.0096,-4.0096,-4.0096,-4.0096,-4.0096,-4.0096,-4.0096,-4.0096,-4.0096,-4.0096,-4.0096,-4.0096,-4.0096,-4.0096,-4.0096,-4.0096,-4.0096,-4.0096,-4.0096,-4.0096,-4.0096,-4.0096,-4.0096,-4.0096,-4.0096,-4.0096,-4.0096,-4.0096,-4.0096,-4.0096,-4.0096,-4.0096,-4.0096,-5.022,-5.022,-5.022,-5.022,-4.9988,-4.9641,-4.9177,-4.8862,-4.8531,-4.8067,-4.8001,-4.8001,-4.8001,-4.8001,-4.8001,-4.8001,-4.8001,-4.8001,-4.8001,-4.8066,-4.8212,-4.8483,-4.8578,-4.8627,-4.8627,-4.839,-4.8051,-4.7597,-4.7386,-4.6924,-4.6199,-4.6199,-4.6047,-4.5744,-4.5206,-4.4976,-4.4942,-4.4586,-4.4412,-4.4423,-4.4542,-4.4615,-4.4615,-4.4615,-4.4615,-4.4615,-4.4615,-4.4412,-4.4062,-4.3589,-4.3189,-4.2861,-4.2117,-4.1576,-4.1068,-4.0333,-4.0096,-4.0096,-4.0096,-4.0096,-4.0096,-4.0096,-4.0096,-4.0096,-4.0096,-4.0096,-4.0096,-4.0096,-4.0096,-4.0096,-4.0096,-4.0096,-4.0096,-4.0096,-4.0096,-4.0096,-4.0096,-4.0096,-4.0096,-4.0096,-4.0096,-4.0096,-4.0096,-4.0096,-4.0096,-4.0096,-4.0096,-4.0096,-4.0096,-4.0096,-4.0096,-4.0096,-4.0096,-4.0096,-4.0096,-4.0096,-4.0096,-4.0096,-4.0096,-4.0096,-4.0096,-4.0096,-4.0096,-4.0096,-4.0096,-4.0096,-4.0096,-4.0096,-4.0096,-4.0096,-4.0096,-4.0096,-4.0096,-4.0096,-4.0096,-4.0096,-5.0899,-5.0899,-5.0899,-5.0899,-5.0701,-5.0369,-4.9872,-4.9409,-4.8928,-4.8415,-4.815,-4.8001,-4.8001,-4.8001,-4.8001,-4.8001,-4.8001,-4.8001,-4.8001,-4.8001,-4.8099,-4.8324,-4.8388,-4.842,-4.842,-4.8483,-4.8232,-4.7747,-4.7824,-4.7499,-4.6777,-4.6777,-4.666,-4.6408,-4.5818,-4.554,-4.549,-4.4867,-4.4577,-4.456,-4.4485,-4.4429,-4.4457,-4.4485,-4.4514,-4.4497,-4.457,-4.4615,-4.453,-4.3961,-4.3792,-4.3639,-4.2878,-4.2134,-4.1407,-4.0646,-4.0468,-4.0375,-4.0163,-4.0096,-4.0096,-4.0096,-4.0096,-4.0096,-4.0096,-4.0096,-4.0096,-4.0096,-4.0096,-4.0096,-4.0096,-4.0096,-4.0096,-4.0096,-4.0096,-4.0096,-4.0096,-4.0096,-4.0096,-4.0096,-4.0096,-4.0096,-4.0096,-4.0096,-4.0096,-4.0096,-4.0096,-4.0096,-4.0096,-4.0096,-4.0096,-4.0096,-4.0096,-4.0096,-4.0096,-4.0096,-4.0096,-4.0096,-4.0096,-4.0096,-4.0096,-4.0096,-4.0096,-4.0096,-4.0096,-4.0096,-4.0096,-4.0096,-4.0096,-4.0096,-4.0096,-4.0096,-4.0096,-4.0096,-4.0096,-4.0096,-5.2409,-5.2409,-5.2409,-5.2409,-5.1796,-5.1315,-5.1315,-5.0055,-4.9127,-4.911,-4.8465,-4.8017,-4.8001,-4.8001,-4.8001,-4.8001,-4.8001,-4.8001,-4.8001,-4.8001,-4.8001,-4.8001,-4.8115,-4.8195,-4.8195,-4.8388,-4.8483,-4.8483,-4.8515,-4.8115,-4.7412,-4.7412,-4.7013,-4.631,-4.631,-4.631,-4.626,-4.5524,-4.5206,-4.5139,-4.4415,-4.4114,-4.4114,-4.4253,-4.431,-4.4338,-4.4542,-4.4615,-4.4615,-4.4615,-4.4615,-4.4479,-4.3656,-4.2912,-4.2151,-4.1424,-4.1204,-4.1035,-4.0316,-4.0096,-4.0096,-4.0096,-4.0096,-4.0096,-4.0096,-4.0096,-4.0096,-4.0096,-4.0096,-4.0096,-4.0096,-4.0096,-4.0096,-4.0096,-4.0096,-4.0096,-4.0096,-4.0096,-4.0096,-4.0096,-4.0096,-4.0096,-4.0096,-4.0096,-4.0096,-4.0096,-4.0096,-4.0096,-4.0096,-4.0096,-4.0096,-4.0096,-4.0096,-4.0096,-4.0096,-4.0096,-4.0096,-4.0096,-4.0096,-4.0096,-4.0096,-4.0096,-4.0096,-4.0096,-4.0096,-4.0096,-4.0096,-4.0096,-4.0096,-4.0096,-4.0096,-4.0096,-4.0096,-4.0096,-4.0096,-4.0096,-5.2409,-5.2409,-5.2409,-5.2409,-5.2227,-5.1912,-5.1398,-5.0951,-5.0253,-4.9243,-4.8912,-4.858,-4.8067,-4.8001,-4.8001,-4.8001,-4.8001,-4.8001,-4.8001,-4.8001,-4.8001,-4.8001,-4.8033,-4.8049,-4.8049,-4.8115,-4.8147,-4.8147,-4.8227,-4.8192,-4.7975,-4.7975,-4.7826,-4.761,-4.6999,-4.6703,-4.6684,-4.6012,-4.5757,-4.5707,-4.5109,-4.4884,-4.4834,-4.4356,-4.4224,-4.431,-4.4367,-4.4468,-4.4615,-4.4615,-4.4615,-4.4479,-4.3656,-4.3267,-4.2929,-4.2185,-4.161,-4.1153,-4.0933,-4.0476,-4.0096,-4.0096,-4.0096,-4.0096,-4.0096,-4.0096,-4.0096,-4.0096,-4.0096,-4.0096,-4.0096,-4.0096,-4.0096,-4.0096,-4.0096,-4.0096,-4.0096,-4.0096,-4.0096,-4.0096,-4.0096,-4.0096,-4.0096,-4.0096,-4.0096,-4.0096,-4.0096,-4.0096,-4.0096,-4.0096,-4.0096,-4.0096,-4.0096,-4.0096,-4.0096,-4.0096,-4.0096,-4.0096,-4.0096,-4.0096,-4.0096,-4.0096,-4.0096,-4.0096,-4.0096,-4.0096,-4.0096,-4.0096,-4.0096,-4.0096,-4.0096,-4.0096,-4.0096,-4.0096,-4.0096,-4.0096,-5.2373,-5.2409,-5.2409,-5.2409,-5.2409,-5.226,-5.1812,-5.1498,-5.1,-5.0088,-4.9723,-4.926,-4.8531,-4.8448,-4.8315,-4.8034,-4.8001,-4.8001,-4.8001,-4.8001,-4.8001,-4.8001,-4.8001,-4.8001,-4.8001,-4.8001,-4.8001,-4.8001,-4.8082,-4.8115,-4.8115,-4.8115,-4.8115,-4.8098,-4.7553,-4.7338,-4.7289,-4.6621,-4.6369,-4.6302,-4.5679,-4.5243,-4.4973,-4.4582,-4.429,-4.4155,-4.4196,-4.4298,-4.44,-4.4468,-4.4542,-4.453,-4.4028,-4.3876,-4.3724,-4.2963,-4.2368,-4.1926,-4.1649,-4.0972,-4.0399,-4.045,-4.0282,-4.0096,-4.0096,-4.0096,-4.0096,-4.0096,-4.0096,-4.0096,-4.0096,-4.0096,-4.0096,-4.0096,-4.0096,-4.0096,-4.0096,-4.0096,-4.0096,-4.0096,-4.0096,-4.0096,-4.0096,-4.0096,-4.0096,-4.0096,-4.0096,-4.0096,-4.0096,-4.0096,-4.0096,-4.0096,-4.0096,-4.0096,-4.0096,-4.0096,-4.0096,-4.0096,-4.0096,-4.0096,-4.0096,-4.0096,-4.0096,-4.0096,-4.0096,-4.0096,-4.0096,-4.0096,-4.0096,-4.0096,-4.0096,-4.0096,-4.0096,-4.0096,-4.0096,-4.0096,-5.2318,-5.2373,-5.239,-5.239,-5.2409,-5.2409,-5.2409,-5.1846,-5.1382,-5.1315,-5.0717,-5.0038,-4.9293,-4.921,-4.8945,-4.8266,-4.815,-4.8067,-4.8001,-4.8001,-4.8001,-4.8001,-4.8001,-4.8001,-4.8001,-4.8001,-4.8001,-4.8001,-4.8001,-4.8001,-4.8001,-4.8001,-4.8001,-4.8001,-4.8001,-4.8001,-4.7968,-4.7272,-4.699,-4.6924,-4.6195,-4.5483,-4.4901,-4.4973,-4.4617,-4.411,-4.4144,-4.4169,-4.4227,-4.427,-4.4412,-4.4559,-4.4559,-4.4559,-4.4406,-4.3669,-4.3322,-4.3054,-4.2364,-4.156,-4.091,-4.0975,-4.0568,-4.0155,-4.0113,-4.0096,-4.0096,-4.0096,-4.0096,-4.0096,-4.0096,-4.0096,-4.0096,-4.0096,-4.0096,-4.0096,-4.0096,-4.0096,-4.0096,-4.0096,-4.0096,-4.0096,-4.0096,-4.0096,-4.0096,-4.0096,-4.0096,-4.0096,-4.0096,-4.0096,-4.0096,-4.0096,-4.0096,-4.0096,-4.0096,-4.0096,-4.0096,-4.0096,-4.0096,-4.0096,-4.0096,-4.0096,-4.0096,-4.0096,-4.0096,-4.0096,-4.0096,-4.0096,-4.0096,-4.0096,-4.0096,-4.0096,-4.0096,-4.0096,-4.0096,-4.0096,-5.2102,-5.2175,-5.2211,-5.2373,-5.2409,-5.2409,-5.2409,-5.2277,-5.1962,-5.1398,-5.1166,-5.0767,-5.0055,-4.9972,-4.9906,-4.9756,-4.9193,-4.863,-4.8034,-4.8001,-4.8001,-4.8001,-4.8001,-4.8001,-4.8001,-4.8001,-4.8001,-4.8001,-4.8001,-4.8001,-4.8001,-4.8001,-4.8001,-4.8001,-4.8001,-4.8001,-4.7984,-4.7835,-4.7769,-4.7703,-4.6957,-4.656,-4.6344,-4.5796,-4.5573,-4.548,-4.4913,-4.4849,-4.4884,-4.4327,-4.4184,-4.4229,-4.4229,-4.4229,-4.4179,-4.3982,-4.3529,-4.3015,-4.2847,-4.225,-4.1536,-4.0977,-4.0745,-4.0555,-4.018,-4.0096,-4.0096,-4.0096,-4.0096,-4.0096,-4.0096,-4.0096,-4.0096,-4.0096,-4.0096,-4.0096,-4.0096,-4.0096,-4.0096,-4.0096,-4.0096,-4.0096,-4.0096,-4.0096,-4.0096,-4.0096,-4.0096,-4.0096,-4.0096,-4.0096,-4.0096,-4.0096,-4.0096,-4.0096,-4.0096,-4.0096,-4.0096,-4.0096,-4.0096,-4.0096,-4.0096,-4.0096,-4.0096,-4.0096,-4.0096,-4.0096,-4.0096,-4.0096,-4.0096,-4.0096,-4.0096,-4.0096,-4.0096,-4.0096,-4.0096,-4.0096,-5.1721,-5.1811,-5.1868,-5.2086,-5.2194,-5.2247,-5.2247,-5.2354,-5.2277,-5.1895,-5.1829,-5.1529,-5.08,-5.0717,-5.0585,-5.0237,-4.9856,-4.9326,-4.858,-4.8531,-4.8365,-4.8017,-4.8001,-4.8001,-4.8001,-4.8001,-4.8001,-4.8001,-4.8001,-4.8001,-4.8001,-4.8001,-4.8001,-4.8001,-4.8001,-4.8001,-4.8001,-4.8001,-4.8001,-4.7968,-4.7587,-4.7206,-4.6858,-4.646,-4.6159,-4.5839,-4.5474,-4.5216,-4.4987,-4.4603,-4.4294,-4.4097,-4.4097,-4.4097,-4.4097,-4.4097,-4.3772,-4.3442,-4.3442,-4.2822,-4.2099,-4.1783,-4.1476,-4.0996,-4.0111,-3.9893,-3.9893,-3.9893,-3.9893,-3.9893,-3.9893,-3.9961,-4.0011,-4.0011,-4.0062,-4.0096,-4.0096,-4.0096,-4.0096,-4.0096,-4.0096,-4.0096,-4.0096,-4.0096,-4.0096,-4.0096,-4.0096,-4.0096,-4.0096,-4.0096,-4.0096,-4.0096,-4.0096,-4.0096,-4.0096,-4.0096,-4.0096,-4.0096,-4.0096,-4.0096,-4.0096,-4.0096,-4.0096,-4.0096,-4.0096,-4.0096,-4.0096,-4.0096,-4.0096,-4.0096,-4.0096,-4.0096,-4.0096,-4.0096,-4.0096,-4.0096,-5.1092,-5.1258,-5.1371,-5.1577,-5.1815,-5.1993,-5.1993,-5.2175,-5.2302,-5.2302,-5.2302,-5.207,-5.1494,-5.1462,-5.1181,-5.0452,-5.0402,-5.0088,-4.9342,-4.9293,-4.9028,-4.8415,-4.8382,-4.8382,-4.8382,-4.8382,-4.8249,-4.8001,-4.8001,-4.8001,-4.8001,-4.8001,-4.8001,-4.8001,-4.8001,-4.8001,-4.8001,-4.8001,-4.8001,-4.8001,-4.8001,-4.7636,-4.709,-4.709,-4.6709,-4.6146,-4.603,-4.5609,-4.5069,-4.5069,-4.476,-4.4361,-4.4227,-4.4194,-4.4177,-4.4044,-4.3939,-4.3868,-4.3868,-4.3285,-4.2667,-4.2663,-4.2259,-4.1505,-4.0258,-3.9936,-3.9854,-3.9737,-3.9703,-3.9703,-3.9703,-3.9781,-3.9875,-3.9901,-3.9986,-4.007,-4.0113,-4.0096,-4.0096,-4.0096,-4.0096,-4.0096,-4.0096,-4.0096,-4.0096,-4.0096,-4.0096,-4.0096,-4.0096,-4.0096,-4.0096,-4.0096,-4.0096,-4.0096,-4.0096,-4.0096,-4.0096,-4.0096,-4.0096,-4.0096,-4.0096,-4.0096,-4.0096,-4.0096,-4.0096,-4.0096,-4.0096,-4.0096,-4.0096,-4.0096,-4.0096,-4.0096,-4.0096,-4.0096,-4.0096,-4.0096,-5.0042,-5.0409,-5.0717,-5.0876,-5.1301,-5.1573,-5.1573,-5.1758,-5.1888,-5.1888,-5.1888,-5.1908,-5.199,-5.217,-5.1962,-5.1232,-5.1166,-5.0833,-5.0104,-5.0071,-5.0021,-4.9922,-4.9906,-4.9906,-4.9906,-4.9906,-4.9293,-4.8001,-4.8001,-4.8001,-4.8001,-4.8001,-4.8001,-4.8001,-4.8001,-4.8001,-4.8001,-4.8001,-4.8001,-4.8001,-4.8001,-4.7934,-4.7852,-4.7852,-4.7785,-4.762,-4.6974,-4.631,-4.568,-4.568,-4.5645,-4.5445,-4.4799,-4.463,-4.4483,-4.3853,-4.3658,-4.3628,-4.3628,-4.3562,-4.3284,-4.2684,-4.2452,-4.2199,-4.1382,-4.0894,-4.0464,-3.9837,-3.9703,-3.9703,-3.9703,-3.9703,-3.9755,-3.9875,-3.9926,-3.9961,-4.007,-4.0096,-4.0096,-4.0096,-4.0096,-4.0096,-4.0096,-4.0096,-4.0096,-4.0096,-4.0096,-4.0096,-4.0096,-4.0096,-4.0096,-4.0096,-4.0096,-4.0096,-4.0096,-4.0096,-4.0096,-4.0096,-4.0096,-4.0096,-4.0096,-4.0096,-4.0096,-4.0096,-4.0096,-4.0096,-4.0096,-4.0096,-4.0096,-4.0096,-4.0096,-4.0096,-4.0096,-4.0096,-4.0096,-4.0096,-4.9269,-4.9454,-4.971,-5.0081,-5.0393,-5.064,-5.0771,-5.0962,-5.1097,-5.1247,-5.1247,-5.1376,-5.1721,-5.205,-5.2115,-5.1784,-5.1858,-5.1614,-5.085,-5.08,-5.0634,-5.0237,-5.022,-5.022,-5.022,-5.022,-4.9889,-4.9243,-4.8829,-4.8415,-4.8001,-4.8001,-4.8001,-4.8001,-4.8001,-4.8001,-4.8001,-4.8001,-4.8001,-4.8001,-4.8001,-4.8001,-4.8001,-4.8001,-4.8001,-4.7968,-4.7636,-4.704,-4.6411,-4.6411,-4.6129,-4.5732,-4.5417,-4.5301,-4.5152,-4.4423,-4.4224,-4.4125,-4.3698,-4.3598,-4.3515,-4.3184,-4.3102,-4.292,-4.2175,-4.1875,-4.1555,-4.0806,-4.034,-4.0101,-4.0101,-3.9821,-3.9616,-3.9685,-3.9746,-3.9807,-3.9884,-3.9884,-3.991,-3.9986,-3.9986,-4.0011,-4.0096,-4.0096,-4.0096,-4.0096,-4.0096,-4.0096,-4.0096,-4.0096,-4.0096,-4.0096,-4.0096,-4.0096,-4.0096,-4.0096,-4.0096,-4.0096,-4.0096,-4.0096,-4.0096,-4.0096,-4.0096,-4.0096,-4.0096,-4.0096,-4.0096,-4.0096,-4.0096,-4.0096,-4.0096,-4.0096,-4.0096,-4.0096,-4.0096,-4.0096]},{"header":{"parameterUnit":"m.s-1","parameterCategory":1,"la1":30.6,"la2":28.766,"lo1":-90.7593,"lo2":-88.6598,"dy":0.0162,"dx":0.0183,"nx":116,"ny":114,"refTime":"2024-07-05T00:00:00:Z","depth":0,"parameterNumber":3,"parameterNumberName":"V-component_of_WINDS"},"data":[0.0,0.0,0.0,0.0,0.0,0.0,0.0,0.0,0.0,0.0,0.0,0.0,0.0,0.0,0.0,0.0,0.0,0.0,0.0,0.0,0.0,0.0,0.0,0.0,0.0,0.0,0.0,0.0,0.0,0.0,0.0,0.0,0.0,0.0,0.0,0.0,0.0,0.0,0.0,0.0,0.0,0.0,0.0,0.0,0.0,0.0,0.0,0.0,0.0,0.0,0.0,0.0,0.0,0.0,0.0,0.0,0.0,0.0,0.0,0.0,0.0,0.0,0.0,0.0,0.0,0.0,0.0,0.0,0.0,0.0,0.0,0.0,0.0,0.0,0.0,0.0,0.0,0.0,0.0,0.0,0.0,0.0,0.0,0.0,0.0,0.0,0.0,0.0,0.0,0.0,0.0,0.0,0.0,0.0,0.0,0.0,0.0,0.0,0.0,0.0,0.0,0.0,0.0,0.0,0.0,0.0,0.0,0.0,0.0,0.0,0.0,0.0,0.0,0.0,0.0,0.0,0.0,0.0,0.0,0.0,0.0,0.0,0.0,0.0,0.0,0.0,0.0,0.0,0.0,0.0,0.0,0.0,0.0,0.0,0.0,0.0,0.0,0.0,0.0,0.0,0.0,0.0,0.0,0.0,0.0,0.0,0.0,0.0,0.0,0.0,0.0,0.0,0.0,0.0,0.0,0.0,0.0,0.0,0.0,0.0,0.0,0.0,0.0,0.0,0.0,0.0,0.0,0.0,0.0,0.0,0.0,0.0,0.0,0.0,0.0,0.0,0.0,0.0,0.0,0.0,0.0,0.0,0.0,0.0,0.0,0.0,0.0,0.0,0.0,0.0,0.0,0.0,0.0,0.0,0.0,0.0,0.0,0.0,0.0,0.0,0.0,0.0,0.0,0.0,0.0,0.0,0.0,0.0,0.0,0.0,0.0,0.0,0.0,0.0,0.0,0.0,0.0,0.0,0.0,0.0,0.0,0.0,0.0,0.0,0.0,0.0,0.0,0.0,0.0,0.0,0.0,0.0,0.0,0.0,0.0,0.0,0.0,0.0,0.0,0.0,0.0,0.0,0.0,0.0,0.0,0.0,0.0,0.0,0.0,0.0,0.0,0.0,0.0,0.0,0.0,0.0,0.0,0.0,0.0,0.0,0.0,0.0,0.0,0.0,0.0,0.0,0.0,0.0,0.0,0.0,0.0,0.0,0.0,0.0,0.0,0.0,0.0,0.0,0.0,0.0,0.0,0.0,0.0,0.0,0.0,0.0,0.0,0.0,0.0,0.0,0.0,0.0,0.0,0.0,0.0,0.0,0.0,0.0,0.0,0.0,0.0,0.0,0.0,0.0,0.0,0.0,0.0,0.0,0.0,0.0,0.0,0.0,0.0,0.0,0.0,0.0,0.0,0.0,0.0,0.0,0.0,0.0,0.0,0.0,0.0,0.0,0.0,0.0,0.0,0.0,0.0,0.0,0.0,0.0,0.0,0.0,0.0,0.0,0.0,0.0,0.0,0.0,0.0,0.0,0.0,0.0,0.0,0.0,0.0,0.0,0.0,0.0,0.0,0.0,0.0,0.0,0.0,0.0,0.0,0.0,0.0,0.0,0.0,0.0,0.0,0.0,0.0,0.0,0.0,0.0,0.0,0.0,0.0,0.0,0.0,0.0,0.0,0.0,0.0,0.0,0.0,0.0,0.0,0.0,0.0,0.0,0.0,0.0,0.0,0.0,0.0,0.0,0.0,0.0,0.0,0.0,0.0,0.0,0.0,0.0,0.0,0.0,0.0,0.0,0.0,0.0,0.0,0.0,0.0,0.0,0.0,0.0,0.0,0.0,0.0,0.0,0.0,0.0,0.0,0.0,0.0,0.0,0.0,0.0,0.0,0.0,0.0,0.0,0.0,0.0,0.0,0.0,0.0,0.0,0.0,0.0,0.0,0.0,0.0,0.0,0.0,0.0,0.0,0.0,0.0,0.0,0.0,0.0,0.0,0.0,0.0,0.0,0.0,0.0,0.0,0.0,0.0,0.0,0.0,0.0,0.0,0.0,0.0,0.0,0.0,0.0,0.0,0.0,0.0,0.0,0.0,0.0,0.0,0.0,0.0,0.0,0.0,0.0,0.0,0.0,0.0,0.0,0.0,0.0,0.0,0.0,0.0,0.0,0.0,0.0,0.0,0.0,0.0,0.0,0.0,0.0,0.0,0.0,0.0,0.0,0.0,0.0,0.0,0.0,0.0,0.0,0.0,0.0,0.0,0.0,0.0,0.0,0.0,0.0,0.0,0.0,0.0,0.0,0.0,0.0,0.0,0.0,0.0,0.0,0.0,0.0,0.0,0.0,0.0,0.0,0.0,0.0,0.0,0.0,0.0,0.0,0.0,0.0,0.0,0.0,0.0,0.0,0.0,0.0,0.0,0.0,0.0,0.0,0.0,0.0,0.0,0.0,0.0,0.0,0.0,0.0,0.0,0.0,0.0,0.0,0.0,0.0,0.0,0.0,0.0,0.0,0.0,0.0,0.0,0.0,0.0,0.0,0.0,0.0,0.0,0.0,0.0,0.0,0.0,0.0,0.0,0.0,0.0,0.0,0.0,0.0,0.0,0.0,0.0,0.0,0.0,0.0,0.0,0.0,0.0,0.0,0.0,0.0,0.0,0.0,0.0,0.0,0.0,0.0,0.0,0.0,0.0,0.0,0.0,0.0,0.0,0.0,0.0,0.0,0.0,0.0,0.0,0.0,0.0,0.0,0.0,0.0,0.0,0.0,0.0,0.0,0.0,0.0,0.0,0.0,0.0,0.0,0.0,0.0,0.0,0.0,0.0,0.0,0.0,0.0,0.0,0.0,0.0,0.0,0.0,0.0,0.0,0.0,0.0,0.0,0.0,0.0,0.0,0.0,0.0,0.0,0.0,0.0,0.0,0.0,0.0,0.0,0.0,0.0,0.0,0.0,0.0,0.0,0.0,0.0,0.0,0.0,0.0,0.0,0.0,0.0,0.0,0.0,0.0,0.0,0.0,0.0,0.0,0.0,0.0,0.0,0.0,0.0,0.0,0.0,0.0,0.0,0.0,0.0,0.0,0.0,0.0,0.0,0.0,0.0,0.0,0.0,0.0,0.0,0.0,0.0,0.0,0.0,0.0,0.0,0.0,0.0,0.0,0.0,0.0,0.0,0.0,0.0,0.0,0.0,0.0,0.0,0.0,0.0,0.0,0.0,0.0,0.0,0.0,0.0,0.0,0.0,0.0,0.0,0.0,0.0,0.0,0.0,0.0,0.0,0.0,0.0,0.0,0.0,0.0,0.0,0.0,0.0,0.0,0.0,0.0,0.0,0.0,0.0,0.0,0.0,0.0,0.0,0.0,0.0,0.0,0.0,0.0,0.0,0.0,0.0,0.0,0.0,0.0,0.0,0.0,0.0,0.0,0.0,0.0,0.0,0.0,0.0,0.0,0.0,0.0,0.0,0.0,0.0,0.0,0.0,0.0,0.0,0.0,0.0,0.0,0.0,0.0,0.0,0.0,0.0,0.0,0.0,0.0,0.0,0.0,0.0,0.0,0.0,0.0,0.0,0.0,0.0,0.0,0.0,0.0,0.0,0.0,0.0,0.0,0.0,0.0,0.0,0.0,0.0,0.0,0.0,0.0,0.0,0.0,0.0,0.0,0.0,0.0,0.0,0.0,0.0,0.0,0.0,0.0,0.0,0.0,0.0,0.0,0.0,0.0,0.0,0.0,0.0,0.0,0.0,0.0,0.0,0.0,0.0,0.0,0.0,0.0,0.0,0.0,0.0,0.0,0.0,0.0,0.0,0.0,0.0,0.0,0.0,0.0,0.0,0.0,0.0,0.0,0.0,0.0,0.0,0.0,0.0,0.0,0.0,0.0,0.0,0.0,0.0,0.0,0.0,0.0,0.0,0.0,0.0,0.0,0.0,0.0,0.0,0.0,0.0,0.0,0.0,0.0,0.0,0.0,0.0,0.0,0.0,0.0,0.0,0.0,0.0,0.0,0.0,0.0,0.0,0.0,0.0,0.0,0.0,0.0,0.0,0.0,0.0,0.0,0.0,0.0,0.0,0.0,0.0,0.0,0.0,0.0,0.0,0.0,0.0,0.0,0.0,0.0,0.0,0.0,0.0,0.0,0.0,0.0,0.0,0.0,0.0,0.0,0.0,0.0,0.0,0.0,0.0,0.0,0.0,0.0,0.0,0.0,0.0,0.0,0.0,0.0,0.0,0.0,0.0,0.0,0.0,0.0,0.0,0.0,0.0,0.0,0.0,0.0,0.0,0.0,0.0,0.0,0.0,0.0,0.0,0.0,0.0,0.0,0.0,0.0,0.0,0.0,0.0,0.0,0.0,0.0,0.0,0.0,0.0,0.0,0.0,0.0,0.0,0.0,0.0,0.0,0.0,0.0,0.0,0.0,0.0,0.0,0.0,0.0,0.0,0.0,0.0,0.0,0.0,0.0,0.0,0.0,0.0,0.0,0.0,0.0,0.0,0.0,0.0,0.0,0.0,0.0,0.0,0.0,0.0,0.0,0.0,0.0,0.0,0.0,0.0,0.0,0.0,0.0,0.0,0.0,0.0,0.0,0.0,0.0,0.0,0.0,0.0,0.0,0.0,0.0,0.0,0.0,0.0,0.0,0.0,0.0,0.0,0.0,0.0,0.0,0.0,0.0,0.0,0.0,0.0,0.0,0.0,0.0,0.0,0.0,0.0,0.0,0.0,0.0,0.0,0.0,0.0,0.0,0.0,0.0,0.0,0.0,0.0,0.0,0.0,0.0,0.0,0.0,0.0,0.0,0.0,0.0,0.0,0.0,0.0,0.0,0.0,0.0,0.0,0.0,0.0,0.0,0.0,0.0,0.0,0.0,0.0,0.0,0.0,0.0,0.0,0.0,0.0,0.0,0.0,0.0,0.0,0.0,0.0,0.0,0.0,0.0,0.0,0.0,0.0,0.0,0.0,0.0,0.0,0.0,0.0,0.0,0.0,0.0,0.0,0.0,0.0,0.0,0.0,0.0,0.0,0.0,0.0,0.0,0.0,0.0,0.0,0.0,0.0,0.0,0.0,0.0,0.0,0.0,0.0,0.0,0.0,0.0,0.0,0.0,0.0,0.0,0.0,0.0,0.0,0.0,0.0,0.0,0.0,0.0,0.0,0.0,0.0,0.0,0.0,0.0,0.0,0.0,0.0,0.0,0.0,0.0,0.0,0.0,0.0,0.0,0.0,0.0,0.0,0.0,0.0,0.0,0.0,0.0,0.0,0.0,0.0,0.0,0.0,0.0,0.0,0.0,0.0,0.0,0.0,0.0,0.0,0.0,0.0,0.0,0.0,0.0,0.0,0.0,0.0,0.0,0.0,0.0,0.0,0.0,0.0,0.0,0.0,0.0,0.0,0.0,0.0,0.0,0.0,0.0,0.0,0.0,0.0,0.0,0.0,0.0,0.0,0.0,0.0,0.0,0.0,0.0,0.0,0.0,0.0,0.0,0.0,0.0,0.0,0.0,0.0,0.0,0.0,0.0,0.0,0.0,0.0,0.0,0.0,0.0,0.0,0.0,0.0,0.0,0.0,0.0,0.0,0.0,0.0,0.0,0.0,0.0,0.0,0.0,0.0,0.0,0.0,0.0,0.0,0.0,0.0,0.0,0.0,0.0,0.0,0.0,0.0,0.0,0.0,0.0,0.0,0.0,0.0,0.0,0.0,0.0,0.0,0.0,0.0,0.0,0.0,0.0,0.0,0.0,0.0,0.0,0.0,0.0,0.0,0.0,0.0,0.0,0.0,0.0,0.0,0.0,0.0,0.0,0.0,0.0,0.0,0.0,0.0,0.0,0.0,0.0,0.0,0.0,0.0,0.0,0.0,0.0,0.0,0.0,0.0,0.0,0.0,0.0,0.0,0.0,0.0,0.0,0.0,0.0,0.0,0.0,0.0,0.0,0.0,0.0,0.0,0.0,0.0,0.0,0.0,0.0,0.0,0.0,0.0,0.0,0.0,0.0,0.0,0.0,0.0,0.0,0.0,0.0,0.0,0.0,0.0,0.0,0.0,0.0,0.0,0.0,0.0,0.0,0.0,0.0,0.0,0.0,0.0,0.0,0.0,0.1165,0.093,0.0,0.0,0.0,0.0,0.0,0.0,0.0,0.0,0.0,0.0,0.0,0.0,0.0,0.0,0.0,0.0,0.0,0.0,0.0,0.0,0.0,0.0,0.0,1.312,1.3529,1.3726,1.3791,1.37,1.3407,0.0,0.0,0.0,0.0,0.0,1.0917,1.0847,1.0732,1.0589,1.0474,1.0331,1.0216,0.9522,0.8522,0.7305,0.0,0.0,0.0,0.0,0.0,0.0,0.0,0.0,0.0,0.0,0.0,0.0,0.0,0.0,0.0,0.0,0.0,0.0,0.0,0.0,0.0,0.0,0.0,0.0,0.0,0.0,0.0,0.0,0.0,0.0,0.0,0.0,0.0,0.0,0.0,0.0,0.0,0.0,0.0,0.0,0.0,0.0,0.0,0.0,0.0,0.0,0.0,0.0,0.0,0.0,0.0,0.0,0.0,0.0,0.0,0.0,0.0,0.0,0.0,0.0,0.0,0.0,0.0,0.0,0.0,0.0,0.0,0.0,0.0,0.0,0.1298,0.1144,0.0,0.0,0.0,0.0,0.0,0.0,0.0,0.0,0.0,0.0,0.0,0.0,0.0,0.0,0.0,0.0,0.0,0.0,0.0,0.0,0.0,1.3232,1.3296,1.4136,1.4647,1.4508,1.4851,1.4836,1.4318,1.4341,0.0,0.0,0.0,1.2671,1.2314,1.2342,1.2306,1.2206,1.2206,1.2114,1.1939,1.1527,1.0466,0.8824,0.8051,0.0,0.0,0.0,0.0,0.0,0.0,0.0,0.0,0.0,0.0,0.0,0.0,0.0,0.0,0.0,0.0,0.0,0.0,0.0,0.0,0.0,0.0,0.0,0.0,0.0,0.0,0.0,0.0,0.0,0.0,0.0,0.0,0.0,0.0,0.0,0.0,0.0,0.0,0.0,0.0,0.0,0.0,0.0,0.0,0.0,0.0,0.0,0.0,0.0,0.0,0.0,0.0,0.0,0.0,0.0,0.0,0.0,0.0,0.0,0.0,0.0,0.0,0.0,0.2071,0.187,0.1667,0.1617,0.1617,0.1564,0.1368,0.1252,0.1156,0.0384,0.0,0.0,0.0,0.0,0.0,0.0,0.0,0.0,0.0,0.0,0.0,0.0,0.0,0.0,0.0,0.0,0.0,0.0,0.0,1.3728,1.4016,1.4884,1.5497,1.5671,1.5721,1.5663,1.541,1.541,0.0,0.0,1.4185,1.3867,1.325,1.3349,1.3403,1.3376,1.3376,1.3367,1.334,1.2922,1.2431,1.1853,1.008,0.8764,0.7823,0.0,0.0,0.0,0.0,0.0,0.0,0.0,0.0,0.0,0.0,0.0,0.0,0.0,0.0,0.0,0.0,0.0,0.0,0.0,0.0,0.0,0.0,0.0,0.0,0.0,0.0,0.0,0.0,0.0,0.0,0.0,0.0,0.0,0.0,0.0,0.0,0.0,0.0,0.0,0.0,0.0,1.0823,1.0357,0.0,0.0,0.0,0.0,0.0,0.0,0.0,0.0,0.0,0.0,0.0,0.0,0.0,0.5864,0.5313,0.4327,0.3681,0.3377,0.2424,0.1971,0.1921,0.1718,0.1617,0.1616,0.1558,0.0,0.1152,0.0591,0.0,0.0,0.0,0.0,0.0,0.0,0.0,0.0,0.0,0.0,0.0,0.0,0.0,0.0,0.0,0.0,0.0,0.0,0.0,0.0,0.0,1.541,1.6088,1.6472,1.6848,1.6869,1.6528,1.6655,1.643,1.579,1.5572,1.5331,1.5048,1.5002,1.5048,1.5121,1.5177,1.5159,1.5002,1.476,1.4355,1.3796,1.268,1.1148,0.9367,0.8912,0.0,0.0,0.0,0.0,0.0,0.0,0.0,0.0,0.0,0.0,0.0,0.0,0.0,0.0,0.0,0.0,0.0,0.0,0.0,0.0,0.0,0.0,0.0,0.0,0.0,0.0,0.0,0.0,0.0,0.0,0.0,0.0,0.0,0.0,0.0,0.0,0.0,0.0,0.0,1.1824,1.1902,1.1693,1.1237,1.0519,0.0,0.0,0.0,0.0,0.0,0.0,0.0,0.0,0.0,0.735,0.7009,0.6587,0.6034,0.5286,0.4533,0.383,0.3177,0.2575,0.1971,0.187,0.1718,0.1617,0.1617,0.1516,0.1414,0.1001,0.0399,-0.0349,0.0,0.0,0.0,0.0,-0.369,-0.4034,0.0,0.0,0.0,0.0,0.0,0.0,0.0,0.0,0.0,0.0,0.0,0.0,1.5046,1.5803,1.6475,1.6928,1.754,1.7746,0.0,0.0,1.7698,1.7196,1.6922,1.6726,1.6641,1.6634,1.6691,1.6894,1.6759,1.6594,1.6399,1.6004,1.555,1.4973,1.4599,1.3139,1.0956,1.0306,0.9356,0.0,0.0,0.0,0.0,0.0,0.0,0.0,0.0,0.0,0.0,0.0,0.0,0.0,0.0,0.0,0.0,0.0,0.0,0.0,0.0,0.0,0.0,0.0,0.0,0.0,0.0,0.0,0.0,0.0,0.0,0.0,0.0,0.0,0.0,0.0,0.0,0.0,0.0,1.3059,1.3019,1.2951,1.2507,1.1708,0.0,0.0,0.0,0.0,0.0,0.0,0.7966,0.7977,0.7892,0.7693,0.749,0.7188,0.6686,0.6184,0.5384,0.4384,0.393,0.3177,0.2223,0.2071,0.1869,0.1617,0.1617,0.1617,0.1566,0.1314,0.0909,0.0404,-0.0303,-0.1009,-0.1665,-0.217,-0.2573,-0.2876,0.0,0.0,0.0,0.0,0.0,0.0,0.0,0.0,0.0,0.0,0.0,1.4996,1.5337,1.6029,1.661,1.6882,1.7524,1.7894,0.0,0.0,1.8598,1.8251,1.8104,1.7902,1.7639,1.7875,1.8159,1.8479,1.7648,1.725,1.7213,1.6181,1.5571,1.5253,1.5113,1.4025,1.2243,1.1589,1.0623,0.9446,0.0,0.0,0.0,0.0,0.0,0.0,0.0,0.0,0.0,0.0,0.0,0.0,0.0,0.0,0.0,0.0,0.0,0.0,0.0,0.0,0.0,0.0,0.0,0.0,0.0,0.0,0.0,0.0,0.0,0.0,0.0,0.0,0.0,0.0,0.0,0.0,0.0,0.0,0.0,1.4161,1.372,0.0,0.0,0.0,0.0,0.9209,0.8669,0.8372,0.8372,0.8134,0.7988,0.7988,0.7992,0.7842,0.7543,0.6986,0.6331,0.5484,0.4483,0.353,0.2725,0.2223,0.1869,0.1617,0.1617,0.1617,0.1566,0.1314,0.101,0.0707,0.0152,-0.0202,-0.0555,-0.1059,-0.1462,-0.1765,0.0,0.0,0.0,1.0863,1.1544,1.2166,1.2672,1.3098,1.3539,1.3941,1.4527,1.5148,0.0,1.6456,1.7051,1.7617,1.797,1.8178,1.8213,0.0,1.8816,1.8689,1.8756,1.8777,1.867,1.86,1.8535,1.8535,1.7966,1.7541,1.728,1.6918,1.645,1.5917,1.5615,1.5026,1.4185,1.3177,1.1974,1.0696,0.9867,0.8961,0.0,0.0,0.0,0.0,0.0,0.0,0.0,0.0,0.0,0.0,0.0,0.0,0.0,0.0,0.0,0.0,0.0,0.0,0.0,0.0,0.0,0.0,0.0,0.0,0.0,0.0,0.0,0.0,0.0,0.0,0.0,0.0,0.0,0.0,0.0,0.0,0.0,1.5034,1.4721,0.0,1.2926,1.2111,1.1292,1.0314,0.9575,0.908,0.8931,0.8636,0.8437,0.8437,0.8289,0.814,0.8039,0.7538,0.6889,0.6087,0.5386,0.4433,0.3277,0.2775,0.2272,0.1869,0.1667,0.1617,0.1617,0.1516,0.1415,0.1263,0.0909,0.0606,0.0303,-0.005,-0.0454,-0.0908,0.9261,0.9855,0.0,1.1293,1.1952,1.2544,1.305,1.3505,1.3965,1.4432,1.4903,1.5472,1.6213,1.6714,1.7234,1.7814,1.8167,1.8396,1.8439,0.0,1.9326,1.924,1.9472,1.9556,1.9446,1.927,1.9041,1.873,1.8213,1.7784,1.7538,1.7189,1.6764,1.6263,1.5948,1.5701,1.5448,1.4554,1.3367,1.2051,1.1239,1.0295,0.9336,0.0,0.0,0.0,0.0,0.0,0.0,0.0,0.0,0.0,0.0,0.0,0.0,0.0,0.0,0.0,0.0,0.0,0.0,0.0,0.0,0.0,0.0,0.0,0.0,0.0,0.0,0.0,0.0,0.0,0.0,0.0,0.0,0.0,0.0,1.5478,1.5565,1.5615,1.5356,1.4879,1.3998,1.3232,1.2365,1.1292,1.0462,0.9826,0.9381,0.909,0.8925,0.8827,0.8621,0.847,0.8422,0.8019,0.7438,0.6686,0.6134,0.5183,0.3828,0.3327,0.2675,0.1971,0.1819,0.1667,0.1617,0.1617,0.1617,0.1566,0.1415,0.1212,0.1061,0.0758,0.0455,0.005,0.9625,1.0131,1.0684,1.1553,1.215,1.2715,1.3324,1.3871,1.4432,1.504,1.5512,1.5986,1.6466,1.6816,1.7131,1.7393,1.8078,1.8505,1.8505,1.9633,2.0187,1.9988,2.0273,2.0299,1.9951,1.9925,1.9694,1.9207,1.8411,1.8,1.7965,1.6999,1.6426,1.6246,1.6135,1.6035,1.5909,1.5626,1.4763,1.3515,1.2696,1.1826,1.0982,0.0,0.0,0.0,0.0,0.0,0.0,0.0,0.0,0.0,0.0,0.0,0.0,0.0,0.0,0.0,0.0,0.0,0.0,0.0,0.0,0.0,0.0,0.0,0.0,0.0,0.0,0.0,0.0,0.0,0.0,0.0,0.0,0.0,1.5404,1.5651,1.5784,1.5784,1.5635,1.5302,1.4783,1.4004,1.313,1.2122,1.1292,1.0511,0.9735,0.9551,0.9391,0.9144,0.8983,0.8831,0.8685,0.8425,0.7937,0.7188,0.6686,0.5734,0.4429,0.3879,0.3077,0.2071,0.2022,0.1869,0.1617,0.1617,0.1617,0.1617,0.1617,0.1617,0.1566,0.1314,0.1212,0.1061,0.9651,1.0318,1.0989,1.1728,1.2382,1.2992,1.3597,1.415,1.4708,1.5311,1.5802,1.6306,1.6816,1.7152,1.7537,1.7935,1.8213,1.841,1.8484,1.9556,2.0538,2.1386,2.1506,2.1348,2.0922,2.0487,1.9982,1.9412,1.87,1.8235,1.799,1.7562,1.7206,1.6918,1.6452,1.6316,1.6396,1.6076,1.5658,1.5119,1.3824,1.2954,1.2373,0.0,0.0,0.0,0.0,0.0,0.0,0.0,0.0,0.0,0.0,0.0,0.0,0.0,0.0,0.0,0.0,0.0,0.0,0.0,0.0,0.0,0.0,0.0,0.0,0.0,0.0,0.0,0.0,0.0,0.0,0.0,1.5489,1.5471,1.5678,1.5731,1.5784,1.5784,1.5737,1.5588,1.5302,1.4729,1.41,1.3426,1.2316,1.1555,1.1306,1.0442,0.9988,1.0055,0.9629,0.9206,0.8838,0.868,0.8241,0.7494,0.7138,0.6487,0.5539,0.4784,0.3981,0.3127,0.2725,0.2323,0.187,0.187,0.1768,0.1617,0.1617,0.1617,0.1566,0.1516,0.1364,0.1111,0.9754,1.0472,1.12,1.1877,1.2505,1.3113,1.3787,1.4316,1.488,1.5536,1.6022,1.6543,1.711,1.7482,1.7882,1.8288,1.845,1.8666,1.9066,2.0216,2.1352,2.2429,2.2224,2.1848,2.1384,2.0784,2.0188,1.9585,1.9113,1.8789,1.8583,1.8305,1.8008,1.7673,1.7139,1.6981,1.7109,1.6539,1.6443,1.6508,1.5309,1.4404,1.3747,1.3218,1.2824,1.2496,1.2181,1.1913,1.1722,1.1584,0.0,0.0,0.0,0.0,0.0,0.0,0.0,0.0,0.0,0.0,0.0,0.0,0.0,0.0,0.0,0.0,0.0,0.0,0.0,0.0,0.0,0.0,0.0,0.0,1.6239,1.6239,1.6285,1.6021,1.5784,1.5784,1.5784,1.5737,1.5635,1.5261,1.4825,1.4292,1.3473,1.2706,1.2089,1.147,1.1001,1.0634,1.0152,0.9644,0.9115,0.8855,0.8393,0.7743,0.7494,0.6989,0.6287,0.5636,0.4782,0.3929,0.3377,0.2826,0.2323,0.2071,0.1921,0.1768,0.0,0.0,0.0,0.0,0.1516,0.1314,0.9882,1.0592,1.1301,1.1952,1.2529,1.3138,1.3836,1.4387,1.496,1.5669,1.6197,1.6723,1.7331,1.776,1.8141,1.8498,1.8773,1.9281,2.0119,2.1364,2.2381,2.3062,2.2589,2.2079,2.1555,2.1,2.0444,1.9818,1.9624,1.9515,1.9479,1.9091,1.8774,1.8496,1.8014,1.7866,1.7904,1.7105,1.7135,1.7657,1.6924,1.6043,1.508,1.4738,1.4423,1.4145,1.3837,1.3593,1.3483,1.3595,0.0,0.0,0.0,0.0,0.0,0.0,0.0,0.0,0.0,0.0,0.0,0.0,0.0,0.0,0.0,0.0,0.0,0.0,0.0,0.0,0.0,0.0,0.0,0.0,1.7281,1.7333,1.7113,1.6447,1.5967,1.5879,1.5832,1.5784,1.5784,1.5635,1.5309,1.4831,1.4539,1.3849,1.2635,1.2635,0.0,0.0,0.0,1.0126,0.9489,0.901,0.8545,0.8038,0.7793,0.7391,0.688,0.6389,0.5586,0.458,0.4079,0.3528,0.2925,0.2424,0.2123,0.1971,0.1718,0.1617,0.1617,0.1617,0.1617,0.1566,0.9928,1.0592,1.1276,1.1852,1.248,1.3089,1.3597,1.4247,1.4937,1.5546,1.6141,1.6723,1.7331,1.776,1.8181,1.8615,1.9289,2.0289,0.0,0.0,2.2712,2.3075,2.3026,2.2624,2.176,2.1621,2.125,2.0595,2.0446,2.0241,1.996,1.9732,1.9464,1.9188,1.8722,1.8431,1.8279,1.7959,1.8029,1.8388,1.8177,1.7425,1.6397,1.594,1.5565,1.5255,1.5099,1.5091,1.5127,1.5047,1.5232,1.557,1.592,0.0,0.0,0.0,0.0,0.0,0.0,0.0,0.0,0.0,0.0,0.0,0.0,0.0,0.0,0.0,0.0,0.0,0.0,0.0,0.0,1.8416,1.8288,1.8064,1.7598,1.7412,1.7044,1.6218,1.5927,1.5784,1.5784,1.5778,1.5635,1.535,1.5082,1.4688,1.419,1.3346,1.2791,1.2542,1.142,1.0559,1.006,0.9571,0.8993,0.8333,0.8283,0.0,0.7444,0.7092,0.6637,0.5984,0.5434,0.4782,0.4028,0.3528,0.2775,0.1971,0.1718,0.1617,0.1617,0.1617,0.1617,0.1617,0.984,1.0592,1.1352,1.1828,1.2406,1.2968,1.3525,1.4152,1.4789,1.5457,1.6022,1.6565,1.7131,1.7625,1.8062,1.847,1.9755,0.0,0.0,2.3134,2.3473,2.3412,2.3234,2.2786,2.2009,2.1693,2.139,2.1055,2.0958,2.0811,2.0645,2.0412,2.0191,1.9982,1.9525,1.9181,1.8983,1.8863,1.8965,1.9216,1.9238,1.8956,1.8397,1.7534,1.6905,1.6531,1.6667,1.6642,1.6598,1.6948,1.7143,1.7328,1.7665,1.7727,1.7738,0.0,0.0,0.0,0.0,0.0,0.0,0.0,0.0,0.0,0.0,0.0,0.0,0.0,0.0,2.0416,2.0536,0.0,1.9999,1.9906,1.9666,1.9392,1.9034,1.8665,1.7978,1.6737,1.6353,1.6163,1.6021,1.5879,1.5778,1.5642,1.5703,1.5507,1.5026,1.4526,1.3827,1.2983,1.2087,1.1098,1.0077,0.9696,0.921,0.8577,0.8577,0.8482,0.8187,0.7935,0.7484,0.6983,0.6431,0.5732,0.4933,0.3979,0.3127,0.2373,0.197,0.1718,0.1617,0.1617,0.1617,0.1617,0.9736,1.0549,1.1326,1.1753,1.2283,1.2813,1.3396,1.3965,1.4605,1.5334,1.5846,1.6349,1.6888,1.74,1.7977,0.0,0.0,0.0,0.0,2.3783,2.4172,2.3782,2.3372,2.2884,2.2328,2.1713,2.1371,2.1371,2.1325,2.1343,2.144,2.123,2.1146,2.114,2.07,2.0401,2.0162,2.0002,2.0053,2.0245,2.0251,2.0419,2.0526,1.9399,1.8515,1.7901,1.8118,1.8134,1.811,1.872,1.8903,1.8891,1.9249,1.9507,1.9698,1.9719,1.9913,0.0,0.0,0.0,0.0,0.0,0.0,0.0,0.0,2.1473,2.1512,2.1749,2.18,2.1721,2.1693,2.1688,2.1626,2.1275,2.1104,2.086,2.0482,1.9911,1.905,1.7667,1.7059,1.6636,1.6312,1.6021,1.5879,1.5784,1.6088,1.6077,1.5513,1.5515,1.4837,1.3383,1.2642,1.1676,1.0289,0.9863,0.9426,0.8973,0.8924,0.8825,0.8775,0.8581,0.823,0.7779,0.7229,0.6481,0.5684,0.4481,0.3629,0.3077,0.2523,0.2121,0.1818,0.1667,0.1613,0.1608,0.9718,1.0318,1.0922,1.1444,1.1977,1.251,1.2991,1.3613,1.4305,1.5062,1.5669,1.6207,1.6667,1.717,1.8136,1.9844,0.0,0.0,2.3273,2.4048,2.4313,2.398,2.3588,2.3173,2.2734,2.2026,2.1664,2.1664,2.1649,2.1884,2.2346,2.2313,2.2588,2.3082,2.284,2.2557,2.2232,2.1674,2.1612,2.1787,2.1326,2.1596,2.2171,2.1575,2.058,1.9483,1.9121,1.936,1.9862,1.9789,2.003,2.0396,2.0613,2.0496,2.0303,2.0444,2.0489,2.052,2.052,2.1193,2.1983,2.2245,2.226,2.2309,0.0,2.2536,2.2473,2.2848,2.277,2.2648,2.2652,2.2789,2.2697,2.2063,2.226,2.2089,2.1086,2.0862,2.0447,1.9409,1.8071,1.7052,1.6588,1.6312,1.6076,1.5832,1.6084,1.6179,1.5842,1.557,1.5104,1.4424,1.3063,1.2123,1.1697,1.0555,0.9821,0.9525,0.9282,0.9031,0.8775,0.8775,0.8726,0.8627,0.7829,0.7033,0.6287,0.5634,0.4933,0.4178,0.3629,0.3127,0.2574,0.1869,0.16,0.1577,0.9614,1.0087,1.0616,1.1267,1.1828,1.2348,1.2817,1.3314,1.3931,1.4708,1.5255,1.5921,1.6784,1.7768,1.9003,2.0476,2.125,2.2171,2.3318,2.3937,2.4197,2.4017,2.4066,2.3861,2.3391,2.3159,2.3042,2.3042,2.3042,2.3143,2.3375,2.3326,2.344,2.3667,2.3445,2.3184,2.2966,2.3169,2.3166,2.3001,2.3362,2.3425,2.3269,2.2846,2.2312,2.1693,2.0982,2.076,0.0,0.0,2.1143,2.1265,2.134,2.1461,2.155,2.1485,2.1923,2.2443,2.2655,2.3058,2.3465,2.3733,2.3718,2.3691,2.3788,2.3654,2.3458,2.3333,2.3285,2.3154,2.3013,2.3274,2.3416,2.3153,2.3088,2.2945,2.2451,2.1959,2.141,2.0727,1.9675,1.8581,1.7372,1.6911,1.6487,1.6076,1.6202,1.6273,1.6133,1.6006,1.5626,1.4915,1.3807,1.284,1.1964,1.099,1.0265,0.9821,0.9579,0.9381,0.9274,0.9274,0.9179,0.8981,0.8184,0.7534,0.7033,0.6334,0.5684,0.5033,0.4331,0.3804,0.3324,0.2235,0.183,0.1814,0.951,0.9932,1.0429,1.1175,1.1678,1.2141,1.2642,1.3021,1.3515,1.4267,1.4924,1.5776,1.6996,1.8336,1.9502,2.0524,2.1153,2.1965,2.3091,2.3709,2.4076,2.4172,2.4397,2.4365,2.4031,2.3968,2.3935,2.3935,2.3984,2.4216,2.4613,2.4562,2.476,2.514,2.486,2.4628,2.4473,2.4856,2.475,2.4312,2.4852,2.4753,2.4203,2.3787,2.3595,2.3376,2.2401,2.1893,0.0,0.0,2.2061,2.198,2.1906,2.2092,2.2291,2.2087,2.2768,2.3688,2.4208,2.4574,2.4781,2.4832,2.492,2.493,2.4808,2.4562,2.4282,2.397,2.3764,2.3634,2.345,2.3673,2.3879,2.3879,2.3796,2.3599,2.3429,2.2846,2.2218,2.1553,2.1103,2.0166,1.8488,1.7645,1.6951,1.6359,1.6272,1.6249,1.6152,1.6163,1.5881,1.5229,1.4441,1.352,1.2414,1.1487,1.0752,1.0216,0.9871,0.9677,0.9579,0.9579,0.943,0.9187,0.8588,0.8184,0.7879,0.7135,0.6584,0.6084,0.5281,0.4726,0.4208,0.3071,0.2427,0.2122,0.951,0.9932,1.0429,1.1175,1.1528,1.1902,1.2421,1.2691,1.3069,1.375,1.4681,1.587,1.7315,1.8521,1.9373,1.9799,2.1152,2.2119,2.2512,2.3391,2.4116,2.4552,2.4411,2.4394,2.4577,2.4064,2.3803,2.3803,2.3935,2.4746,2.6119,2.6119,2.6899,2.8241,2.7974,2.774,2.7514,2.6914,2.6361,2.5864,2.5254,2.5063,2.5083,2.4487,2.4282,2.41,2.292,0.0,0.0,0.0,2.2678,2.2659,2.242,2.229,0.0,2.1949,2.2524,2.3461,2.4507,2.537,2.5839,2.5388,2.5737,2.6049,2.5569,2.5158,2.4861,2.4861,2.4497,2.4163,2.4163,2.4115,2.4093,2.4093,2.4267,2.4156,2.3477,2.3364,2.2931,2.1822,2.2034,2.1606,2.0007,1.8527,1.7372,1.6629,1.6366,1.6089,1.5845,1.5804,1.5709,1.5506,1.4694,1.401,1.3463,1.2214,1.1292,1.0757,1.0216,0.9875,0.9579,0.9579,0.943,0.9187,0.9183,0.9031,0.8726,0.8184,0.7786,0.7481,0.6634,0.5965,0.5368,0.4508,0.3531,0.25,0.9666,1.0164,1.0718,1.1318,1.1644,1.1927,1.22,1.2446,1.291,1.3754,1.5318,0.0,0.0,0.0,0.0,0.0,2.0616,2.1348,2.1992,2.2717,2.3348,2.39,2.4817,2.5386,2.5582,2.6156,2.6458,2.6458,2.6588,2.6944,2.7531,2.7531,2.7795,2.8256,2.8039,2.7745,2.7448,2.7852,2.7688,2.7133,2.6975,2.6587,2.6036,2.5107,2.4461,2.3956,0.0,0.0,0.0,2.2848,2.2769,2.2708,2.2739,0.0,0.0,2.3608,2.3948,2.4277,2.5269,2.5781,2.5987,2.5714,2.6101,2.6439,2.6156,2.6046,2.5904,2.5611,2.5285,2.4999,2.47,2.4838,2.503,2.5032,2.5068,2.5025,2.4805,2.4533,2.4069,2.3376,2.3102,2.2574,2.1515,1.9994,1.8582,1.7434,1.677,1.6359,1.6076,1.5879,1.5784,1.5683,1.5118,1.4592,1.4052,1.2754,1.1878,1.134,1.0413,0.9875,0.9579,0.9579,0.9529,0.943,0.9286,0.9133,0.9031,0.868,0.8283,0.7836,0.7385,0.6805,0.6195,0.5506,0.4835,0.4147,0.9847,1.0394,1.1016,1.1653,1.2008,0.0,0.0,0.0,0.0,0.0,0.0,0.0,0.0,0.0,0.0,0.0,0.0,2.0684,2.1396,2.2072,2.2795,2.357,2.4724,2.5573,2.6051,2.6957,2.7446,2.755,2.7729,2.8037,2.8456,2.8456,2.8587,2.8829,2.8804,2.8581,2.824,2.879,2.8647,2.8073,2.795,2.73,2.6366,2.5755,2.4877,0.0,0.0,0.0,0.0,2.306,2.306,2.3042,2.312,2.3138,2.3412,2.4665,2.4911,2.5001,2.5946,2.6327,2.6408,2.6081,2.6403,2.673,2.6681,2.6611,2.656,2.6483,2.6196,2.5874,2.5527,2.5562,2.5719,2.5882,2.5704,2.5584,2.5631,2.5312,2.4785,2.4175,2.3908,2.3466,2.2564,2.1579,2.0266,1.85,1.7662,1.6987,1.6573,1.613,1.5879,1.5784,1.5458,1.5022,1.4592,1.348,1.2511,1.1585,1.0507,0.992,0.9727,0.9628,0.9579,0.9579,0.943,0.9331,0.9331,0.9031,0.8733,0.8386,0.8031,0.7596,0.707,0.6365,0.5821,0.5199,1.008,1.0663,1.1288,0.0,0.0,0.0,0.0,0.0,0.0,0.0,0.0,0.0,0.0,0.0,0.0,0.0,0.0,0.0,2.0696,2.1468,0.0,2.3459,2.4158,2.4965,2.5955,2.6476,2.6882,2.7136,2.7407,2.8012,2.889,2.889,2.9264,2.9924,3.0181,3.0077,2.9715,2.9613,2.9275,2.8737,2.8111,2.7194,2.6183,2.6327,0.0,0.0,0.0,0.0,0.0,2.3419,2.3599,2.3735,2.3735,2.3752,2.4004,2.5211,2.5452,2.5538,2.6472,2.6905,2.7026,2.6528,2.6638,2.6918,2.7069,2.6913,2.6895,2.7418,2.7208,2.6891,2.661,2.6249,2.6159,2.6599,2.6246,2.5869,2.5886,2.5684,2.5196,2.4309,2.4496,2.4298,2.3222,2.3192,2.2271,1.985,1.8837,1.8008,1.7196,1.6573,1.6123,1.5832,1.5635,1.5404,1.5131,1.4298,1.313,1.159,1.056,1.0068,0.9969,0.9727,0.9628,0.9579,0.9579,0.9579,0.9579,0.9335,0.9236,0.9137,0.8634,0.8245,0.7856,0.7181,0.6526,0.5802,0.0,0.0,0.0,0.0,0.0,0.0,0.0,0.0,0.0,0.0,0.0,0.0,0.0,0.0,0.0,0.0,0.0,0.0,1.9722,2.0421,0.0,0.0,0.0,0.0,2.5746,2.6761,0.0,0.0,0.0,2.821,2.876,2.876,2.8854,2.9028,2.8881,2.8802,2.8776,2.8936,2.8927,2.8722,0.0,2.7157,2.6796,0.0,0.0,0.0,0.0,0.0,0.0,2.4602,2.5027,2.5489,2.5642,2.5855,2.6103,2.6384,2.6263,2.6143,2.6628,2.6455,2.6202,2.6355,2.6452,2.6651,2.7071,2.7186,2.738,2.79,2.7829,2.7545,2.7267,2.7382,2.7513,2.7601,2.7386,2.7147,2.6861,2.6506,2.5998,2.5372,2.5208,2.4937,2.4483,2.407,2.344,2.2393,2.0353,1.8766,1.8008,1.7035,1.64,1.6123,1.5832,1.5642,1.5404,1.4388,1.3232,1.1883,1.1443,1.0757,1.0019,0.992,0.9772,0.9579,0.9579,0.9579,0.9579,0.9529,0.9381,0.9187,0.9034,0.8806,0.8483,0.7926,0.7473,0.7025,0.0,0.0,0.0,0.0,0.0,0.0,0.0,0.0,0.0,0.0,0.0,0.0,0.0,0.0,0.0,0.0,0.0,0.0,0.0,1.9645,0.0,0.0,0.0,2.4236,2.5328,2.6277,0.0,0.0,0.0,0.0,0.0,2.8094,2.803,2.7966,2.7981,2.7865,2.7677,0.0,0.0,0.0,0.0,0.0,0.0,0.0,0.0,0.0,0.0,0.0,0.0,2.5586,2.5862,2.6233,2.657,2.6766,2.6853,2.6873,2.6722,2.6528,2.6649,2.647,2.629,2.629,2.627,2.6466,2.7065,2.7177,2.7391,2.8183,2.8231,2.807,2.7846,2.8075,2.8211,2.8145,2.7843,2.7547,2.7263,2.6668,2.6159,2.5732,2.5586,2.5382,2.5088,2.4784,2.4307,2.3641,2.1445,1.9814,1.9045,1.7676,1.6723,1.6407,1.6021,1.5683,1.5493,1.4675,1.3763,1.2845,1.2122,1.1389,1.0708,1.0364,1.0068,0.9969,0.9969,0.9871,0.9776,0.9776,0.9628,0.9381,0.9236,0.9133,0.8898,0.8449,0.8073,0.7693,0.0,0.0,0.0,0.0,0.0,0.0,0.0,0.0,0.0,1.4062,1.4674,1.5135,1.541,1.5752,0.0,0.0,0.0,0.0,0.0,0.0,0.0,0.0,0.0,2.342,2.46,2.5176,2.5699,0.0,0.0,0.0,0.0,0.0,0.0,0.0,0.0,0.0,0.0,0.0,0.0,0.0,0.0,0.0,0.0,0.0,0.0,0.0,0.0,0.0,0.0,0.0,2.6387,2.6552,2.7013,2.7087,2.704,2.707,2.6911,2.6745,2.6603,2.6658,2.6614,2.6282,2.619,2.6344,2.7029,2.7036,2.7198,2.8294,2.851,2.8431,2.8259,2.8444,2.8535,2.8405,2.7966,2.7537,2.73,2.662,2.6052,2.5732,2.5693,2.5586,2.5382,2.5285,2.486,2.4057,2.2306,2.0914,2.0079,1.8367,1.7185,1.6588,1.6116,1.5737,1.554,1.507,1.4538,1.4004,1.2797,1.2073,1.1683,1.0949,1.056,1.0507,1.0462,1.0314,1.0117,1.0019,0.9871,0.9628,0.9381,0.9236,0.9213,0.8799,0.8453,0.8074,0.0,0.0,0.0,0.0,0.0,0.0,0.0,0.0,0.0,0.0,0.0,0.0,0.0,0.0,0.0,0.0,0.0,0.0,0.0,0.0,0.0,0.0,0.0,2.2085,2.3127,2.3526,2.3965,2.4441,0.0,0.0,0.0,0.0,0.0,0.0,0.0,0.0,0.0,0.0,0.0,0.0,0.0,0.0,0.0,0.0,0.0,0.0,0.0,0.0,0.0,0.0,2.7168,2.757,2.7765,2.8037,2.818,2.7664,2.7097,2.6687,2.6925,2.6388,2.589,2.6434,2.6274,2.6181,2.7004,2.7036,2.7198,2.8294,2.851,2.8471,2.8471,2.8526,2.8661,2.8846,2.8332,2.7834,2.7573,2.6907,2.6255,2.5781,2.5693,2.5684,2.5635,2.5121,2.4746,2.4574,2.3233,2.1912,2.0691,1.9111,1.7606,1.6312,1.617,1.6028,1.5737,1.5493,1.5064,1.4544,1.3908,1.3087,1.2273,1.1883,1.1487,1.1047,1.085,1.0703,1.0605,1.0167,0.9969,0.992,0.9628,0.9529,0.946,0.9086,0.8908,0.8714,0.0,0.0,0.0,0.0,0.0,0.0,0.0,0.0,0.0,0.0,0.0,0.0,0.0,0.0,0.0,0.0,0.0,0.0,0.0,0.0,0.0,0.0,0.0,2.1233,2.2039,2.2366,2.2731,2.3122,0.0,2.3391,2.3614,2.3614,2.3555,2.3454,0.0,0.0,0.0,0.0,0.0,0.0,0.0,0.0,0.0,0.0,0.0,0.0,0.0,0.0,0.0,0.0,2.685,2.7289,2.7623,2.7855,2.79,2.7269,2.6865,2.6559,2.6393,2.6089,2.589,2.6163,2.6055,2.6122,2.6992,2.7036,2.7198,2.8294,2.851,2.851,2.851,2.8566,2.8579,2.8572,2.8165,2.7645,2.7315,2.6707,2.6159,2.5732,2.5693,2.5693,2.5693,2.5198,2.4801,2.4568,2.3637,2.2592,2.149,1.9497,1.7831,1.6629,1.6359,1.6076,1.5784,1.5683,1.5493,1.5118,1.4586,1.3913,1.3184,1.2748,1.236,1.2029,1.1883,1.1683,1.1389,1.0998,1.0654,1.0364,0.9969,0.9826,0.9764,0.9433,0.9195,0.896,0.0,0.0,0.0,0.0,0.0,0.0,0.0,0.0,1.3138,1.3777,1.4747,1.5346,1.5226,1.5758,0.0,0.0,0.0,0.0,0.0,0.0,0.0,0.0,0.0,2.0387,2.0933,0.0,0.0,2.1902,2.2158,0.0,0.0,0.0,0.0,0.0,2.183,2.1729,2.1502,0.0,0.0,0.0,0.0,2.2321,0.0,0.0,0.0,0.0,0.0,0.0,0.0,0.0,2.6211,2.6543,2.7053,2.7302,2.7311,2.683,2.6609,2.6408,2.5974,2.5916,2.5935,2.5803,2.5806,2.6075,2.693,2.6998,2.7198,2.8294,2.851,2.851,2.851,2.8512,2.8451,2.8236,2.7873,2.7414,2.7034,2.6492,2.6088,2.582,2.5732,2.5693,2.5693,2.5244,2.4785,2.4443,2.3709,2.2834,2.1843,1.9879,1.8342,1.7279,1.677,1.6305,1.5879,1.5879,1.5784,1.554,1.5064,1.464,1.4148,1.3661,1.3329,1.3098,1.305,1.2754,1.2268,1.1927,1.1443,1.09,1.0359,1.0117,0.9969,0.9776,0.9441,0.9127,0.0,0.0,0.0,0.0,0.0,0.0,0.0,0.0,1.2814,1.3287,1.4297,1.4959,1.4956,1.6062,0.0,0.0,0.0,0.0,0.0,0.0,0.0,0.0,0.0,0.0,0.0,0.0,0.0,2.0684,2.104,0.0,0.0,0.0,0.0,0.0,0.0,2.0291,2.0258,2.0063,0.0,0.0,0.0,0.0,0.0,0.0,0.0,0.0,0.0,2.4238,2.46,2.5194,2.5523,2.5781,2.6188,2.6649,2.7045,2.6981,2.6596,2.6164,2.632,2.5996,2.5649,2.562,2.5639,2.5862,2.672,2.6898,2.7198,2.8294,2.851,2.851,2.851,2.8347,2.8243,2.8219,2.7824,2.7412,2.7224,2.6764,2.6343,2.6099,2.5868,2.5693,2.5693,2.4923,2.4463,2.4424,2.3438,2.2356,2.114,2.0482,1.9463,1.804,1.7699,1.7091,1.617,1.6177,1.6028,1.5784,1.554,1.5261,1.4987,1.4688,1.44,1.4154,1.3908,1.3613,1.3323,1.2608,1.2029,1.1487,1.0953,1.0413,1.0019,0.9969,0.9764,0.9505,0.0,0.0,0.0,0.0,0.0,0.0,0.0,0.0,1.2271,1.265,1.3533,1.4148,1.4288,1.5249,0.0,0.0,0.0,0.0,0.0,0.0,0.0,0.0,0.0,0.0,0.0,0.0,1.9986,2.0432,2.061,0.0,0.0,0.0,0.0,0.0,0.0,1.9716,1.9485,1.9429,0.0,0.0,0.0,0.0,0.0,0.0,0.0,0.0,0.0,0.0,2.3827,2.4432,2.4838,2.5123,2.5535,2.5898,2.6245,2.6589,2.6438,2.6176,2.6264,2.5946,2.5667,2.5994,2.5972,2.6154,2.7164,2.7366,2.7582,2.8366,2.851,2.851,2.851,2.8339,2.8198,2.8209,2.8096,2.7893,2.7656,2.7349,2.7034,2.6648,2.6197,2.5868,2.5742,2.4894,2.4199,2.3637,2.3198,2.2706,2.2122,2.1221,2.0184,1.8988,1.8303,1.7473,1.6454,1.6265,1.6076,1.5784,1.5737,1.5547,1.5356,1.5213,1.5022,1.479,1.4688,1.4496,1.4202,1.3721,1.3232,1.2694,1.2024,1.1438,1.09,1.0609,1.0216,0.9821,0.0,0.0,0.0,0.0,0.0,0.0,1.0817,1.1237,1.1665,1.2078,1.2862,1.3465,1.3668,1.4415,1.5139,1.5711,0.0,0.0,0.0,0.0,0.0,0.0,0.0,0.0,0.0,0.0,1.9544,2.0085,2.0179,2.0206,0.0,0.0,1.995,1.9585,0.0,0.0,0.0,0.0,0.0,0.0,0.0,0.0,0.0,0.0,0.0,0.0,0.0,0.0,0.0,0.0,0.0,2.4288,2.4874,2.5123,0.0,2.6107,2.6223,2.6097,2.6027,2.584,2.5692,2.619,2.6215,2.6382,2.7476,2.7678,2.7834,2.8402,2.851,2.851,2.851,2.8379,2.8307,2.8421,2.8472,2.8445,2.8295,2.8,2.7604,2.703,2.6524,2.6062,2.5732,2.4894,2.4062,2.3159,2.3091,2.3057,2.2891,2.2033,2.1033,1.9994,1.918,1.8218,1.7052,1.6683,1.6312,1.5927,1.5832,1.573,1.5588,1.5588,1.5499,1.5315,1.5315,1.5172,1.4927,1.464,1.4202,1.3661,1.299,1.2365,1.1785,1.1243,1.0708,1.0216,0.0,0.0,0.0,0.0,0.0,0.0,0.0,0.0,1.1029,1.1617,1.2347,1.2923,1.3175,1.3752,1.4223,1.4478,0.0,0.0,0.0,0.0,0.0,0.0,0.0,0.0,0.0,0.0,1.8928,1.9326,1.9694,1.9792,1.962,1.962,1.9501,1.9314,0.0,0.0,0.0,0.0,0.0,0.0,0.0,0.0,0.0,0.0,0.0,0.0,0.0,0.0,0.0,0.0,0.0,0.0,0.0,2.4409,2.46,0.0,2.591,2.5875,2.5641,2.5606,2.5692,2.6009,2.6093,2.6382,2.7476,2.7678,2.7834,2.8402,2.851,2.851,2.851,2.851,2.8599,2.8951,2.8993,2.9028,2.9088,2.8645,2.7995,2.7263,2.6774,2.6304,2.5732,2.4894,2.4062,2.3159,2.3091,2.3091,2.3091,2.2882,2.2211,2.1042,2.051,1.9554,1.8087,1.7567,1.6911,1.6177,1.5927,1.5784,1.5784,1.5784,1.5784,1.5778,1.5778,1.5683,1.5493,1.522,1.479,1.425,1.3709,1.3039,1.2322,1.178,1.1243,1.0703,0.0,0.0,0.0,0.0,0.0,0.0,0.0,0.0,1.1033,1.1323,0.0,0.0,0.0,0.0,0.0,0.0,0.0,0.0,0.0,0.0,0.0,0.0,0.0,0.0,0.0,0.0,0.0,1.9314,1.9444,1.9522,1.9606,1.9606,1.9496,1.9287,1.9287,1.9172,0.0,0.0,0.0,0.0,0.0,0.0,2.0809,0.0,0.0,0.0,0.0,0.0,0.0,0.0,0.0,0.0,0.0,0.0,0.0,2.491,2.5349,2.5573,2.602,2.6045,2.6142,2.6983,2.7212,2.7392,2.8102,2.8258,2.8306,2.8474,2.851,2.851,2.851,2.851,2.8639,2.9126,2.9344,2.9567,2.984,2.9443,2.8848,2.8128,2.6955,2.5863,2.4893,2.458,2.4062,2.3159,2.3091,2.3091,2.3091,2.3057,2.2608,2.1793,2.1132,2.0175,1.8842,1.8164,1.738,1.6447,1.6218,1.5981,1.5784,1.5784,1.5784,1.5784,1.5784,1.5778,1.5683,1.5594,1.5404,1.5112,1.4729,1.425,1.3624,1.3082,1.2457,1.1834,0.0,0.0,0.0,0.0,0.0,0.0,0.0,0.0,1.1062,1.1236,0.0,0.0,0.0,0.0,0.0,0.0,0.0,0.0,0.0,0.0,0.0,0.0,0.0,0.0,0.0,0.0,1.804,1.8696,1.8696,1.8904,1.9271,1.9271,1.93,1.9418,1.9418,1.9315,0.0,0.0,0.0,0.0,0.0,0.0,2.0498,0.0,0.0,0.0,0.0,0.0,0.0,0.0,0.0,0.0,0.0,0.0,0.0,0.0,2.4895,2.5462,2.6248,2.6369,2.6511,2.7462,2.7678,2.7822,2.839,2.851,2.851,2.851,2.851,2.851,2.851,2.851,2.8751,2.9484,2.9744,3.001,3.044,3.0167,2.9485,2.8384,2.7051,2.5801,2.4641,2.446,2.4062,2.3159,2.3091,2.3091,2.3091,2.3091,2.2916,2.2501,2.1847,2.0988,1.9886,1.9034,1.8118,1.7145,1.6588,1.6218,1.5927,1.5832,1.5784,1.5784,1.5784,1.5784,0.0,1.5784,1.573,1.5588,1.5356,1.4981,1.4544,1.4004,1.3372,1.2754,0.0,0.0,0.0,0.0,0.0,0.0,0.0,0.0,0.0,0.0,0.0,0.0,0.0,0.0,0.0,0.0,0.0,0.0,0.0,0.0,0.0,0.0,0.0,0.0,0.0,1.6499,1.6997,1.7578,1.7619,1.7934,1.8616,1.8616,1.8944,1.9566,1.9566,1.9676,0.0,0.0,0.0,0.0,2.0186,2.0264,0.0,0.0,0.0,0.0,0.0,0.0,0.0,0.0,0.0,0.0,0.0,0.0,0.0,0.0,0.0,0.0,0.0,2.6629,2.6838,2.7567,2.7738,2.7909,2.8402,2.851,0.0,2.851,2.851,2.851,2.851,2.851,2.8859,2.9917,3.0086,3.0331,3.092,3.0724,2.9932,2.8233,2.7156,2.6097,2.4927,2.4608,2.4062,2.3159,2.3091,2.3091,2.3091,2.3091,2.3091,2.3091,2.2696,2.2033,2.1078,2.0076,1.9126,1.8172,1.7192,1.6541,1.6224,1.5927,1.5832,1.5784,1.5784,1.5784,1.5784,1.5784,1.5784,1.5784,1.5588,1.5356,1.5077,1.4586,1.4052,1.3516,0.0,0.0,0.0,0.0,0.0,0.0,0.0,0.0,0.0,0.0,0.0,0.0,0.0,0.0,0.0,0.0,0.0,0.0,0.0,0.0,0.0,0.0,0.0,0.0,0.0,1.569,1.6144,1.6468,1.6632,1.7041,1.7723,1.7853,1.8385,1.9121,1.9121,0.0,0.0,0.0,0.0,0.0,1.9981,1.9981,0.0,0.0,0.0,0.0,2.0381,2.0459,0.0,0.0,0.0,0.0,0.0,0.0,0.0,0.0,2.4226,2.5216,2.6467,0.0,2.7335,2.7949,2.8199,2.8366,0.0,2.851,2.851,2.851,2.851,2.851,2.851,2.851,2.8859,2.9917,3.0086,3.0373,3.1119,3.0556,2.9646,2.843,2.7726,2.6748,2.5229,2.4884,2.4254,2.3159,2.3091,2.3091,2.3091,2.3091,2.3091,2.3091,2.3003,2.2599,2.1837,2.1033,2.0076,1.8934,1.8118,1.7286,1.6494,1.6218,1.5981,1.5784,1.5784,1.5784,1.5784,1.5784,1.5784,1.5784,1.5737,1.5689,1.5594,1.5302,1.5022,1.464,0.0,0.0,0.0,0.0,0.0,0.0,0.0,0.0,0.0,0.0,0.0,0.0,0.0,0.0,0.0,0.0,0.0,0.0,0.0,0.0,0.0,0.0,0.0,0.0,0.0,1.5065,1.536,1.565,1.5858,1.6345,1.7082,1.7335,1.7951,1.8851,1.9073,0.0,0.0,0.0,0.0,0.0,1.9745,0.0,0.0,0.0,0.0,0.0,2.0225,2.0381,0.0,2.0566,2.0605,2.0605,0.0,0.0,0.0,0.0,2.3831,2.4975,2.6116,2.6909,2.7584,2.8068,2.8339,2.851,2.851,2.851,2.851,2.851,2.851,2.8582,2.8823,2.8871,2.922,3.0278,3.0446,3.0649,3.1231,3.0679,2.992,2.9185,2.8422,2.7381,2.5972,2.5319,2.4565,2.3489,2.3363,2.3232,2.3101,2.3091,2.3091,2.3091,2.3091,2.2872,2.2432,2.1793,2.1024,2.0022,1.9072,1.8164,1.7286,1.6636,1.6265,1.5981,1.5832,1.5784,1.5784,1.5784,1.5784,1.5784,1.5784,1.5784,1.5778,1.5683,1.5499,1.522,0.0,0.0,0.0,0.0,0.0,0.0,0.0,0.0,0.0,0.0,0.0,0.0,0.0,0.0,0.0,0.0,0.0,0.0,0.0,0.0,0.0,0.0,0.0,0.0,1.4356,1.4524,1.4706,1.4964,1.52,1.5775,1.6607,1.6976,1.7708,1.8772,1.9112,0.0,0.0,0.0,0.0,1.9301,1.9478,0.0,0.0,0.0,0.0,0.0,0.0,0.0,0.0,2.0489,2.0566,2.0605,2.0605,0.0,0.0,0.0,0.0,0.0,2.5561,2.6595,2.7563,2.8059,2.8351,2.851,2.851,0.0,2.851,2.851,2.851,2.8667,2.9208,2.9304,2.9641,3.0742,3.0995,3.1112,3.1279,3.0878,3.0383,2.9909,2.8936,2.7832,2.6697,2.5851,2.4962,2.3991,2.3711,2.3493,2.3188,2.3135,2.3091,2.3091,2.3091,2.3013,2.2847,2.2422,2.1837,2.1168,2.0022,1.9072,1.8218,1.7286,1.6636,1.6265,1.5974,1.5832,1.5784,1.5784,1.5784,1.5784,1.5784,1.5784,1.5784,1.5784,1.5689,1.5493,0.0,0.0,0.0,0.0,0.0,0.0,0.0,0.0,0.0,0.0,0.0,0.0,0.0,0.0,0.0,0.0,0.0,0.0,0.0,0.0,0.0,0.0,0.0,0.0,1.4166,1.4166,1.4208,1.4257,1.4831,1.5492,1.6221,1.6976,1.791,1.8962,1.9192,1.9301,0.0,0.0,1.9301,1.9301,1.9341,0.0,0.0,0.0,0.0,0.0,0.0,0.0,0.0,2.0264,2.045,2.0605,2.0605,0.0,0.0,0.0,0.0,0.0,2.5087,2.6255,2.7348,2.7829,2.8243,2.851,2.851,2.851,2.851,2.851,2.851,2.8667,2.9208,2.9304,2.9641,3.0742,3.1296,3.1521,3.1339,3.0837,3.0302,2.9663,2.883,2.783,2.6693,2.6238,2.557,2.4497,2.4209,2.3917,2.345,2.3232,2.3091,2.3091,2.3091,2.3101,2.3047,2.2794,2.2432,2.1926,2.1123,2.0121,1.9018,1.821,1.738,1.6541,1.6265,1.6028,1.5784,1.5784,1.5784,1.5784,1.5784,1.5784,1.5784,1.5784,1.5784,1.5737,0.0,0.0,0.0,0.0,0.0,0.0,0.0,0.0,0.0,0.0,0.0,0.0,0.0,0.0,0.0,0.0,0.0,0.0,0.0,0.0,0.0,0.0,0.0,0.0,1.4088,1.4088,1.4088,1.4088,1.4622,1.5318,1.6139,1.7465,1.8371,1.8851,1.9152,1.9301,1.9301,0.0,1.943,1.96,0.0,0.0,0.0,0.0,0.0,0.0,0.0,0.0,0.0,0.0,2.0411,2.0605,2.0605,0.0,0.0,0.0,0.0,0.0,2.4721,2.6065,2.7319,2.78,2.8203,2.851,2.851,2.851,2.851,2.851,2.851,2.8763,2.9581,2.9725,3.0074,3.1175,3.1308,3.124,3.1097,3.0611,3.0105,2.9644,2.9048,2.8364,2.7586,2.6948,2.624,2.5485,2.502,2.4551,2.409,2.3841,2.358,2.3319,2.3319,2.3232,2.3091,2.3013,2.2784,2.2476,2.1891,2.1114,2.0158,1.9263,1.8388,1.7552,1.7005,1.6588,1.6204,1.6076,1.5927,1.5784,1.5784,1.5784,1.5784,1.5784,1.5784,1.5778,0.0,0.0,0.0,0.0,0.0,0.0,0.0,0.0,0.0,0.0,0.0,0.0,0.0,0.0,0.0,0.0,0.0,0.0,0.0,0.0,0.0,0.0,0.0,0.0,1.4088,1.4021,1.3981,1.3981,1.4469,1.5279,1.6427,1.8085,1.8829,1.878,1.9252,1.9393,1.9311,1.9402,1.9641,1.9902,0.0,0.0,0.0,0.0,0.0,0.0,0.0,0.0,0.0,0.0,0.0,0.0,0.0,0.0,0.0,2.1253,2.232,2.3508,2.4546,2.6017,2.74,2.7869,2.8231,2.851,2.851,2.851,2.851,2.8538,2.855,2.8835,2.9977,3.0332,3.0718,3.1404,3.1187,3.0874,3.0711,3.0242,2.981,2.9558,2.9094,2.8651,2.8239,2.7573,2.6933,2.6404,2.5821,2.5274,2.4754,2.4487,2.4196,2.3754,2.3624,2.345,2.3188,2.3135,2.3013,2.2891,2.2467,2.1935,2.1212,2.0257,1.9392,1.8611,1.7878,1.7279,1.6723,1.6407,1.6123,1.5879,1.5825,1.5784,1.5784,1.5784,1.5784,1.5784,0.0,0.0,0.0,0.0,0.0,0.0,0.0,0.0,0.0,0.0,0.0,0.0,0.0,0.0,0.0,0.0,0.0,0.0,0.0,0.0,0.0,0.0,0.0,0.0,0.0,1.3814,1.3633,1.3633,1.428,1.5523,1.7359,1.8646,1.916,1.902,1.9593,1.9668,1.9329,1.9683,1.9866,1.9921,2.0087,0.0,0.0,0.0,0.0,0.0,0.0,0.0,0.0,0.0,0.0,0.0,0.0,0.0,2.0693,2.1081,2.2323,2.3767,2.4572,2.6109,2.7603,2.8047,2.8339,2.851,2.851,2.851,2.855,2.8724,2.8618,2.8875,3.0155,3.102,3.1452,3.1043,3.0946,3.0742,3.0218,2.9689,2.927,2.9052,2.8588,2.8158,2.794,2.7864,2.7557,2.6891,2.658,2.6113,2.5443,2.5073,2.4722,2.4456,2.4003,2.3667,2.346,2.3232,2.3091,2.3101,2.2838,2.2476,2.2015,2.1257,2.0357,1.9392,1.8657,1.7924,1.7192,1.677,1.64,1.617,1.5879,1.5784,1.5784,1.5784,1.5784,1.5784,0.0,0.0,0.0,0.0,0.0,0.0,0.0,0.0,0.0,0.0,0.0,0.0,0.0,0.0,0.0,0.0,0.0,0.0,0.0,0.0,0.0,0.0,0.0,1.4088,1.4088,1.3975,1.3921,1.3921,1.4814,1.5819,1.6812,1.8384,1.9156,1.9218,1.9698,1.9802,1.9664,1.982,2.0031,2.0287,2.0485,2.0303,0.0,0.0,0.0,0.0,0.0,0.0,0.0,0.0,1.9597,2.0098,0.0,2.0489,2.0683,2.1089,2.2213,2.3556,2.4381,2.5926,2.7441,2.7909,2.8339,2.8685,2.8685,2.8685,2.8724,2.8973,2.8843,2.8875,2.9596,3.0278,3.0657,3.0422,3.011,2.9821,2.9629,2.9136,2.8771,2.8678,2.8511,2.8351,2.8271,2.8151,2.799,2.7736,2.736,2.694,2.6569,2.6155,2.5653,2.5147,2.4733,2.4229,2.3667,2.345,2.3276,2.3091,2.3013,2.2838,2.252,2.2078,2.1445,2.0628,1.9911,1.908,1.8195,1.7552,1.6951,1.64,1.5974,1.5784,1.5784,1.5784,1.5784,1.5784,0.0,0.0,0.0,0.0,0.0,0.0,0.0,0.0,0.0,0.0,0.0,0.0,0.0,0.0,0.0,0.0,0.0,0.0,0.0,0.0,0.0,0.0,0.0,1.4088,1.4088,1.4088,1.4041,1.3948,1.5049,1.5883,1.6525,1.8227,1.905,1.9131,1.9666,1.982,1.9751,1.9966,2.019,2.044,2.0752,2.0474,0.0,0.0,0.0,0.0,0.0,0.0,0.0,0.0,1.9183,1.9784,0.0,0.0,2.0771,2.1173,2.2349,2.3685,2.4501,2.597,2.7441,2.795,2.8459,2.8831,2.8949,2.8961,2.8961,2.9157,2.9214,2.9276,2.9383,2.9808,3.0121,2.9911,2.9532,2.9244,2.9076,2.8739,2.851,2.851,2.851,2.851,2.851,2.8379,2.8259,2.8219,2.7886,2.7644,2.7441,2.7021,2.6569,2.5957,2.5411,2.4733,2.4046,2.3667,2.3373,2.3091,2.3091,2.3013,2.2882,2.2618,2.2211,2.1668,2.0961,2.0175,1.9301,1.8519,1.7652,1.677,1.6251,1.6021,1.5927,1.5832,1.5784,1.5784,0.0,0.0,0.0,0.0,0.0,0.0,0.0,0.0,0.0,0.0,0.0,0.0,0.0,0.0,0.0,0.0,0.0,0.0,0.0,0.0,0.0,0.0,0.0,1.4088,1.4088,1.4088,1.3941,1.3606,1.4731,1.5784,1.6746,1.8269,1.8877,1.8718,1.9548,1.9696,1.9356,2.0173,2.0395,2.0265,2.0766,2.0447,1.9464,0.0,0.0,0.0,0.0,0.0,0.0,0.0,1.8745,1.9429,0.0,0.0,0.0,2.1391,2.2757,2.4323,2.5009,2.6298,2.7644,2.8299,2.8657,2.891,2.9302,2.9236,2.917,2.9341,2.9801,3.0066,2.9663,3.0044,3.0167,2.9417,2.9292,2.9112,2.8582,2.851,2.851,2.851,2.851,2.851,2.851,2.851,2.8431,2.8219,2.8219,2.8111,2.7921,2.7655,2.7319,2.6933,2.5999,2.5189,2.4498,2.3831,2.3363,2.3091,2.3091,2.3091,2.3091,2.2882,2.2662,2.2353,2.1713,2.1132,2.0546,1.9592,1.8442,1.7286,1.677,1.6447,1.6177,1.5879,1.5784,1.5784,0.0,0.0,0.0,0.0,0.0,0.0,0.0,0.0,0.0,0.0,0.0,0.0,0.0,0.0,0.0,0.0,0.0,0.0,0.0,0.0,0.0,0.0,0.0,0.0,0.0,0.0,1.4126,1.4143,1.4966,1.576,1.6525,1.8004,1.8876,1.914,1.9675,1.982,1.976,1.9957,1.9975,1.9832,2.0366,1.9859,1.8726,0.0,0.0,0.0,0.0,0.0,0.0,0.0,0.0,0.0,2.0074,0.0,0.0,2.1843,2.2806,2.3857,2.4529,2.5872,2.7208,2.7696,2.8407,2.904,2.9157,2.9236,2.9341,2.938,2.9543,2.9549,2.9285,2.938,2.9401,2.9203,2.9047,2.8906,2.8749,2.8578,2.851,2.851,2.851,2.851,2.851,2.851,2.8471,2.8431,2.8431,2.8391,2.8323,2.8099,2.7805,2.7319,2.661,2.5737,2.4807,2.4272,2.3677,2.3091,2.3091,2.3091,2.3091,2.3057,2.2882,2.2662,2.2255,2.1847,2.1248,1.994,1.8896,1.8017,1.7372,1.6817,1.6447,1.617,1.5974,1.5784,0.0,0.0,0.0,0.0,0.0,0.0,0.0,0.0,0.0,0.0,0.0,1.328,0.0,0.0,0.0,0.0,0.0,0.0,0.0,0.0,0.0,0.0,0.0,0.0,0.0,1.4088,1.4201,0.0,0.0,1.5767,1.6566,1.7763,1.862,1.9078,1.9475,1.9677,1.9687,1.982,1.9711,1.9469,1.9899,1.9272,1.798,0.0,0.0,0.0,0.0,0.0,0.0,0.0,0.0,0.0,1.9998,0.0,2.1574,2.2045,2.2876,2.3757,2.4472,2.5603,2.6787,2.7603,2.8367,2.9052,2.9339,2.9495,2.956,2.956,2.956,2.9482,2.9275,2.9236,2.9197,2.9091,2.9013,2.8922,2.8922,2.8816,2.8749,2.8749,2.8657,2.8618,2.8618,2.855,2.851,2.851,2.851,2.851,2.851,2.8391,2.8139,2.7655,2.7115,2.6238,2.5158,2.4605,2.397,2.3276,2.3135,2.3091,2.3091,2.3091,2.3047,2.2925,2.2662,2.2299,2.1802,2.0718,1.9812,1.908,1.835,1.7652,1.6998,1.6629,1.6258,1.5927,0.0,0.0,1.2831,1.2831,0.0,0.0,0.0,0.0,0.0,1.356,1.3367,1.328,0.0,0.0,0.0,1.4021,0.0,0.0,0.0,0.0,0.0,0.0,0.0,0.0,0.0,0.0,0.0,0.0,0.0,1.5858,1.6689,1.7587,1.8241,1.874,1.9112,1.9301,1.9329,1.9714,1.9575,1.915,1.937,1.8605,1.7262,1.6581,0.0,0.0,0.0,0.0,0.0,0.0,0.0,0.0,1.9803,2.0714,2.1605,2.2064,2.2981,2.3927,2.4647,2.5485,2.6445,2.7765,2.8447,2.9,2.9663,2.9792,2.9792,2.9792,2.9792,2.974,2.947,2.9419,2.9392,2.9209,2.9131,2.9131,2.9131,2.9091,2.9091,2.9091,2.8922,2.8843,2.8843,2.8657,2.855,2.855,2.851,2.851,2.851,2.851,2.8311,2.7921,2.7482,2.6693,2.5569,2.4882,2.4209,2.3503,2.3276,2.3135,2.3091,2.3091,2.3091,2.3101,2.2925,2.2583,2.2141,2.1678,2.1051,2.0337,1.96,1.8719,1.7785,1.7318,1.677,1.6265,0.0,0.0,1.3113,1.3113,0.0,0.0,0.0,0.0,1.3313,1.356,1.3173,1.3005,1.3267,1.3307,0.0,1.3673,1.3414,0.0,0.0,0.0,0.0,0.0,0.0,0.0,0.0,0.0,0.0,0.0,0.0,1.5775,1.6476,1.7505,1.8241,1.874,1.9112,1.9301,1.9311,1.9393,1.9199,1.8811,1.8994,1.8079,1.6594,1.6399,1.5546,0.0,0.0,0.0,0.0,0.0,0.0,0.0,1.9493,2.0633,2.1752,2.2211,2.2945,2.3677,2.4196,2.4988,2.5915,2.6921,2.8139,2.917,2.9663,2.9792,2.9792,2.9792,2.9792,2.9792,2.9702,2.9702,2.9702,2.9663,2.9482,2.9341,2.9341,2.9197,2.9091,2.9091,2.9052,2.9052,2.9052,2.8843,2.8724,2.8724,2.8578,2.851,2.851,2.851,2.8391,2.8139,2.7684,2.6981,2.6071,2.5401,2.4594,2.3711,2.3503,2.3319,2.3091,2.3091,2.3091,2.3091,2.3047,2.2882,2.2627,2.2132,2.1642,2.1087,2.0329,1.96,1.8812,1.8295,1.7645,1.7005,0.0,0.0,0.0,0.0,0.0,0.0,0.0,0.0,1.3313,1.356,1.312,1.2904,1.3173,1.308,0.0,0.0,1.316,1.3113,0.0,0.0,0.0,0.0,0.0,0.0,0.0,0.0,0.0,0.0,1.5061,1.5726,1.6435,1.7505,1.8241,1.874,1.9112,1.9301,1.9301,1.9301,1.9073,1.8678,1.8539,1.759,1.6245,1.5955,1.5211,1.4284,1.4595,0.0,0.0,0.0,0.0,0.0,0.0,0.0,2.1302,2.1882,2.2608,2.3285,2.3851,2.4519,2.5359,2.6828,2.8167,2.917,2.9534,2.9702,2.9792,2.9792,2.9792,2.9792,2.9792,2.9792,2.9792,2.9792,2.9702,2.9599,2.9599,2.9495,2.9429,2.9429,2.9326,2.9236,2.9236,2.904,2.8922,2.8922,2.8776,2.8657,2.8657,2.855,2.8431,2.8219,2.7966,2.74,2.6539,2.5863,2.5052,2.4122,2.3711,2.3363,2.3091,2.3091,2.3091,2.3091,2.3091,2.3057,2.2925,2.2583,2.2176,2.1678,2.115,2.0464,1.9646,1.9126,1.8473,1.7738,0.0,0.0,0.0,0.0,0.0,0.0,0.0,0.0,0.0,1.3646,1.324,1.3018,1.3186,1.2979,1.2945,0.0,0.0,0.0,1.3186,0.0,0.0,0.0,0.0,0.0,0.0,0.0,0.0,0.0,1.5202,1.5899,1.6562,1.7638,1.838,1.8896,1.9248,1.9412,1.9402,1.9329,1.9073,1.866,1.8241,1.7294,1.6098,1.5643,1.4908,1.4164,1.4416,1.4835,1.5349,1.5885,0.0,0.0,0.0,0.0,2.0538,2.1293,2.2113,2.2882,2.3493,2.4166,2.5084,2.6887,2.8167,2.9052,2.9302,2.9573,2.9792,2.9792,2.9792,2.9792,2.9792,2.9792,2.9792,2.9792,2.9792,2.9792,2.9792,2.9792,2.9792,2.9792,2.9599,2.947,2.947,2.9287,2.917,2.917,2.8961,2.8843,2.8791,2.8657,2.8459,2.8259,2.8219,2.7805,2.7015,2.6321,2.5516,2.4541,2.3787,2.3319,2.3091,2.3091,2.3091,2.3091,2.3091,2.3091,2.3091,2.2882,2.2583,2.2185,2.1919,2.1284,2.0464,1.9994,1.9347,1.8573,0.0,0.0,0.0,0.0,0.0,0.0,0.0,0.0,0.0,0.0,1.3734,1.3407,1.3233,1.3173,1.306,1.2864,1.2811,1.2918,0.0,0.0,0.0,0.0,0.0,0.0,0.0,0.0,0.0,1.4398,1.5587,1.6534,1.7217,1.8096,1.895,1.9643,1.9752,1.9802,1.9783,1.9457,1.9073,1.87,1.8442,1.7538,1.6312,1.5858,1.511,1.4355,1.4452,1.471,1.5145,1.567,1.6244,0.0,0.0,0.0,1.9812,2.0538,2.1579,2.2574,2.3047,2.4251,2.5569,2.6445,2.7592,2.8669,2.9052,2.9495,2.9792,2.9792,2.9792,2.9792,2.9792,2.9792,2.9792,2.9792,2.9792,2.9792,2.9792,2.9792,2.9792,2.9792,2.9753,2.9753,2.9753,2.9521,2.9341,2.9341,2.9157,2.8961,2.8791,2.8764,2.8657,2.8471,2.8299,2.7966,2.7441,2.6734,2.5893,2.4818,2.3701,2.3135,2.3091,2.3091,2.3091,2.3091,2.3091,2.3091,2.3091,2.2882,2.2759,2.2671,2.2397,2.1998,2.1463,2.1221,2.0546,1.9654,0.0,0.0,0.0,0.0,0.0,0.0,0.0,0.0,0.0,0.0,0.0,1.3553,1.3427,1.3153,1.2938,1.2797,1.263,0.0,0.0,0.0,0.0,0.0,0.0,0.0,0.0,0.0,0.0,1.4566,1.5709,1.6823,1.7841,1.8939,1.9667,2.0023,2.018,2.0223,2.0195,1.9824,1.9448,1.9173,1.8807,1.8093,1.7199,1.668,1.6021,1.533,1.526,1.5132,1.5055,1.5442,1.5693,1.6,1.6629,0.0,0.0,0.0,2.0763,2.1847,2.2828,2.3993,2.5094,2.5779,2.6857,2.7926,2.8459,2.9013,2.9456,2.956,2.9702,2.9792,2.9792,2.9792,2.9792,2.9792,2.9792,2.9792,2.9792,2.9792,2.9792,2.9792,2.9792,2.9792,2.9792,2.9689,2.9611,2.9611,2.9392,2.9236,2.9145,2.891,2.8764,2.8657,2.8459,2.8139,2.7748,2.7044,2.5999,2.4497,2.3537,2.3091,2.3091,2.3091,2.3091,2.3091,2.3091,2.3091,2.3091,2.3013,2.2882,2.2803,2.2662,2.2397,2.2043,2.1687,2.123,2.069,0.0,0.0,0.0,0.0,0.0,0.0,0.0,0.0,0.0,0.0,0.0,1.3686,1.3613,0.0,0.0,0.0,1.2583,0.0,0.0,0.0,0.0,0.0,0.0,0.0,0.0,0.0,1.4292,1.4692,1.5758,1.6986,1.8335,1.953,2.0271,2.0576,2.0638,2.0668,2.064,2.0204,1.9948,1.9732,1.9368,1.8817,1.8119,1.7616,1.6976,1.6263,1.5976,1.5613,1.5201,1.537,1.5428,1.5509,1.5895,1.6622,0.0,0.0,0.0,2.123,2.258,2.356,2.4423,2.5062,2.6102,2.7133,2.7794,2.8486,2.9079,2.9263,2.9573,2.9792,2.9792,2.9792,2.9792,2.9792,2.9792,2.9792,2.9792,2.9792,2.9792,2.9792,2.9869,2.9869,2.9869,2.9934,2.9934,2.9869,2.9677,2.9548,2.9419,2.9079,2.8831,2.8791,2.8618,2.8323,2.7893,2.7015,2.579,2.4282,2.3537,2.3188,2.3091,2.3091,2.3091,2.3091,2.3091,2.3091,2.3091,2.3091,2.3013,2.2882,2.2882,2.2706,2.2441,2.2043,2.1722,2.141,0.0,0.0,0.0,0.0,0.0,0.0,0.0,0.0,0.0,0.0,0.0,1.3955,1.3633,1.3573,1.3367,1.2837,1.277,0.0,0.0,0.0,0.0,0.0,0.0,0.0,0.0,1.4088,1.4292,1.4692,1.5758,1.7064,1.8586,1.9608,2.0642,2.1614,2.1211,2.1071,2.1044,2.0659,2.0367,2.0165,2.0123,1.9605,1.8827,1.8518,1.7747,1.6712,1.6249,1.5958,1.5713,1.5483,1.5565,1.5785,1.5816,1.6172,1.6686,0.0,0.0,0.0,2.2152,2.2969,2.3711,2.437,2.5432,2.6434,2.7103,2.8063,2.8882,2.9091,2.9468,2.9792,2.9792,2.9792,2.9792,2.9792,2.9792,2.9792,2.9792,2.9792,2.9792,2.9792,2.9972,3.0075,3.0075,3.0254,3.0292,3.0113,3.0075,2.987,2.9419,2.9197,2.9013,2.8803,2.8618,2.8323,2.7893,2.6332,2.5189,2.4498,2.3787,2.3373,2.3091,2.3091,2.3091,2.3091,2.3091,2.3091,2.3091,2.3091,2.3091,2.3091,2.3091,2.2969,2.2759,2.2485,2.2087,2.1651,0.0,0.0,0.0,0.0,0.0,0.0,0.0,0.0,0.0,0.0,0.0,0.0,0.0,1.372,1.3513,1.334,1.3153,0.0,0.0,0.0,0.0,0.0,0.0,0.0,0.0,1.4088,1.4292,1.4692,1.5758,1.6978,1.8378,1.9565,2.058,2.1517,2.1496,2.1511,2.144,2.1071,2.0854,2.0777,2.0648,2.039,2.007,1.9565,1.906,1.8422,1.7477,1.674,1.6211,1.5766,1.5482,1.5303,1.5293,1.5472,1.597,1.7138,1.8887,2.0587,2.1388,2.2408,2.3363,2.3917,2.4722,2.5527,2.6227,2.7092,2.7914,2.8407,2.8973,2.9378,2.9521,2.9702,2.9792,2.9792,2.9792,2.9792,2.9792,2.9895,2.9972,2.9972,3.0267,3.0508,3.0508,3.0685,3.0723,3.0508,3.0381,3.0139,2.987,2.9365,2.9052,2.9,2.8657,2.8219,2.7655,2.6196,2.5232,2.4765,2.3874,2.3363,2.3091,2.3091,2.3091,2.3091,2.3091,2.3091,2.3091,2.3091,2.3091,2.3091,2.3091,2.3057,2.2969,2.275,2.2441,2.2132,0.0,0.0,0.0,1.7113,0.0,1.6194,1.5864,1.5231,1.4768,1.4605,0.0,0.0,0.0,0.0,1.3706,1.3613,1.3333,1.3213,1.3213,0.0,0.0,0.0,0.0,0.0,0.0,1.4088,1.4292,1.4692,1.5564,1.6688,1.8061,1.9118,2.0104,2.1004,2.1431,2.1692,2.1811,2.157,2.145,2.1406,2.1284,2.1153,2.0969,2.0558,2.0056,1.9546,1.8611,1.7681,1.6813,1.6373,1.5833,1.5381,1.5189,1.5255,1.5672,1.6936,1.8318,1.9678,2.0551,2.1658,2.2703,2.3222,2.3935,2.4733,2.5401,2.6227,2.7062,2.7632,2.8327,2.8855,2.9079,2.9287,2.9546,2.9753,2.9792,2.9792,2.9792,2.9972,3.0113,3.0113,3.0495,3.0811,3.0811,3.1037,3.1099,3.0811,3.0609,3.0381,3.0113,2.9443,2.9052,2.8895,2.8578,2.8099,2.7522,2.6487,2.5622,2.4988,2.4219,2.3614,2.3232,2.3144,2.3091,2.3091,2.3091,2.3091,2.3091,2.3091,2.3091,2.3091,2.3091,2.3091,2.3101,2.2882,2.2618,2.2353,1.7279,1.7279,1.7279,1.7279,1.7062,1.6702,1.6136,1.5777,1.5454,1.4977,0.0,0.0,0.0,0.0,0.0,1.3653,1.3373,1.3247,1.324,1.346,0.0,0.0,0.0,0.0,0.0,1.4088,1.4292,1.4692,1.5193,1.6183,1.7702,1.833,1.9171,2.0262,2.1096,2.1711,2.2059,2.2087,2.2097,2.2097,2.2097,2.1839,2.1392,2.1392,2.0798,1.9928,1.9629,1.875,1.7692,1.7178,1.6676,1.6123,1.5584,1.5502,1.5758,1.6612,1.7457,1.8357,0.0,0.0,0.0,2.232,2.3156,2.397,2.469,2.5527,2.6268,2.6764,2.7551,2.8219,2.8431,2.8657,2.9013,2.9663,2.9792,2.9792,2.9792,2.9972,3.0113,3.0113,3.0647,3.0986,3.1024,3.1373,3.1447,3.1024,3.0811,3.0546,3.0113,2.9495,2.8934,2.851,2.8299,2.7966,2.7522,2.7085,2.6343,2.5232,2.4754,2.4166,2.3503,2.3232,2.3101,2.3091,2.3091,2.3091,2.3091,2.3091,2.3091,2.3091,2.3091,2.3091,2.3101,2.2882,2.2618,2.2353,1.7279,1.7279,1.7279,1.7279,1.7062,1.6828,1.6695,1.6232,1.5854,0.0,0.0,0.0,1.5076,1.4896,1.4603,1.4259,1.4159,1.4068,1.3854,1.3921,1.3968,1.3968,1.4041,1.4088,1.4088,1.4088,1.4292,1.4692,1.5318,1.6315,1.7668,1.848,1.9356,2.0201,2.0598,2.1038,2.1485,2.2055,2.222,2.2097,2.2097,2.1919,2.1607,2.1482,2.1212,2.0888,2.0065,1.9446,1.8842,1.7824,1.7178,1.6619,1.567,1.5379,1.5469,1.5852,1.6818,1.7937,1.8996,0.0,0.0,0.0,0.0,0.0,2.396,2.4551,2.5137,2.5768,2.6475,2.7144,2.7684,2.8219,2.8697,2.9,2.9314,2.956,2.9792,2.9972,3.0152,3.0292,3.0723,3.1061,3.1198,3.1447,3.1485,3.1235,3.0911,3.0584,3.033,2.956,2.8934,2.851,2.8299,2.8127,2.8007,2.7249,2.6592,2.5904,2.5147,2.4433,2.3711,2.3493,2.3276,2.3091,2.3091,2.3091,2.3091,2.3091,2.3091,2.3091,2.3091,2.3091,2.3091,2.3057,2.275,2.2397,1.7279,1.7279,1.7279,1.7279,1.7172,1.7011,1.6917,1.6606,1.6355,0.0,0.0,0.0,1.5339,1.5129,1.4941,1.4723,1.4703,1.4583,1.4289,1.4269,1.4215,1.4088,1.4088,1.4088,1.4088,1.4088,1.4292,1.4692,1.5276,1.6122,1.724,1.8168,1.8947,1.959,2.0159,2.0605,2.1024,2.1921,2.2195,2.1986,2.2155,2.1998,2.1696,2.1571,2.1482,2.1302,2.0753,2.0155,1.9546,1.8619,1.7645,1.6687,1.5812,1.555,1.5553,1.5776,1.6442,1.7304,1.8137,1.9321,2.0482,2.1333,0.0,0.0,2.3406,2.3831,2.4251,2.4828,2.5411,2.5988,2.6569,2.7144,2.7725,2.8195,2.8542,2.8937,2.956,2.9844,3.0049,3.0254,3.0647,3.0911,3.1061,3.1211,3.1261,3.1061,3.0761,3.0368,2.9857,2.9365,2.8934,2.851,2.8391,2.8299,2.8219,2.7626,2.6962,2.6321,2.5527,2.4733,2.398,2.3634,2.3363,2.3091,2.3091,2.3091,2.3091,2.3091,2.3091,2.3091,2.3091,2.3091,2.3091,2.3091,2.2784,2.2397,0.0,1.7279,1.7279,1.7279,1.7279,1.723,1.6998,1.6954,1.6863,0.0,1.6306,1.5949,1.5442,1.523,1.5095,1.5062,1.5055,1.4928,1.4589,1.4536,1.4402,1.4142,1.4108,1.4088,1.4088,1.4088,1.4292,1.465,1.5186,1.5858,1.673,1.7627,1.8282,1.8789,1.9745,2.0308,2.0557,2.162,2.1931,2.1755,2.2208,2.2132,2.1741,2.1687,2.1607,2.1437,2.1392,2.0798,1.9928,1.9279,1.7986,1.6541,1.5967,1.5784,1.5832,1.6076,1.626,1.6543,1.7258,1.829,1.9326,2.0087,2.1103,0.0,2.2784,2.3144,2.3503,2.398,2.4444,2.4861,2.5316,2.5779,2.6393,2.7185,2.7539,2.8091,2.9172,2.9521,2.9779,3.0049,3.0394,3.0622,3.066,3.0836,3.0874,3.0698,3.0457,2.9985,2.9131,2.9091,2.8895,2.851,2.851,2.8431,2.8219,2.8002,2.7464,2.6569,2.5863,2.5073,2.4196,2.3721,2.3363,2.3091,2.3091,2.3091,2.3091,2.3091,2.3091,2.3091,2.3091,2.3091,2.3091,2.3091,2.2784,2.2397,1.7279,1.7279,1.7279,1.7279,1.7279,1.7264,1.7245,1.7238,1.7191,1.7145,1.6961,1.6607,1.6087,1.6,1.5804,1.5377,1.5311,1.5184,1.4941,1.4656,1.4496,1.4436,1.4215,1.4088,1.4088,1.4088,1.4208,1.4482,1.5235,1.6015,1.6706,1.7821,1.8563,1.8971,1.9314,1.9589,1.9853,2.0955,2.1347,2.1371,2.2085,2.2264,2.2008,2.1785,2.1696,2.1607,2.1482,2.115,2.0546,1.8858,1.7667,1.6784,1.6021,1.5784,1.5832,1.5879,1.6028,1.6364,1.6951,1.7695,1.8525,1.943,2.0305,0.0,2.1793,2.2167,2.2539,2.3188,2.3537,2.396,2.4584,2.5221,2.5779,2.6144,2.6704,2.7522,2.8752,2.8961,2.9209,2.9779,2.9946,3.0088,3.0444,3.0482,3.0482,3.0444,3.0126,2.9702,2.9131,2.8961,2.8736,2.851,2.851,2.8471,2.8431,2.8082,2.7626,2.7062,2.5988,2.5147,2.4423,2.3797,2.3363,2.3091,2.3091,2.3091,2.3091,2.3091,2.3091,2.3091,2.3091,2.3091,2.3091,2.3091,2.2784,2.2397,1.7279,1.7279,1.7279,1.7279,1.7279,1.7279,1.7279,1.7279,1.7279,1.7279,1.7113,1.6885,1.665,1.6366,1.6116,1.5819,1.5665,1.5491,1.5197,1.5037,1.489,1.475,1.4603,1.4566,1.4566,1.4566,1.4653,1.4863,1.5669,1.639,1.7069,1.8255,1.902,1.9392,1.9752,2.007,2.0451,2.1197,2.1631,2.189,2.2404,2.2441,2.222,2.2008,2.1919,2.1874,2.1607,2.115,2.0365,1.8681,1.7667,1.7012,1.6109,1.5784,1.5784,1.5784,1.5879,1.6069,1.6494,1.7052,1.7699,1.8427,1.9163,0.0,0.0,2.1078,2.1544,2.2113,2.2432,2.2794,2.3343,2.394,2.4488,2.4967,2.5527,2.6238,2.7203,2.8035,2.8685,2.926,2.9378,2.9573,2.9857,2.9896,2.9973,3.0075,2.9805,2.9443,2.9131,2.8922,2.8724,2.851,2.851,2.8471,2.8339,2.7898,2.74,2.6857,2.5821,2.4988,2.4348,2.3754,2.3363,2.3091,2.3091,2.3091,2.3091,2.3091,2.3091,2.3091,2.3091,2.3091,2.3091,2.3091,2.2784,2.2397,1.738,1.738,1.738,1.7473,1.7466,1.7466,1.7466,1.7426,1.738,1.7333,1.7153,1.7048,1.7065,1.6693,1.6429,1.6484,1.6293,1.6021,1.5678,1.5604,1.5443,1.5109,1.5035,1.5008,1.5008,1.5008,1.5098,1.5322,1.6057,1.6764,1.743,1.8689,1.947,1.9811,2.0352,2.0815,2.1169,2.1689,2.2093,2.2464,2.2761,2.2706,2.2441,2.223,2.2141,2.2052,2.1687,2.106,2.0147,1.8681,1.78,1.7185,1.6204,1.5832,1.5784,1.5784,1.5784,1.5832,1.6076,1.6494,1.6951,1.7365,1.801,1.8696,0.0,0.0,0.0,2.0943,2.123,2.1553,2.2033,2.2545,2.3149,2.381,2.4348,2.4893,2.5558,2.6805,2.7886,2.8474,2.8724,2.8949,2.9263,2.9341,2.947,2.9663,2.9443,2.9275,2.9052,2.8843,2.8657,2.851,2.8471,2.8339,2.8219,2.7644,2.7062,2.6445,2.5527,2.4733,2.412,2.3634,2.3319,2.3091,2.3091,2.3091,2.3091,2.3091,2.3091,2.3091,2.3091,2.3091,2.3091,2.3091,2.2784,2.2397,1.7628,1.7628,1.7721,1.7994,1.7986,1.7986,1.7986,1.7807,1.7574,1.7326,1.7279,1.7301,1.7359,1.7291,1.7308,1.7436,1.7414,1.7183,1.6594,1.6313,1.5926,1.5357,1.5149,1.5008,1.5008,1.5008,1.5091,1.5294,1.622,1.6925,1.743,1.881,1.9589,1.9811,2.053,2.0857,2.0969,2.1826,2.2188,2.226,2.2848,2.2925,2.2715,2.2485,2.2274,2.2008,2.132,2.0916,2.0419,1.8896,1.8064,1.7458,1.6447,1.5981,1.5784,1.5784,1.5784,1.5832,1.5832,1.6069,1.6359,1.6629,1.7091,1.7598,1.8187,0.0,1.9155,1.9621,0.0,2.06,2.1087,0.0,0.0,2.2882,2.3493,2.409,2.4584,2.5306,2.6268,2.751,2.7822,2.8183,2.8791,2.9184,2.9353,2.917,2.9131,2.9052,2.8843,2.8657,2.851,2.851,2.8351,2.8219,2.8219,2.7371,2.6715,2.6238,2.5094,2.4337,2.3841,2.3353,2.3144,2.3091,2.3091,2.3091,2.3091,2.3091,2.3091,2.3091,2.3091,2.3091,2.3091,2.3091,2.2784,2.2397,1.7628,1.7675,1.7768,1.804,1.8087,1.8087,1.8087,1.7854,1.7621,1.7333,1.7447,1.7614,1.7616,1.7797,1.7963,1.7995,1.8066,1.7909,1.7478,1.7167,1.6744,1.6157,1.5865,1.561,1.5464,1.561,1.5881,1.6274,1.7098,0.0,0.0,0.0,2.0395,2.0755,2.1323,2.1661,2.18,2.2337,2.2621,2.2717,2.2979,2.3047,2.2969,2.2706,2.2485,2.222,2.1642,2.1186,2.0682,1.9438,1.8611,1.7971,1.7099,1.6683,1.6454,1.6123,1.6028,1.5981,1.5832,1.5879,1.5974,1.6116,1.64,1.6777,1.7138,1.7598,1.8017,1.838,0.0,0.0,0.0,0.0,0.0,0.0,2.2104,2.2809,2.344,2.4003,2.4935,2.6558,2.7062,2.7551,2.8143,2.87,2.904,2.8922,2.8922,2.8882,2.8791,2.8618,2.851,2.851,2.8299,2.8047,2.7805,2.6951,2.6207,2.5611,2.4594,2.3917,2.3624,2.3276,2.3091,2.3091,2.3091,2.3091,2.3091,2.3091,2.3091,2.3091,2.3091,2.3091,2.3091,2.3091,2.2784,2.2397,1.7861,1.7861,1.7908,1.8226,1.8272,1.8272,1.8133,1.8077,1.7943,1.7599,1.7886,1.8178,1.8267,1.8587,1.8815,1.8912,1.902,1.8882,1.848,1.8203,1.7755,1.7071,1.68,1.6537,1.6204,1.6494,1.6817,1.7279,1.8118,1.8858,0.0,0.0,2.1069,2.1446,2.1963,2.2264,2.2441,2.275,2.2969,2.3091,2.3091,2.3091,2.3091,2.2882,2.2662,2.2441,2.1963,2.1544,2.1042,2.0039,1.9263,1.8565,1.7831,1.7426,1.7113,1.6643,1.6407,1.6265,1.5974,1.5879,1.5784,1.5784,1.5927,1.6123,1.6353,1.6676,1.7052,1.7232,1.7567,0.0,0.0,0.0,1.9438,2.0175,0.0,2.157,2.2299,2.2828,2.3777,2.5516,2.6238,2.6828,2.7406,2.8023,2.8395,2.8435,2.8502,2.8514,2.8526,2.8431,2.8363,2.8363,2.8059,2.7725,2.7319,2.6404,2.5611,2.4978,2.4133,2.358,2.3363,2.3188,2.3091,2.3091,2.3091,2.3091,2.3091,2.3091,2.3091,2.3091,2.3091,2.3091,2.3091,2.3091,2.2784,2.2397,1.8435,1.828,1.8226,1.8689,1.8781,1.8596,1.8179,1.8597,1.8758,1.8218,1.8671,1.9159,1.9494,1.9783,2.0066,2.0408,2.0688,2.048,1.9582,1.9544,1.9006,1.79,1.7864,1.7662,1.7239,1.7505,1.7792,1.8087,1.8988,1.9583,0.0,0.0,0.0,2.1437,2.2087,2.2388,2.2432,2.2872,2.3091,2.3091,2.3091,2.3091,2.3091,2.2882,2.2794,2.2715,2.2274,2.1919,2.1508,2.0609,1.9911,1.9347,1.8611,1.8056,1.7598,1.7326,1.6958,1.6541,1.6265,1.5981,1.5784,1.5784,1.5832,1.5832,1.5825,1.6028,1.6224,1.6272,1.665,1.7113,1.7333,1.7924,1.8657,1.9438,2.0002,0.0,0.0,2.1837,2.2755,2.436,2.539,2.6102,2.6475,2.6969,2.7348,2.7522,2.7742,2.7874,2.7921,2.7921,2.7921,2.7921,2.7482,2.7115,2.6933,2.579,2.4978,2.4498,2.3831,2.3363,2.3091,2.3091,2.3091,2.3091,2.3091,2.3091,2.3091,2.3091,2.3091,2.3091,2.3091,2.3091,2.3091,2.3091,2.2784,2.2397,1.9104,1.9142,1.905,1.8827,1.8781,1.8768,1.8707,1.8897,1.9072,1.9064,1.961,2.0066,2.0377,2.1002,2.1441,2.1564,2.1827,2.1769,2.1291,2.1055,2.0513,1.9641,1.9416,1.8935,1.8163,1.8399,1.8715,1.9034,1.95,2.0147,0.0,0.0,0.0,0.0,2.222,2.2485,2.2662,2.2969,2.3091,2.3091,2.3091,2.3091,2.3091,2.3013,2.3013,2.2969,2.2671,2.2397,2.2087,2.1463,2.0916,2.0402,1.982,1.9363,1.885,1.8203,1.7692,1.7232,1.6831,1.6414,1.6076,1.6076,1.5927,1.5784,1.5784,1.5879,1.5933,1.5933,1.6069,1.6258,1.6548,1.6911,1.7372,1.7971,1.8619,1.9309,0.0,2.1114,2.2236,2.3256,2.4466,2.5274,2.5443,2.5977,2.6351,2.6434,2.6764,2.6928,2.6992,2.7126,2.7219,2.7219,2.691,2.6569,2.6238,2.5221,2.4509,2.4046,2.3484,2.3188,2.3091,2.3091,2.3091,2.3091,2.3091,2.3091,2.3091,2.3091,2.3091,2.3091,2.3091,2.3091,2.3091,2.3091,2.2925,2.2618,1.9866,2.0149,2.0062,1.9304,1.9162,1.9223,1.9423,1.9683,1.9952,2.0198,2.085,2.137,2.167,2.2281,2.2677,2.2677,2.2929,2.2979,2.2677,2.2445,2.2049,2.137,2.1128,2.0636,1.9789,1.9857,2.0014,2.0159,2.036,2.0753,0.0,0.0,0.0,0.0,2.2397,2.2618,2.2794,2.3013,2.3091,2.3091,2.3091,2.3091,2.3091,2.3091,2.3091,2.3091,2.2969,2.275,2.2485,2.2087,2.1642,2.1186,2.0789,2.0292,1.9737,1.9134,1.8527,1.7978,1.7535,1.7059,1.6683,1.6555,1.6359,1.6211,1.6116,1.6062,1.6062,1.6062,1.6062,1.6116,1.6177,1.6407,1.6676,1.7005,1.752,1.8164,0.0,2.0249,2.1338,2.2078,2.3387,2.4348,2.4615,2.5031,2.5359,2.5527,2.5779,2.5946,2.603,2.6207,2.6302,2.6302,2.6071,2.5768,2.539,2.4627,2.4036,2.3667,2.3162,2.2877,2.2867,2.2721,2.273,2.2877,2.2877,2.2955,2.3091,2.3091,2.3091,2.3091,2.3091,2.3091,2.3091,2.3091,2.2925,2.2618,2.0689,2.1251,2.1347,2.0292,1.9926,1.994,2.0321,2.0868,2.1354,2.1642,2.2453,2.3079,2.3329,2.3578,2.3777,2.3777,2.3976,2.4026,2.3777,2.3777,2.3507,2.2934,2.2868,2.2584,2.1995,2.1813,2.1571,2.1386,2.1427,2.1455,0.0,0.0,0.0,0.0,2.2583,2.2803,2.2847,2.3013,2.3091,2.3091,2.3091,2.3091,2.3091,2.3091,2.3091,2.3091,2.3091,2.2969,2.275,2.253,2.2132,2.1741,2.1526,2.0934,2.0337,2.0065,1.9471,1.8781,1.8319,1.7963,1.7623,1.7138,1.7044,1.6951,1.6709,1.6669,1.6676,1.6676,1.6676,1.6588,1.6312,1.6447,1.6588,1.6588,1.6831,1.7301,1.8203,1.9209,2.0121,2.0862,2.2157,2.3266,2.4077,2.4163,2.4368,2.4775,2.4818,2.4946,2.5115,2.5158,2.5158,2.5158,2.4988,2.4733,2.4456,2.4003,2.3667,2.345,2.2801,2.251,2.25,2.208,2.21,2.248,2.25,2.2744,2.3062,2.3081,2.3091,2.3091,2.3091,2.3091,2.3091,2.3091,2.2784,2.2353,2.2342,2.2703,2.2935,2.2901,2.2044,2.1461,2.1555,2.1893,2.2331,2.278,2.3416,2.3877,2.4183,2.443,2.4578,2.4578,2.4627,2.4686,2.4587,2.4578,2.4433,2.4076,2.4076,2.3785,2.3181,2.3119,2.2829,2.2337,2.2372,2.2295,2.2132,0.0,0.0,0.0,2.2759,2.2882,2.3013,2.3091,2.3091,2.3091,2.3091,2.3091,2.3091,2.3091,2.3091,2.3091,2.3091,2.3057,2.3013,2.275,2.2627,2.2485,2.222,2.1776,2.1284,2.1096,2.051,1.9828,1.9325,1.8666,1.8015,1.7758,1.753,1.7333,1.7287,1.7481,1.7707,1.7707,1.7559,1.7326,1.7052,1.677,1.6541,1.6359,1.6548,1.6918,1.7512,1.8288,1.9117,2.0076,2.0988,2.198,2.3057,2.346,2.3721,2.3841,2.4013,2.41,2.4176,2.4358,2.4454,2.4454,2.4411,2.4229,2.396,2.3711,2.345,2.3178,2.2715,2.251,2.25,2.208,2.1943,2.206,2.2373,2.2578,2.2695,2.2964,2.3091,2.3091,2.3091,2.3091,2.3091,2.3091,2.2784,2.2388,2.3664,2.4259,2.4793,2.5064,2.4467,2.3741,2.3054,2.3088,2.3379,2.3935,2.4381,2.4735,2.4981,2.5137,2.5235,2.5235,2.5235,2.5235,2.5235,2.5235,2.5186,2.503,2.503,2.4827,2.4339,2.4152,2.3786,2.3148,2.2969,2.2713,2.2397,0.0,0.0,0.0,2.2882,2.3013,2.3091,2.3091,2.3091,2.3091,2.3091,2.3091,0.0,2.3091,2.3091,2.3091,2.3091,2.3091,2.3091,2.2969,2.2882,2.275,2.2618,2.2264,2.183,2.1597,2.1069,2.0401,1.99,1.9257,1.8666,1.833,1.8153,1.8013,1.7872,1.8021,1.8171,1.8171,1.8153,1.7995,1.7574,1.7277,1.6904,1.6454,1.6494,1.673,1.7106,1.78,1.8581,1.9492,2.0447,2.1356,2.222,2.2847,2.3242,2.3319,2.345,2.3484,2.3484,2.3624,2.3711,2.3711,2.3711,2.3667,2.3493,2.3363,2.3232,2.3091,2.2529,2.2236,2.2217,2.1592,2.1416,2.1621,2.2051,2.2344,2.2549,2.2925,2.3091,2.3091,2.3091,2.3091,2.3091,2.3091,2.2784,2.2397,2.4977,2.579,2.6532,2.6637,2.6644,2.6139,2.4699,2.4402,2.4495,2.4892,2.5186,2.544,2.5684,2.5693,2.5693,2.5693,2.5693,2.5693,2.5693,2.5693,2.5693,2.5693,2.5693,2.5586,2.5333,2.5006,2.4487,2.3765,2.346,2.2995,2.2485,0.0,0.0,2.2847,2.3013,2.3091,2.3091,2.3091,2.3091,2.3091,2.3091,2.3091,2.3091,2.3091,2.3091,2.3091,2.3091,2.3091,2.3091,2.3091,2.2969,2.2838,2.2838,2.2539,2.2141,2.1919,2.1403,2.0822,2.0289,1.9834,1.9365,1.8862,1.8785,1.8691,1.846,1.845,1.8483,1.8483,1.8625,1.8552,1.8053,1.7774,1.7461,1.681,1.6676,1.6777,1.7066,1.7667,1.8365,1.9096,2.0229,0.0,2.1607,2.2362,2.2882,2.3047,2.3101,2.3091,2.3091,2.3091,2.3091,2.3091,2.3091,2.3091,2.3091,2.3091,2.3091,2.3081,2.2285,2.1885,2.1855,2.1006,2.0781,2.1132,2.1611,2.2041,2.2461,2.2838,2.3042,2.3091,2.3091,2.3091,2.3091,2.3091,2.2838,2.2441,2.6569,2.6746,2.6883,2.6951,2.691,2.681,2.6553,2.6033,2.5588,2.5283,2.544,2.5645,2.5684,2.5693,2.5693,2.5693,2.5693,2.5693,2.5693,2.5693,2.5693,2.5693,2.5693,2.5684,2.5635,2.5557,2.5129,2.4275,2.4208,2.3771,2.296,2.3013,2.3057,2.3047,2.3091,2.3091,2.3091,2.3091,2.3091,2.3091,2.3091,2.3091,2.3091,2.3091,2.3091,2.3091,2.3091,2.3091,2.3091,2.3091,2.3101,2.3057,2.3057,2.2882,2.2671,2.2627,2.2148,2.1515,2.103,2.0365,1.9696,1.9223,1.9099,1.9099,1.9049,1.9311,1.9546,1.9546,1.9376,1.9118,1.8702,1.8011,1.7469,1.7242,1.7185,1.7279,1.7559,1.7893,1.8365,1.9096,1.992,2.0699,2.1392,2.2274,2.2794,2.2847,2.3013,2.3091,2.3091,2.3091,2.3091,2.3091,2.3091,2.3091,2.3091,2.3091,2.3091,2.3081,2.2285,2.1885,2.1855,2.1006,2.0644,2.0742,2.1152,2.1592,2.2031,2.2451,2.2779,2.3091,2.3091,2.3091,2.3091,2.3091,2.2925,2.2706,2.7637,2.7676,2.7676,2.7676,2.7676,2.7598,2.7383,2.7075,2.6664,2.5954,2.5976,2.5986,2.5713,2.5693,2.5693,2.5693,2.5693,2.5693,2.5693,2.5693,2.5693,2.5693,2.5693,2.5693,2.5693,2.5693,2.541,2.4756,2.4531,2.4092,2.3467,2.3198,2.3091,2.3091,2.3091,2.3091,2.3091,2.3091,2.3091,2.3091,2.3091,2.3091,2.3091,2.3091,2.3091,2.3091,2.3091,2.3091,2.3091,2.3091,2.3091,2.3091,2.3091,2.3047,2.2925,2.2847,2.2256,2.1569,2.1221,2.0549,1.9854,1.9635,1.9474,1.9403,1.9403,1.9476,1.9529,1.9529,1.9525,1.9353,1.8879,1.8418,1.8036,1.7835,1.7964,1.8125,1.8257,1.8627,1.905,1.9517,2.0192,2.088,2.1347,2.2008,2.2539,2.2803,2.2882,2.3013,2.3091,2.3091,2.3091,2.3091,2.3091,2.3091,2.3091,2.3091,2.3091,2.3081,2.2285,2.1885,2.1855,2.1006,2.0605,2.0625,2.1045,2.1484,2.1934,2.2578,2.2916,2.3091,2.3091,2.3091,2.3091,2.3091,2.2969,2.2759,2.8232,2.8291,2.8291,2.8291,2.8291,2.8174,2.7904,2.7855,2.7461,2.6514,2.6387,2.6221,2.5732,2.5693,2.5693,2.5693,2.5693,2.5693,2.5693,2.5693,2.5693,2.5693,2.5693,2.5693,2.5693,2.5693,2.5518,2.5116,2.4629,2.4199,2.3779,2.3305,2.3091,2.3091,2.3091,2.3091,2.3091,2.3091,2.3091,2.3091,2.3091,2.3091,2.3091,2.3091,2.3091,2.3091,2.3091,2.3091,2.3091,2.3091,2.3091,2.3091,2.3091,2.3091,2.3057,2.2925,2.2341,2.1681,2.1492,2.079,2.0114,2.0074,1.986,1.9676,1.9676,1.9548,1.942,1.942,1.9496,1.9401,1.8982,1.8794,1.8661,1.8511,1.8825,1.9058,1.9104,1.9554,1.992,2.0102,2.0736,2.1186,2.1392,2.1839,2.223,2.2627,2.2759,2.2882,2.3013,2.3101,2.3091,2.3091,2.3091,2.3091,2.3091,2.3003,2.2964,2.2955,2.2148,2.1748,2.1719,2.0967,2.0605,2.0625,2.0937,2.1396,2.1953,2.275,2.3091,2.3091,2.3091,2.3091,2.3091,2.3091,2.3013,2.2847,2.8281,2.8291,2.8291,2.8291,2.8291,2.8281,2.8242,2.8232,2.7793,2.6553,2.6387,2.6221,2.5732,2.5693,2.5693,2.5693,2.5693,2.5693,2.5693,2.5693,2.5693,2.5693,2.5693,2.5693,2.5693,2.5693,2.5518,2.5116,2.4629,2.4199,2.3779,2.3305,2.3091,2.3091,2.3091,2.3091,2.3091,2.3091,2.3091,2.3091,2.3091,2.3091,2.3091,2.3091,2.3091,2.3091,2.3091,2.3091,2.3091,2.3091,2.3091,2.3091,2.3091,2.3091,2.3091,2.3101,2.2769,2.2366,2.2163,2.1486,2.0742,2.059,2.0186,1.9863,1.9863,1.9863,1.9824,1.9824,1.9576,1.9285,1.9191,1.9117,1.9099,1.9173,1.9541,1.9882,2.011,2.0428,2.069,2.0862,2.132,2.1562,2.1446,2.1839,2.2097,2.2141,2.2539,2.2794,2.2847,2.3013,2.3091,2.3091,2.3091,2.3091,2.3091,2.2721,2.2568,2.2568,2.1668,2.1259,2.1239,2.0791,2.0605,2.0605,2.0644,2.1143,2.1953,2.275,2.3091,2.3091,2.3091,2.3091,2.3091,2.3091,2.3101,2.3057,2.8291,2.8291,2.8291,2.8291,2.8291,2.8291,2.8291,2.8291,2.8018,2.7307,2.6934,2.6602,2.6172,2.5849,2.5693,2.5693,2.5693,2.5693,2.5693,2.5693,2.5693,2.5693,2.5693,2.5693,2.5693,2.5693,2.5596,2.5469,2.5019,2.459,2.415,2.373,2.3389,2.311,2.3408,2.3379,2.3091,2.3091,2.3091,2.3091,2.3091,2.3091,2.3091,2.3091,2.3091,2.3091,2.3091,2.3091,2.3091,2.3091,2.3091,2.3091,2.3091,2.3091,2.3091,2.3091,2.2799,2.2467,2.2392,2.1761,2.106,2.0989,2.0542,2.0147,2.0147,2.002,1.9902,1.9902,1.9666,1.9445,1.9272,1.9347,1.9446,1.9583,1.9921,2.0339,2.0656,2.097,2.1159,2.1248,2.1651,2.1919,2.183,2.2097,2.2264,2.2264,2.2441,2.2618,2.2794,2.3013,2.3091,2.3091,2.3091,2.2974,2.2721,2.2598,2.2383,2.2129,2.1483,2.119,2.1181,2.0771,2.0752,2.0977,2.125,2.1699,2.2305,2.2847,2.3091,2.3091,2.3091,2.3091,2.3091,2.3091,2.3091,2.3101,2.8291,2.8291,2.8291,2.8291,2.8291,2.8291,2.8291,2.8291,2.8184,2.7891,2.7471,2.7002,2.6445,2.5996,2.5693,2.5693,2.5693,2.5693,2.5693,2.5693,2.5693,2.5693,2.5693,2.5693,2.5693,2.5693,2.5693,2.5693,2.5283,2.4912,2.46,2.417,2.3809,2.3481,2.3838,2.373,2.333,2.333,2.3218,2.3091,2.3091,2.3091,2.3091,2.3091,2.3091,2.3091,2.3091,2.3091,2.3091,2.3091,2.3091,2.3091,2.3091,2.3091,2.3091,2.3091,2.2886,2.2695,2.2695,2.2126,2.1541,2.1455,2.0974,2.0536,2.041,2.0255,2.0098,2.002,1.9912,1.9754,1.9508,1.9632,1.9838,2.0078,2.0431,2.0826,2.1257,2.1553,2.1696,2.1696,2.2052,2.2274,2.2185,2.2397,2.2485,2.2397,2.2485,2.2618,2.2803,2.3013,2.3091,2.3091,2.3091,2.2896,2.2519,2.2383,2.2119,2.1689,2.125,2.1035,2.1025,2.0752,2.081,2.122,2.1699,2.2129,2.2549,2.2925,2.3091,2.3091,2.3091,2.3091,2.3091,2.3091,2.3091,2.3091,2.8291,2.8291,2.8291,2.8291,2.8291,2.8291,2.8291,2.8291,2.8291,2.8281,2.792,2.7334,2.6484,2.5996,2.5693,2.5693,2.5693,2.5693,2.5693,2.5693,2.5693,2.5693,2.5693,2.5693,2.5693,2.5693,2.5693,2.5693,2.5283,2.5116,2.5096,2.4609,2.4404,2.4394,2.4404,2.418,2.3779,2.3779,2.3535,2.3091,2.3091,2.3091,2.3091,2.3091,2.3091,2.3091,2.3091,2.3091,2.3091,2.3091,2.3091,2.3091,2.3091,2.3091,2.3091,2.3091,2.3091,2.3091,2.3091,2.2779,2.2402,2.1982,2.1553,2.1073,2.0703,2.0605,2.0527,2.0342,2.0303,2.0225,1.9942,2.0042,2.0331,2.0731,2.1117,2.1534,2.2041,2.2264,2.2397,2.2397,2.2618,2.2715,2.2441,2.2618,2.2715,2.2441,2.2662,2.2803,2.2803,2.3013,2.3091,2.3091,2.3091,2.2896,2.2519,2.21,2.167,2.119,2.0791,2.0615,2.0615,2.0605,2.081,2.122,2.1699,2.2129,2.2549,2.2925,2.3091,2.3091,2.3091,2.3091,2.3091,2.3091,2.3091,2.3091,2.8621,2.8568,2.8514,2.8344,2.8291,2.8291,2.8291,2.8291,2.8291,2.8291,2.793,2.7611,2.7337,2.6865,2.6611,2.6611,2.6611,2.6611,2.6611,2.6338,2.6182,2.6182,2.5849,2.5693,2.5693,2.5693,2.5693,2.5693,2.5596,2.5371,2.5106,2.4969,2.4697,2.4424,2.4727,2.4619,2.4199,2.3906,2.3711,2.3555,2.3218,2.3091,2.3091,2.3091,2.3091,2.3091,2.3091,2.3091,2.3091,2.3091,2.3091,2.3091,2.3091,2.3091,2.3091,2.3091,2.3091,2.3091,2.3091,2.2789,2.248,2.2344,2.1726,2.1161,2.1055,2.0781,2.0566,2.0527,2.0489,2.045,2.0225,2.0442,2.078,2.1023,2.1414,2.1838,2.2252,2.2353,2.2397,2.2397,2.2618,2.2759,2.2662,2.2882,2.2969,2.2872,2.2969,2.2925,2.2803,2.3013,2.3091,2.3091,2.3091,2.2803,2.209,2.1953,2.1514,2.0781,2.0674,2.0605,2.0615,2.0879,2.126,2.1699,2.2129,2.2549,2.2906,2.3042,2.3091,2.3091,2.3091,2.3091,2.3091,2.3091,2.3091,2.3091,2.8877,2.8834,2.8824,2.8611,2.8601,2.8558,2.8461,2.8451,2.8398,2.8291,2.8066,2.7953,2.7953,2.7656,2.7363,2.7041,2.7012,2.7012,2.7012,2.6768,2.6621,2.6621,2.6357,2.6093,2.5986,2.5977,2.5908,2.5693,2.5693,2.5596,2.5322,2.5322,2.5176,2.4922,2.5195,2.5078,2.4639,2.4375,2.4082,2.3769,2.3496,2.3247,2.3091,2.3091,2.3091,2.3091,2.3091,2.3091,2.3091,2.3091,2.3091,2.3091,2.3091,2.3091,2.3091,2.3091,2.3091,2.3091,2.3091,2.2906,2.2672,2.2549,2.2068,2.159,2.1268,2.0889,2.0605,2.0605,2.0605,2.0615,2.0634,2.0836,2.1163,2.1617,2.1911,2.2184,2.2604,2.2652,2.2652,2.2652,2.2794,2.2925,2.2925,2.3013,2.3091,2.3091,2.3091,2.3057,2.2925,2.3013,2.3091,2.3091,2.3091,2.2812,2.2129,2.1963,2.1611,2.1104,2.1104,2.1104,2.1114,2.1348,2.1719,2.2139,2.2402,2.2711,2.3091,2.3091,2.3091,2.3091,2.3091,2.3091,2.3091,2.3091,2.3091,2.3091,2.9132,2.9132,2.9132,2.9079,2.9079,2.9026,2.8781,2.8737,2.8621,2.8344,2.8344,2.8291,2.8291,2.8291,2.7969,2.7168,2.71,2.71,2.71,2.707,2.706,2.706,2.7031,2.6836,2.6435,2.6406,2.6172,2.5693,2.5693,2.5693,2.5693,2.5693,2.5693,2.5693,2.5693,2.5508,2.5165,2.5125,2.4609,2.3877,2.3848,2.3574,2.314,2.314,2.312,2.3091,2.3091,2.3091,2.3091,2.3091,2.3091,2.3091,2.3091,2.3091,2.3091,2.3091,2.3091,2.3091,2.3091,2.3091,2.3003,2.2656,2.2539,2.2285,2.1395,2.0908,2.0644,2.0615,2.0625,2.0781,2.1112,2.1239,2.1541,2.2383,2.2539,2.2652,2.3042,2.3091,2.3091,2.3091,2.3091,2.3091,2.3091,2.3091,2.3091,2.3091,2.3091,2.3091,2.3091,2.3091,2.3091,2.3091,2.3091,2.2896,2.2519,2.2129,2.1914,2.1885,2.1885,2.1885,2.1885,2.1914,2.2139,2.251,2.2539,2.274,2.3091,2.3091,2.3091,2.3091,2.3091,2.3091,2.3091,2.3091,2.3091,2.3091,2.9501,2.9501,2.9396,2.9132,2.9079,2.9079,2.9026,2.9036,2.893,2.8621,2.8631,2.8514,2.8291,2.8291,2.8213,2.8008,2.7988,2.7988,2.7988,2.7685,2.751,2.751,2.7197,2.6973,2.6865,2.6553,2.6172,2.5693,2.5693,2.5693,2.5693,2.5693,2.5693,2.5693,2.5693,2.5625,2.5557,2.5215,2.4998,2.4783,2.4404,2.4014,2.3633,2.3633,2.3428,2.3091,2.3091,2.3091,2.3091,2.3091,2.3091,2.3091,2.3091,2.3091,2.3091,2.3091,2.3091,2.3091,2.3091,2.3091,2.3071,2.2974,2.2711,2.2285,2.1395,2.1112,2.0977,2.0674,2.084,2.1103,2.1171,2.1726,2.2275,2.248,2.2783,2.2984,2.3081,2.3091,2.3091,2.3091,2.3091,2.3091,2.3091,2.3091,2.3091,2.3091,2.3091,2.3091,2.3091,2.3091,2.3091,2.3091,2.3091,2.2896,2.2519,2.2412,2.2207,2.1885,2.1885,2.1885,2.1894,2.2217,2.2412,2.2529,2.2808,2.3003,2.3091,2.3091,2.3091,2.3091,2.3091,2.3091,2.3091,2.3091,2.3091,2.3091,2.9827,2.9774,2.9722,2.9564,2.9511,2.9448,2.9343,2.9343,2.9237,2.893,2.8877,2.8824,2.8654,2.8558,2.8461,2.8461,2.8344,2.8291,2.8291,2.8086,2.7949,2.7949,2.7725,2.751,2.7314,2.6894,2.6367,2.5693,2.5693,2.5693,2.5693,2.5693,2.5693,2.5693,2.5693,2.5693,2.5674,2.5478,2.5254,2.5096,2.4805,2.4453,2.4072,2.4072,2.3809,2.3437,2.3437,2.3266,2.3091,2.3091,2.3091,2.3091,2.3091,2.3091,2.3091,2.3091,2.3091,2.3091,2.3091,2.3091,2.3091,2.3091,2.2779,2.2393,2.1882,2.167,2.1465,2.1261,2.1367,2.1592,2.1736,2.2197,2.2578,2.2721,2.2945,2.3091,2.3091,2.3091,2.3091,2.3091,2.3091,2.3091,2.3091,2.3091,2.3091,2.3091,2.3091,2.3091,2.3091,2.3091,2.3091,2.3091,2.3091,2.2984,2.276,2.275,2.2588,2.2178,2.2363,2.2461,2.2471,2.2652,2.275,2.2769,2.3003,2.3091,2.3091,2.3091,2.3091,2.3091,2.3091,2.3091,2.3091,2.3091,2.3091,2.3091,2.9994,2.9994,2.9994,2.9994,2.9994,2.9942,2.9722,2.9659,2.9554,2.9237,2.9185,2.9185,2.9132,2.8877,2.8781,2.8781,2.8558,2.8398,2.8291,2.8291,2.8291,2.8291,2.8291,2.8125,2.7826,2.7266,2.6631,2.5791,2.5713,2.5693,2.5693,2.5693,2.5693,2.5693,2.5693,2.5693,2.5693,2.5693,2.5518,2.5166,2.5166,2.4902,2.4521,2.4521,2.4258,2.3887,2.3887,2.3603,2.3198,2.3198,2.3149,2.3091,2.3091,2.3091,2.3091,2.3091,2.3091,2.3091,2.3091,2.3091,2.3091,2.3091,2.2828,2.2588,2.2529,2.2236,2.1963,2.1894,2.1934,2.209,2.2441,2.2568,2.2682,2.3033,2.3091,2.3091,2.3091,2.3091,2.3091,2.3091,2.3091,2.3091,2.3091,2.3091,2.3091,2.3091,2.3091,2.3091,2.3091,2.3091,2.3091,2.3091,2.3091,2.3091,2.3091,2.3091,2.2916,2.2607,2.2925,2.3091,2.3091,2.3091,2.3091,2.3091,2.3091,2.3091,2.3091,2.3091,2.3091,2.3091,2.3091,2.3091,2.3091,2.3091,2.3091,2.3091,2.9994,2.9994,2.9994,2.9994,2.9994,2.9994,2.9942,2.9942,2.9827,2.9554,2.9501,2.9396,2.9132,2.9079,2.9036,2.9036,2.8973,2.8761,2.8344,2.8291,2.8291,2.8291,2.8291,2.8262,2.8193,2.7422,2.6777,2.6289,2.5869,2.5693,2.5693,2.5693,2.5693,2.5693,2.5693,2.5693,2.5693,2.5693,2.5645,2.5635,2.5635,2.5371,2.4971,2.4971,2.4697,2.4316,2.4316,2.4053,2.3691,2.3691,2.3447,2.3091,2.3091,2.3091,2.3091,2.3091,2.3091,2.3091,2.3091,2.3091,2.3091,2.3091,2.3042,2.2906,2.2598,2.2461,2.2314,2.1963,2.2168,2.2432,2.25,2.276,2.3023,2.3081,2.3091,2.3091,2.3091,2.3091,2.3091,2.3091,2.3091,2.3091,2.3091,2.3091,2.3091,2.3091,2.3091,2.3091,2.3091,2.3091,2.3091,2.3091,2.3091,2.3091,2.3091,2.3091,2.3062,2.3003,2.3062,2.3091,2.3091,2.3091,2.3091,2.3091,2.3091,2.3091,2.3091,2.3091,2.3091,2.3091,2.3091,2.3091,2.3091,2.3091,2.3091,2.3091,2.9994,2.9994,2.9994,2.9994,2.9994,2.9994,2.9994,2.9994,2.9942,2.9827,2.9827,2.9774,2.9617,2.9459,2.9396,2.9396,2.9185,2.8973,2.8761,2.8611,2.8514,2.8514,2.8398,2.8184,2.7959,2.7568,2.7051,2.6387,2.6182,2.5967,2.5693,2.5693,2.5693,2.5693,2.5693,2.5693,2.5693,2.5693,2.5693,2.5693,2.5693,2.5567,2.543,2.543,2.5156,2.4766,2.4766,2.4492,2.4092,2.3867,2.3652,2.3447,2.3169,2.3091,2.3091,2.3091,2.3091,2.3091,2.3091,2.3091,2.3091,2.3091,2.3091,2.3042,2.2847,2.2808,2.275,2.2555,2.2672,2.2808,2.2808,2.2964,2.3091,2.3091,2.3091,2.3091,2.3091,2.3091,2.3091,2.3091,2.3091,2.3091,2.3091,2.3091,2.3091,2.3091,2.3091,2.3091,2.3091,2.3091,2.3091,2.3091,2.3091,2.3091,2.3091,2.3091,2.3091,2.3091,2.3091,2.3091,2.3091,2.3091,2.3091,2.3091,2.3091,2.3091,2.3091,2.3091,2.3091,2.3091,2.3091,2.3091,2.3091,2.3091,2.3091,2.3091,3.0315,3.0315,3.0315,3.0315,3.0232,3.016,3.016,3.0067,2.9994,2.9994,2.9994,2.9994,2.9994,2.9827,2.9711,2.9711,2.9448,2.929,2.929,2.9036,2.8887,2.8781,2.8568,2.8251,2.7927,2.7767,2.7344,2.668,2.6582,2.6318,2.584,2.584,2.5781,2.5693,2.5693,2.5693,2.5693,2.5693,2.5693,2.5693,2.5693,2.5693,2.5693,2.5693,2.5527,2.5225,2.5225,2.4941,2.4521,2.4199,2.4023,2.3857,2.3428,2.3247,2.3227,2.312,2.3091,2.3091,2.3091,2.3091,2.3091,2.3091,2.3091,2.3091,2.3091,2.3091,2.3091,2.3091,2.3091,2.3091,2.3091,2.3091,2.3091,2.3091,2.3091,2.3091,2.3091,2.3091,2.3091,2.3091,2.3091,2.3091,2.3091,2.3091,2.3091,2.3091,2.3091,2.3091,2.3091,2.3091,2.3091,2.3091,2.3091,2.3091,2.3091,2.3091,2.3091,2.3091,2.3091,2.3091,2.3091,2.3091,2.3091,2.3091,2.3091,2.3091,2.3091,2.3091,2.3091,2.3091,2.3091,2.3091,2.3091,2.3091,2.3091,2.3091,3.1278,3.1278,3.1278,3.1278,3.0915,3.0636,3.0636,3.0274,2.9994,2.9994,2.9994,2.9994,2.9994,2.9994,2.9994,2.9994,2.9942,2.9942,2.9942,2.9669,2.9396,2.9079,2.8834,2.8664,2.8635,2.8029,2.7689,2.762,2.7168,2.6758,2.6338,2.6338,2.6123,2.5693,2.5693,2.5693,2.5693,2.5693,2.5693,2.5693,2.5693,2.5693,2.5693,2.5693,2.5664,2.5635,2.5635,2.54,2.5057,2.5028,2.4707,2.4297,2.3877,2.374,2.3662,2.3218,2.3091,2.3091,2.3091,2.3091,2.3091,2.3091,2.3091,2.3091,2.3091,2.3091,2.3091,2.3091,2.3091,2.3091,2.3091,2.3091,2.3091,2.3091,2.3091,2.3091,2.3091,2.3091,2.3091,2.3091,2.3091,2.3091,2.3091,2.3091,2.3091,2.3091,2.3091,2.3091,2.3091,2.3091,2.3091,2.3091,2.3091,2.3091,2.3091,2.3091,2.3091,2.3091,2.3091,2.3091,2.3091,2.3091,2.3091,2.3091,2.3091,2.3091,2.3091,2.3091,2.3091,2.3091,2.3091,2.3091,2.3091,2.3091,2.3091,2.3091,3.1381,3.1381,3.1381,3.1381,3.1236,3.1019,3.0729,3.0532,3.0325,3.0036,2.9994,2.9994,2.9994,2.9994,2.9994,2.9994,2.9994,2.9994,2.9994,2.9889,2.9617,2.9132,2.8973,2.893,2.893,2.8717,2.8446,2.8177,2.7843,2.7434,2.701,2.701,2.6921,2.6744,2.6695,2.6625,2.6605,2.6132,2.5965,2.5907,2.5781,2.5693,2.5693,2.5693,2.5693,2.5693,2.5693,2.5577,2.5439,2.5166,2.4998,2.4746,2.4316,2.4004,2.3711,2.3227,2.3091,2.3091,2.3091,2.3091,2.3091,2.3091,2.3091,2.3091,2.3091,2.3091,2.3091,2.3091,2.3091,2.3091,2.3091,2.3091,2.3091,2.3091,2.3091,2.3091,2.3091,2.3091,2.3091,2.3091,2.3091,2.3091,2.3091,2.3091,2.3091,2.3091,2.3091,2.3091,2.3091,2.3091,2.3091,2.3091,2.3091,2.3091,2.3091,2.3091,2.3091,2.3091,2.3091,2.3091,2.3091,2.3091,2.3091,2.3091,2.3091,2.3091,2.3091,2.3091,2.3091,2.3091,2.3091,2.3091,2.3091,2.3091,2.3091,2.3091,3.1805,3.1805,3.1805,3.1805,3.1681,3.1474,3.1164,3.0874,3.0574,3.0253,3.0087,2.9994,2.9994,2.9994,2.9994,2.9994,2.9994,2.9994,2.9994,2.9994,2.9837,2.9396,2.929,2.9237,2.9237,2.9132,2.8981,2.8689,2.8523,2.8189,2.776,2.776,2.7691,2.7541,2.7462,2.7431,2.7401,2.6693,2.6455,2.6445,2.6073,2.5975,2.5927,2.5878,2.583,2.582,2.5732,2.5693,2.5645,2.5381,2.5283,2.5195,2.4756,2.4326,2.3906,2.3467,2.3305,2.331,2.313,2.3091,2.3091,2.3091,2.3091,2.3091,2.3091,2.3091,2.3091,2.3091,2.3091,2.3091,2.3091,2.3091,2.3091,2.3091,2.3091,2.3091,2.3091,2.3091,2.3091,2.3091,2.3091,2.3091,2.3091,2.3091,2.3091,2.3091,2.3091,2.3091,2.3091,2.3091,2.3091,2.3091,2.3091,2.3091,2.3091,2.3091,2.3091,2.3091,2.3091,2.3091,2.3091,2.3091,2.3091,2.3091,2.3091,2.3091,2.3091,2.3091,2.3091,2.3091,2.3091,2.3091,2.3091,2.3091,2.3091,2.3091,3.2669,3.2669,3.2669,3.2669,3.2287,3.1988,3.1988,3.1278,3.0698,3.0688,3.0284,3.0005,2.9994,2.9994,2.9994,2.9994,2.9994,2.9994,2.9994,2.9994,2.9994,2.9994,2.9774,2.9606,2.9606,2.929,2.9132,2.9132,2.9079,2.891,2.8488,2.8488,2.8318,2.7895,2.7895,2.7895,2.7864,2.7421,2.723,2.7189,2.6687,2.6506,2.6506,2.6197,2.61,2.6052,2.5781,2.5693,2.5693,2.5693,2.5693,2.5615,2.5205,2.4775,2.4336,2.3916,2.3789,2.3691,2.3218,2.3091,2.3091,2.3091,2.3091,2.3091,2.3091,2.3091,2.3091,2.3091,2.3091,2.3091,2.3091,2.3091,2.3091,2.3091,2.3091,2.3091,2.3091,2.3091,2.3091,2.3091,2.3091,2.3091,2.3091,2.3091,2.3091,2.3091,2.3091,2.3091,2.3091,2.3091,2.3091,2.3091,2.3091,2.3091,2.3091,2.3091,2.3091,2.3091,2.3091,2.3091,2.3091,2.3091,2.3091,2.3091,2.3091,2.3091,2.3091,2.3091,2.3091,2.3091,2.3091,2.3091,2.3091,2.3091,2.3091,2.3091,3.2669,3.2669,3.2669,3.2669,3.2556,3.2359,3.2039,3.176,3.1402,3.077,3.0563,3.0356,3.0036,2.9994,2.9994,2.9994,2.9994,2.9994,2.9994,2.9994,2.9994,2.9994,2.9942,2.9879,2.9879,2.9774,2.9722,2.9722,2.9554,2.9387,2.9255,2.9255,2.9236,2.9104,2.8942,2.8901,2.8819,2.8196,2.7903,2.7872,2.7239,2.6969,2.6939,2.652,2.6245,2.61,2.6004,2.5868,2.5693,2.5693,2.5693,2.5615,2.5205,2.498,2.4785,2.4355,2.4023,2.376,2.3633,2.3369,2.3091,2.3091,2.3091,2.3091,2.3091,2.3091,2.3091,2.3091,2.3091,2.3091,2.3091,2.3091,2.3091,2.3091,2.3091,2.3091,2.3091,2.3091,2.3091,2.3091,2.3091,2.3091,2.3091,2.3091,2.3091,2.3091,2.3091,2.3091,2.3091,2.3091,2.3091,2.3091,2.3091,2.3091,2.3091,2.3091,2.3091,2.3091,2.3091,2.3091,2.3091,2.3091,2.3091,2.3091,2.3091,2.3091,2.3091,2.3091,2.3091,2.3091,2.3091,2.3091,2.3091,2.3091,2.3091,2.3091,3.2727,3.2669,3.2669,3.2669,3.2669,3.2576,3.2297,3.2101,3.1791,3.1298,3.1071,3.0781,3.0325,3.0274,3.0191,3.0015,2.9994,2.9994,2.9994,2.9994,2.9994,2.9994,2.9994,2.9994,2.9994,2.9994,2.9994,2.9994,2.9827,2.9774,2.9774,2.9774,2.9774,2.9764,2.9642,2.958,2.9549,2.8921,2.8624,2.8583,2.7992,2.7657,2.7425,2.7053,2.6744,2.64,2.6294,2.6159,2.6024,2.5868,2.5781,2.5645,2.542,2.5332,2.5244,2.4805,2.4585,2.4451,2.4228,2.3954,2.3619,2.3531,2.3315,2.3091,2.3091,2.3091,2.3091,2.3091,2.3091,2.3091,2.3091,2.3091,2.3091,2.3091,2.3091,2.3091,2.3091,2.3091,2.3091,2.3091,2.3091,2.3091,2.3091,2.3091,2.3091,2.3091,2.3091,2.3091,2.3091,2.3091,2.3091,2.3091,2.3091,2.3091,2.3091,2.3091,2.3091,2.3091,2.3091,2.3091,2.3091,2.3091,2.3091,2.3091,2.3091,2.3091,2.3091,2.3091,2.3091,2.3091,2.3091,2.3091,2.3091,2.3091,2.3091,2.3091,3.2851,3.2727,3.2737,3.2737,3.2669,3.2669,3.2669,3.2318,3.2029,3.1988,3.1692,3.1267,3.0801,3.075,3.0584,3.016,3.0087,3.0036,2.9994,2.9994,2.9994,2.9994,2.9994,2.9994,2.9994,2.9994,2.9994,2.9994,2.9994,2.9994,2.9994,2.9994,2.9994,2.9994,2.9994,2.9994,2.9973,2.9539,2.9363,2.9321,2.8866,2.8421,2.7989,2.7762,2.7408,2.6965,2.6721,2.6605,2.6508,2.6207,2.5965,2.5791,2.5791,2.5791,2.5703,2.5339,2.5391,2.5424,2.5017,2.4726,2.452,2.4257,2.3718,2.3184,2.3101,2.3091,2.3091,2.3091,2.3091,2.3091,2.3091,2.3091,2.3091,2.3091,2.3091,2.3091,2.3091,2.3091,2.3091,2.3091,2.3091,2.3091,2.3091,2.3091,2.3091,2.3091,2.3091,2.3091,2.3091,2.3091,2.3091,2.3091,2.3091,2.3091,2.3091,2.3091,2.3091,2.3091,2.3091,2.3091,2.3091,2.3091,2.3091,2.3091,2.3091,2.3091,2.3091,2.3091,2.3091,2.3091,2.3091,2.3091,2.3091,2.3091,2.3091,2.3091,3.3193,3.3079,3.3022,3.2727,3.2669,3.2669,3.2669,3.2587,3.239,3.2039,3.1895,3.1723,3.1278,3.1226,3.1184,3.1091,3.0739,3.0387,3.0015,2.9994,2.9994,2.9994,2.9994,2.9994,2.9994,2.9994,2.9994,2.9994,2.9994,2.9994,2.9994,2.9994,2.9994,2.9994,2.9994,2.9994,2.9984,2.9891,2.9849,2.9808,2.9342,2.9094,2.8959,2.8547,2.8202,2.787,2.7523,2.7215,2.6969,2.6569,2.6352,2.6314,2.6314,2.6314,2.6284,2.6232,2.5962,2.5718,2.5618,2.5324,2.4957,2.456,2.4301,2.4008,2.3257,2.3091,2.3091,2.3091,2.3091,2.3091,2.3091,2.3091,2.3091,2.3091,2.3091,2.3091,2.3091,2.3091,2.3091,2.3091,2.3091,2.3091,2.3091,2.3091,2.3091,2.3091,2.3091,2.3091,2.3091,2.3091,2.3091,2.3091,2.3091,2.3091,2.3091,2.3091,2.3091,2.3091,2.3091,2.3091,2.3091,2.3091,2.3091,2.3091,2.3091,2.3091,2.3091,2.3091,2.3091,2.3091,2.3091,2.3091,2.3091,2.3091,2.3091,2.3091,3.3749,3.3646,3.3523,3.3182,3.3012,3.2965,3.2965,3.2794,3.2587,3.2349,3.2308,3.2199,3.1743,3.1692,3.1609,3.1391,3.1153,3.0822,3.0356,3.0325,3.0222,3.0005,2.9994,2.9994,2.9994,2.9994,2.9994,2.9994,2.9994,2.9994,2.9994,2.9994,2.9994,2.9994,2.9994,2.9994,2.9994,2.9994,2.9994,2.9973,2.9735,2.9497,2.928,2.9032,2.8703,2.8366,2.814,2.7776,2.7366,2.7132,2.6812,2.6496,2.6496,2.6496,2.6496,2.6496,2.6431,2.6297,2.6297,2.6113,2.5798,2.5417,2.5169,2.4755,2.3686,2.344,2.344,2.344,2.344,2.344,2.344,2.3363,2.3276,2.3276,2.3188,2.3091,2.3091,2.3091,2.3091,2.3091,2.3091,2.3091,2.3091,2.3091,2.3091,2.3091,2.3091,2.3091,2.3091,2.3091,2.3091,2.3091,2.3091,2.3091,2.3091,2.3091,2.3091,2.3091,2.3091,2.3091,2.3091,2.3091,2.3091,2.3091,2.3091,2.3091,2.3091,2.3091,2.3091,2.3091,2.3091,2.3091,2.3091,2.3091,2.3091,2.3091,3.4624,3.4412,3.4244,3.3896,3.3568,3.3363,3.3363,3.3079,3.2841,3.2841,3.2841,3.2695,3.2255,3.2157,3.1981,3.1526,3.1495,3.1298,3.0833,3.0801,3.0636,3.0253,3.0232,3.0232,3.0232,3.0232,3.0149,2.9994,2.9994,2.9994,2.9994,2.9994,2.9994,2.9994,2.9994,2.9994,2.9994,2.9994,2.9994,2.9994,2.9994,2.9766,2.9425,2.9425,2.9187,2.8835,2.8763,2.8293,2.7754,2.7754,2.7362,2.6853,2.6772,2.6752,2.6742,2.6661,2.6794,2.6948,2.6948,2.6851,2.6662,2.6336,2.6023,2.5497,2.4429,2.4055,2.3888,2.3817,2.3797,2.3797,2.3797,2.3667,2.3547,2.3503,2.3319,2.3135,2.3101,2.3091,2.3091,2.3091,2.3091,2.3091,2.3091,2.3091,2.3091,2.3091,2.3091,2.3091,2.3091,2.3091,2.3091,2.3091,2.3091,2.3091,2.3091,2.3091,2.3091,2.3091,2.3091,2.3091,2.3091,2.3091,2.3091,2.3091,2.3091,2.3091,2.3091,2.3091,2.3091,2.3091,2.3091,2.3091,2.3091,2.3091,2.3091,2.3091,3.6025,3.5543,3.5102,3.4803,3.4278,3.3974,3.3974,3.3692,3.3455,3.3455,3.3455,3.3388,3.3042,3.2758,3.239,3.1936,3.1895,3.1764,3.1309,3.1288,3.1257,3.1195,3.1184,3.1184,3.1184,3.1184,3.0801,2.9994,2.9994,2.9994,2.9994,2.9994,2.9994,2.9994,2.9994,2.9994,2.9994,2.9994,2.9994,2.9994,2.9994,2.9953,2.9901,2.9901,2.986,2.9756,2.9352,2.8867,2.8475,2.8475,2.8384,2.826,2.7858,2.7685,2.7662,2.727,2.7214,2.7262,2.7262,2.722,2.7112,2.6672,2.6527,2.6305,2.5733,2.4999,2.4313,2.3878,2.3797,2.3797,2.3797,2.3797,2.3711,2.3547,2.346,2.3363,2.3135,2.3091,2.3091,2.3091,2.3091,2.3091,2.3091,2.3091,2.3091,2.3091,2.3091,2.3091,2.3091,2.3091,2.3091,2.3091,2.3091,2.3091,2.3091,2.3091,2.3091,2.3091,2.3091,2.3091,2.3091,2.3091,2.3091,2.3091,2.3091,2.3091,2.3091,2.3091,2.3091,2.3091,2.3091,2.3091,2.3091,2.3091,2.3091,2.3091,3.7042,3.6762,3.6449,3.597,3.5532,3.5212,3.5058,3.478,3.4547,3.4323,3.4323,3.4166,3.3749,3.3239,3.2882,3.2673,3.2483,3.2173,3.1774,3.1743,3.164,3.1391,3.1381,3.1381,3.1381,3.1381,3.1174,3.077,3.0512,3.0253,2.9994,2.9994,2.9994,2.9994,2.9994,2.9994,2.9994,2.9994,2.9994,2.9994,2.9994,2.9994,2.9994,2.9994,2.9994,2.9973,2.9766,2.9394,2.9001,2.9001,2.8825,2.8576,2.838,2.8307,2.8214,2.7759,2.7634,2.7572,2.7372,2.7309,2.7258,2.705,2.6998,2.6884,2.6418,2.5976,2.5527,2.5067,2.4781,2.4574,2.4574,2.4283,2.398,2.3904,2.3764,2.3624,2.3493,2.3493,2.345,2.3319,2.3319,2.3276,2.3091,2.3091,2.3091,2.3091,2.3091,2.3091,2.3091,2.3091,2.3091,2.3091,2.3091,2.3091,2.3091,2.3091,2.3091,2.3091,2.3091,2.3091,2.3091,2.3091,2.3091,2.3091,2.3091,2.3091,2.3091,2.3091,2.3091,2.3091,2.3091,2.3091,2.3091,2.3091,2.3091,2.3091]}]]